<?xml version="1.0" encoding="UTF-8" standalone="no" ?>
<gpx xmlns="http://www.topografix.com/GPX/1/1" xmlns:xsi="http://www.w3.org/2001/XMLSchema-instance" xsi:schemaLocation="http://www.topografix.com/GPX/1/1 http://www.topografix.com/GPX/1/1/gpx.xsd" version="1.1" creator="VisuGPX - https://www.visugpx.com">
  <metadata>
    <name>campbiel</name>
    <desc><![CDATA[description à venir
[url][/url]
[img][/img]]]></desc>
  </metadata>
  <trk>
    <name><![CDATA[Campbiel]]></name>
    <trkseg>
      <trkpt lat="42.81199" lon="0.147">
        <ele>2019</ele>
        <time>2015-05-17T05:18:23Z</time>
      </trkpt>
      <trkpt lat="42.81202" lon="0.14697">
        <ele>2023</ele>
        <time>2015-05-17T05:18:38Z</time>
      </trkpt>
      <trkpt lat="42.81202" lon="0.14696">
        <ele>2028</ele>
        <time>2015-05-17T05:18:39Z</time>
      </trkpt>
      <trkpt lat="42.81202" lon="0.14696">
        <ele>2031</ele>
        <time>2015-05-17T05:18:40Z</time>
      </trkpt>
      <trkpt lat="42.81203" lon="0.14695">
        <ele>2035</ele>
        <time>2015-05-17T05:18:41Z</time>
      </trkpt>
      <trkpt lat="42.81203" lon="0.14694">
        <ele>2038</ele>
        <time>2015-05-17T05:18:42Z</time>
      </trkpt>
      <trkpt lat="42.81203" lon="0.14689">
        <ele>2042</ele>
        <time>2015-05-17T05:18:43Z</time>
      </trkpt>
      <trkpt lat="42.81203" lon="0.14689">
        <ele>2045</ele>
        <time>2015-05-17T05:18:44Z</time>
      </trkpt>
      <trkpt lat="42.81203" lon="0.1469">
        <ele>2049</ele>
        <time>2015-05-17T05:18:45Z</time>
      </trkpt>
      <trkpt lat="42.81202" lon="0.14691">
        <ele>2055</ele>
        <time>2015-05-17T05:18:46Z</time>
      </trkpt>
      <trkpt lat="42.81202" lon="0.14691">
        <ele>2055</ele>
        <time>2015-05-17T05:18:47Z</time>
      </trkpt>
      <trkpt lat="42.81201" lon="0.14692">
        <ele>2060</ele>
        <time>2015-05-17T05:18:49Z</time>
      </trkpt>
      <trkpt lat="42.81201" lon="0.14692">
        <ele>2067</ele>
        <time>2015-05-17T05:18:51Z</time>
      </trkpt>
      <trkpt lat="42.81201" lon="0.14693">
        <ele>2070</ele>
        <time>2015-05-17T05:18:53Z</time>
      </trkpt>
      <trkpt lat="42.81201" lon="0.14694">
        <ele>2076</ele>
        <time>2015-05-17T05:18:55Z</time>
      </trkpt>
      <trkpt lat="42.81202" lon="0.14694">
        <ele>2080</ele>
        <time>2015-05-17T05:18:57Z</time>
      </trkpt>
      <trkpt lat="42.81202" lon="0.14694">
        <ele>2084</ele>
        <time>2015-05-17T05:18:59Z</time>
      </trkpt>
      <trkpt lat="42.81202" lon="0.14694">
        <ele>2086</ele>
        <time>2015-05-17T05:19:00Z</time>
      </trkpt>
      <trkpt lat="42.812" lon="0.14696">
        <ele>2090</ele>
        <time>2015-05-17T05:19:04Z</time>
      </trkpt>
      <trkpt lat="42.81199" lon="0.14698">
        <ele>2094</ele>
        <time>2015-05-17T05:19:06Z</time>
      </trkpt>
      <trkpt lat="42.81199" lon="0.14698">
        <ele>2098</ele>
        <time>2015-05-17T05:19:08Z</time>
      </trkpt>
      <trkpt lat="42.81199" lon="0.14696">
        <ele>2103</ele>
        <time>2015-05-17T05:19:11Z</time>
      </trkpt>
      <trkpt lat="42.81199" lon="0.14697">
        <ele>2106</ele>
        <time>2015-05-17T05:19:13Z</time>
      </trkpt>
      <trkpt lat="42.81199" lon="0.14698">
        <ele>2109</ele>
        <time>2015-05-17T05:19:15Z</time>
      </trkpt>
      <trkpt lat="42.81199" lon="0.14697">
        <ele>2113</ele>
        <time>2015-05-17T05:19:18Z</time>
      </trkpt>
      <trkpt lat="42.81199" lon="0.14697">
        <ele>2116</ele>
        <time>2015-05-17T05:19:21Z</time>
      </trkpt>
      <trkpt lat="42.81197" lon="0.14697">
        <ele>2120</ele>
        <time>2015-05-17T05:19:24Z</time>
      </trkpt>
      <trkpt lat="42.81197" lon="0.14695">
        <ele>2124</ele>
        <time>2015-05-17T05:19:27Z</time>
      </trkpt>
      <trkpt lat="42.81195" lon="0.14694">
        <ele>2127</ele>
        <time>2015-05-17T05:19:30Z</time>
      </trkpt>
      <trkpt lat="42.81194" lon="0.14694">
        <ele>2130</ele>
        <time>2015-05-17T05:19:34Z</time>
      </trkpt>
      <trkpt lat="42.81194" lon="0.14694">
        <ele>2133</ele>
        <time>2015-05-17T05:19:37Z</time>
      </trkpt>
      <trkpt lat="42.81195" lon="0.14695">
        <ele>2133</ele>
        <time>2015-05-17T05:19:38Z</time>
      </trkpt>
      <trkpt lat="42.81196" lon="0.14694">
        <ele>2137</ele>
        <time>2015-05-17T05:19:42Z</time>
      </trkpt>
      <trkpt lat="42.81198" lon="0.14694">
        <ele>2138</ele>
        <time>2015-05-17T05:19:44Z</time>
      </trkpt>
      <trkpt lat="42.812" lon="0.14694">
        <ele>2142</ele>
        <time>2015-05-17T05:19:51Z</time>
      </trkpt>
      <trkpt lat="42.81201" lon="0.14692">
        <ele>2146</ele>
        <time>2015-05-17T05:20:06Z</time>
      </trkpt>
      <trkpt lat="42.81204" lon="0.1469">
        <ele>2147</ele>
        <time>2015-05-17T05:20:26Z</time>
      </trkpt>
      <trkpt lat="42.81204" lon="0.14695">
        <ele>2147</ele>
        <time>2015-05-17T05:20:44Z</time>
      </trkpt>
      <trkpt lat="42.81201" lon="0.14693">
        <ele>2147</ele>
        <time>2015-05-17T05:20:57Z</time>
      </trkpt>
      <trkpt lat="42.81199" lon="0.14698">
        <ele>2147</ele>
        <time>2015-05-17T05:21:17Z</time>
      </trkpt>
      <trkpt lat="42.81201" lon="0.14697">
        <ele>2148</ele>
        <time>2015-05-17T05:21:33Z</time>
      </trkpt>
      <trkpt lat="42.81201" lon="0.14696">
        <ele>2148</ele>
        <time>2015-05-17T05:21:42Z</time>
      </trkpt>
      <trkpt lat="42.81201" lon="0.14695">
        <ele>2147</ele>
        <time>2015-05-17T05:22:02Z</time>
      </trkpt>
      <trkpt lat="42.81201" lon="0.14697">
        <ele>2147</ele>
        <time>2015-05-17T05:22:28Z</time>
      </trkpt>
      <trkpt lat="42.81198" lon="0.14696">
        <ele>2147</ele>
        <time>2015-05-17T05:22:35Z</time>
      </trkpt>
      <trkpt lat="42.81191" lon="0.14694">
        <ele>2148</ele>
        <time>2015-05-17T05:22:46Z</time>
      </trkpt>
      <trkpt lat="42.81175" lon="0.14686">
        <ele>2149</ele>
        <time>2015-05-17T05:23:00Z</time>
      </trkpt>
      <trkpt lat="42.81163" lon="0.14679">
        <ele>2148</ele>
        <time>2015-05-17T05:23:13Z</time>
      </trkpt>
      <trkpt lat="42.8115" lon="0.14665">
        <ele>2150</ele>
        <time>2015-05-17T05:23:27Z</time>
      </trkpt>
      <trkpt lat="42.81142" lon="0.14657">
        <ele>2150</ele>
        <time>2015-05-17T05:23:39Z</time>
      </trkpt>
      <trkpt lat="42.8114" lon="0.14653">
        <ele>2150</ele>
        <time>2015-05-17T05:23:42Z</time>
      </trkpt>
      <trkpt lat="42.81132" lon="0.14639">
        <ele>2151</ele>
        <time>2015-05-17T05:23:55Z</time>
      </trkpt>
      <trkpt lat="42.81122" lon="0.14625">
        <ele>2153</ele>
        <time>2015-05-17T05:24:10Z</time>
      </trkpt>
      <trkpt lat="42.81107" lon="0.14611">
        <ele>2153</ele>
        <time>2015-05-17T05:24:27Z</time>
      </trkpt>
      <trkpt lat="42.81101" lon="0.14605">
        <ele>2155</ele>
        <time>2015-05-17T05:24:34Z</time>
      </trkpt>
      <trkpt lat="42.81091" lon="0.14594">
        <ele>2155</ele>
        <time>2015-05-17T05:24:46Z</time>
      </trkpt>
      <trkpt lat="42.81079" lon="0.14584">
        <ele>2157</ele>
        <time>2015-05-17T05:25:01Z</time>
      </trkpt>
      <trkpt lat="42.81074" lon="0.14581">
        <ele>2159</ele>
        <time>2015-05-17T05:25:06Z</time>
      </trkpt>
      <trkpt lat="42.81061" lon="0.14569">
        <ele>2159</ele>
        <time>2015-05-17T05:25:20Z</time>
      </trkpt>
      <trkpt lat="42.81048" lon="0.14558">
        <ele>2161</ele>
        <time>2015-05-17T05:25:35Z</time>
      </trkpt>
      <trkpt lat="42.81036" lon="0.14553">
        <ele>2162</ele>
        <time>2015-05-17T05:25:48Z</time>
      </trkpt>
      <trkpt lat="42.81022" lon="0.14558">
        <ele>2163</ele>
        <time>2015-05-17T05:26:02Z</time>
      </trkpt>
      <trkpt lat="42.81012" lon="0.14557">
        <ele>2165</ele>
        <time>2015-05-17T05:26:15Z</time>
      </trkpt>
      <trkpt lat="42.80999" lon="0.14555">
        <ele>2166</ele>
        <time>2015-05-17T05:26:28Z</time>
      </trkpt>
      <trkpt lat="42.80988" lon="0.14554">
        <ele>2167</ele>
        <time>2015-05-17T05:26:41Z</time>
      </trkpt>
      <trkpt lat="42.80982" lon="0.14553">
        <ele>2168</ele>
        <time>2015-05-17T05:26:49Z</time>
      </trkpt>
      <trkpt lat="42.8097" lon="0.14543">
        <ele>2170</ele>
        <time>2015-05-17T05:27:03Z</time>
      </trkpt>
      <trkpt lat="42.8096" lon="0.14537">
        <ele>2172</ele>
        <time>2015-05-17T05:27:16Z</time>
      </trkpt>
      <trkpt lat="42.80949" lon="0.1453">
        <ele>2175</ele>
        <time>2015-05-17T05:27:29Z</time>
      </trkpt>
      <trkpt lat="42.80937" lon="0.14526">
        <ele>2177</ele>
        <time>2015-05-17T05:27:43Z</time>
      </trkpt>
      <trkpt lat="42.80925" lon="0.1452">
        <ele>2178</ele>
        <time>2015-05-17T05:27:57Z</time>
      </trkpt>
      <trkpt lat="42.80916" lon="0.14514">
        <ele>2179</ele>
        <time>2015-05-17T05:28:06Z</time>
      </trkpt>
      <trkpt lat="42.80914" lon="0.14512">
        <ele>2179</ele>
        <time>2015-05-17T05:28:08Z</time>
      </trkpt>
      <trkpt lat="42.80902" lon="0.14507">
        <ele>2182</ele>
        <time>2015-05-17T05:28:22Z</time>
      </trkpt>
      <trkpt lat="42.80893" lon="0.14503">
        <ele>2183</ele>
        <time>2015-05-17T05:28:36Z</time>
      </trkpt>
      <trkpt lat="42.80886" lon="0.145">
        <ele>2184</ele>
        <time>2015-05-17T05:28:44Z</time>
      </trkpt>
      <trkpt lat="42.80872" lon="0.14498">
        <ele>2185</ele>
        <time>2015-05-17T05:28:57Z</time>
      </trkpt>
      <trkpt lat="42.80859" lon="0.14486">
        <ele>2185</ele>
        <time>2015-05-17T05:29:11Z</time>
      </trkpt>
      <trkpt lat="42.80847" lon="0.14477">
        <ele>2187</ele>
        <time>2015-05-17T05:29:26Z</time>
      </trkpt>
      <trkpt lat="42.80839" lon="0.14474">
        <ele>2188</ele>
        <time>2015-05-17T05:29:33Z</time>
      </trkpt>
      <trkpt lat="42.80827" lon="0.14463">
        <ele>2189</ele>
        <time>2015-05-17T05:29:48Z</time>
      </trkpt>
      <trkpt lat="42.8082" lon="0.1445">
        <ele>2190</ele>
        <time>2015-05-17T05:29:59Z</time>
      </trkpt>
      <trkpt lat="42.80816" lon="0.14438">
        <ele>2192</ele>
        <time>2015-05-17T05:30:10Z</time>
      </trkpt>
      <trkpt lat="42.80812" lon="0.14421">
        <ele>2195</ele>
        <time>2015-05-17T05:30:24Z</time>
      </trkpt>
      <trkpt lat="42.80809" lon="0.14402">
        <ele>2196</ele>
        <time>2015-05-17T05:30:40Z</time>
      </trkpt>
      <trkpt lat="42.80807" lon="0.14388">
        <ele>2199</ele>
        <time>2015-05-17T05:30:54Z</time>
      </trkpt>
      <trkpt lat="42.80803" lon="0.14376">
        <ele>2202</ele>
        <time>2015-05-17T05:31:08Z</time>
      </trkpt>
      <trkpt lat="42.80801" lon="0.14364">
        <ele>2204</ele>
        <time>2015-05-17T05:31:22Z</time>
      </trkpt>
      <trkpt lat="42.80796" lon="0.14356">
        <ele>2206</ele>
        <time>2015-05-17T05:31:35Z</time>
      </trkpt>
      <trkpt lat="42.80788" lon="0.14344">
        <ele>2210</ele>
        <time>2015-05-17T05:31:51Z</time>
      </trkpt>
      <trkpt lat="42.80785" lon="0.14334">
        <ele>2211</ele>
        <time>2015-05-17T05:32:05Z</time>
      </trkpt>
      <trkpt lat="42.80781" lon="0.1433">
        <ele>2214</ele>
        <time>2015-05-17T05:32:16Z</time>
      </trkpt>
      <trkpt lat="42.80772" lon="0.14333">
        <ele>2216</ele>
        <time>2015-05-17T05:32:31Z</time>
      </trkpt>
      <trkpt lat="42.80769" lon="0.14337">
        <ele>2218</ele>
        <time>2015-05-17T05:32:45Z</time>
      </trkpt>
      <trkpt lat="42.80768" lon="0.14338">
        <ele>2218</ele>
        <time>2015-05-17T05:32:47Z</time>
      </trkpt>
      <trkpt lat="42.80763" lon="0.14345">
        <ele>2220</ele>
        <time>2015-05-17T05:33:00Z</time>
      </trkpt>
      <trkpt lat="42.80755" lon="0.14348">
        <ele>2223</ele>
        <time>2015-05-17T05:33:13Z</time>
      </trkpt>
      <trkpt lat="42.80747" lon="0.14348">
        <ele>2225</ele>
        <time>2015-05-17T05:33:26Z</time>
      </trkpt>
      <trkpt lat="42.80741" lon="0.14349">
        <ele>2227</ele>
        <time>2015-05-17T05:33:35Z</time>
      </trkpt>
      <trkpt lat="42.8073" lon="0.14352">
        <ele>2230</ele>
        <time>2015-05-17T05:33:51Z</time>
      </trkpt>
      <trkpt lat="42.80722" lon="0.1436">
        <ele>2232</ele>
        <time>2015-05-17T05:34:05Z</time>
      </trkpt>
      <trkpt lat="42.80716" lon="0.14375">
        <ele>2234</ele>
        <time>2015-05-17T05:34:21Z</time>
      </trkpt>
      <trkpt lat="42.80714" lon="0.14382">
        <ele>2236</ele>
        <time>2015-05-17T05:34:35Z</time>
      </trkpt>
      <trkpt lat="42.80711" lon="0.14385">
        <ele>2236</ele>
        <time>2015-05-17T05:34:54Z</time>
      </trkpt>
      <trkpt lat="42.80707" lon="0.14386">
        <ele>2239</ele>
        <time>2015-05-17T05:35:09Z</time>
      </trkpt>
      <trkpt lat="42.807" lon="0.14391">
        <ele>2241</ele>
        <time>2015-05-17T05:35:21Z</time>
      </trkpt>
      <trkpt lat="42.80693" lon="0.14387">
        <ele>2245</ele>
        <time>2015-05-17T05:35:34Z</time>
      </trkpt>
      <trkpt lat="42.80686" lon="0.14379">
        <ele>2247</ele>
        <time>2015-05-17T05:35:51Z</time>
      </trkpt>
      <trkpt lat="42.8068" lon="0.14376">
        <ele>2250</ele>
        <time>2015-05-17T05:36:04Z</time>
      </trkpt>
      <trkpt lat="42.80678" lon="0.14362">
        <ele>2252</ele>
        <time>2015-05-17T05:36:19Z</time>
      </trkpt>
      <trkpt lat="42.80671" lon="0.14358">
        <ele>2254</ele>
        <time>2015-05-17T05:36:32Z</time>
      </trkpt>
      <trkpt lat="42.80664" lon="0.14355">
        <ele>2256</ele>
        <time>2015-05-17T05:36:45Z</time>
      </trkpt>
      <trkpt lat="42.80665" lon="0.14354">
        <ele>2255</ele>
        <time>2015-05-17T05:37:04Z</time>
      </trkpt>
      <trkpt lat="42.80667" lon="0.14353">
        <ele>2256</ele>
        <time>2015-05-17T05:37:26Z</time>
      </trkpt>
      <trkpt lat="42.80665" lon="0.14353">
        <ele>2257</ele>
        <time>2015-05-17T05:37:29Z</time>
      </trkpt>
      <trkpt lat="42.80663" lon="0.14353">
        <ele>2257</ele>
        <time>2015-05-17T05:37:33Z</time>
      </trkpt>
      <trkpt lat="42.80649" lon="0.14346">
        <ele>2260</ele>
        <time>2015-05-17T05:37:48Z</time>
      </trkpt>
      <trkpt lat="42.80648" lon="0.14345">
        <ele>2261</ele>
        <time>2015-05-17T05:37:50Z</time>
      </trkpt>
      <trkpt lat="42.8064" lon="0.14343">
        <ele>2263</ele>
        <time>2015-05-17T05:38:03Z</time>
      </trkpt>
      <trkpt lat="42.8063" lon="0.14342">
        <ele>2265</ele>
        <time>2015-05-17T05:38:17Z</time>
      </trkpt>
      <trkpt lat="42.80622" lon="0.14334">
        <ele>2268</ele>
        <time>2015-05-17T05:38:29Z</time>
      </trkpt>
      <trkpt lat="42.80618" lon="0.14322">
        <ele>2270</ele>
        <time>2015-05-17T05:38:42Z</time>
      </trkpt>
      <trkpt lat="42.80612" lon="0.14312">
        <ele>2273</ele>
        <time>2015-05-17T05:38:56Z</time>
      </trkpt>
      <trkpt lat="42.80605" lon="0.14299">
        <ele>2276</ele>
        <time>2015-05-17T05:39:12Z</time>
      </trkpt>
      <trkpt lat="42.80603" lon="0.14294">
        <ele>2277</ele>
        <time>2015-05-17T05:39:20Z</time>
      </trkpt>
      <trkpt lat="42.80599" lon="0.14285">
        <ele>2280</ele>
        <time>2015-05-17T05:39:31Z</time>
      </trkpt>
      <trkpt lat="42.80594" lon="0.14276">
        <ele>2282</ele>
        <time>2015-05-17T05:39:45Z</time>
      </trkpt>
      <trkpt lat="42.80588" lon="0.14273">
        <ele>2284</ele>
        <time>2015-05-17T05:39:57Z</time>
      </trkpt>
      <trkpt lat="42.80581" lon="0.14272">
        <ele>2287</ele>
        <time>2015-05-17T05:40:11Z</time>
      </trkpt>
      <trkpt lat="42.80571" lon="0.14273">
        <ele>2290</ele>
        <time>2015-05-17T05:40:26Z</time>
      </trkpt>
      <trkpt lat="42.80562" lon="0.14271">
        <ele>2292</ele>
        <time>2015-05-17T05:40:38Z</time>
      </trkpt>
      <trkpt lat="42.80556" lon="0.14276">
        <ele>2295</ele>
        <time>2015-05-17T05:40:50Z</time>
      </trkpt>
      <trkpt lat="42.8055" lon="0.14282">
        <ele>2297</ele>
        <time>2015-05-17T05:41:02Z</time>
      </trkpt>
      <trkpt lat="42.80545" lon="0.14291">
        <ele>2299</ele>
        <time>2015-05-17T05:41:18Z</time>
      </trkpt>
      <trkpt lat="42.80543" lon="0.14294">
        <ele>2300</ele>
        <time>2015-05-17T05:41:21Z</time>
      </trkpt>
      <trkpt lat="42.80536" lon="0.14303">
        <ele>2302</ele>
        <time>2015-05-17T05:41:35Z</time>
      </trkpt>
      <trkpt lat="42.80532" lon="0.1431">
        <ele>2304</ele>
        <time>2015-05-17T05:41:49Z</time>
      </trkpt>
      <trkpt lat="42.80529" lon="0.1432">
        <ele>2307</ele>
        <time>2015-05-17T05:42:03Z</time>
      </trkpt>
      <trkpt lat="42.80524" lon="0.14332">
        <ele>2310</ele>
        <time>2015-05-17T05:42:17Z</time>
      </trkpt>
      <trkpt lat="42.80518" lon="0.14338">
        <ele>2313</ele>
        <time>2015-05-17T05:42:32Z</time>
      </trkpt>
      <trkpt lat="42.80507" lon="0.14326">
        <ele>2315</ele>
        <time>2015-05-17T05:42:50Z</time>
      </trkpt>
      <trkpt lat="42.80502" lon="0.14315">
        <ele>2318</ele>
        <time>2015-05-17T05:43:06Z</time>
      </trkpt>
      <trkpt lat="42.80496" lon="0.14305">
        <ele>2321</ele>
        <time>2015-05-17T05:43:21Z</time>
      </trkpt>
      <trkpt lat="42.80488" lon="0.1429">
        <ele>2323</ele>
        <time>2015-05-17T05:43:39Z</time>
      </trkpt>
      <trkpt lat="42.80485" lon="0.14277">
        <ele>2326</ele>
        <time>2015-05-17T05:43:56Z</time>
      </trkpt>
      <trkpt lat="42.80479" lon="0.14273">
        <ele>2329</ele>
        <time>2015-05-17T05:44:09Z</time>
      </trkpt>
      <trkpt lat="42.80475" lon="0.14285">
        <ele>2330</ele>
        <time>2015-05-17T05:44:23Z</time>
      </trkpt>
      <trkpt lat="42.8047" lon="0.14294">
        <ele>2333</ele>
        <time>2015-05-17T05:44:34Z</time>
      </trkpt>
      <trkpt lat="42.80463" lon="0.14304">
        <ele>2335</ele>
        <time>2015-05-17T05:44:49Z</time>
      </trkpt>
      <trkpt lat="42.80455" lon="0.14312">
        <ele>2336</ele>
        <time>2015-05-17T05:45:03Z</time>
      </trkpt>
      <trkpt lat="42.80447" lon="0.14315">
        <ele>2339</ele>
        <time>2015-05-17T05:45:16Z</time>
      </trkpt>
      <trkpt lat="42.80438" lon="0.14302">
        <ele>2342</ele>
        <time>2015-05-17T05:45:32Z</time>
      </trkpt>
      <trkpt lat="42.80435" lon="0.14288">
        <ele>2344</ele>
        <time>2015-05-17T05:45:49Z</time>
      </trkpt>
      <trkpt lat="42.80433" lon="0.14278">
        <ele>2348</ele>
        <time>2015-05-17T05:46:03Z</time>
      </trkpt>
      <trkpt lat="42.8043" lon="0.1427">
        <ele>2349</ele>
        <time>2015-05-17T05:46:12Z</time>
      </trkpt>
      <trkpt lat="42.80428" lon="0.14256">
        <ele>2351</ele>
        <time>2015-05-17T05:46:29Z</time>
      </trkpt>
      <trkpt lat="42.80426" lon="0.14245">
        <ele>2353</ele>
        <time>2015-05-17T05:46:44Z</time>
      </trkpt>
      <trkpt lat="42.80422" lon="0.14252">
        <ele>2355</ele>
        <time>2015-05-17T05:46:53Z</time>
      </trkpt>
      <trkpt lat="42.80414" lon="0.1426">
        <ele>2357</ele>
        <time>2015-05-17T05:47:06Z</time>
      </trkpt>
      <trkpt lat="42.80405" lon="0.14267">
        <ele>2360</ele>
        <time>2015-05-17T05:47:21Z</time>
      </trkpt>
      <trkpt lat="42.80398" lon="0.14272">
        <ele>2363</ele>
        <time>2015-05-17T05:47:34Z</time>
      </trkpt>
      <trkpt lat="42.8039" lon="0.14276">
        <ele>2365</ele>
        <time>2015-05-17T05:47:48Z</time>
      </trkpt>
      <trkpt lat="42.80381" lon="0.14278">
        <ele>2368</ele>
        <time>2015-05-17T05:48:01Z</time>
      </trkpt>
      <trkpt lat="42.80375" lon="0.1428">
        <ele>2368</ele>
        <time>2015-05-17T05:48:12Z</time>
      </trkpt>
      <trkpt lat="42.8037" lon="0.14283">
        <ele>2372</ele>
        <time>2015-05-17T05:48:25Z</time>
      </trkpt>
      <trkpt lat="42.80362" lon="0.14285">
        <ele>2374</ele>
        <time>2015-05-17T05:48:38Z</time>
      </trkpt>
      <trkpt lat="42.80358" lon="0.14276">
        <ele>2377</ele>
        <time>2015-05-17T05:48:52Z</time>
      </trkpt>
      <trkpt lat="42.80359" lon="0.14261">
        <ele>2379</ele>
        <time>2015-05-17T05:49:07Z</time>
      </trkpt>
      <trkpt lat="42.80359" lon="0.14246">
        <ele>2381</ele>
        <time>2015-05-17T05:49:22Z</time>
      </trkpt>
      <trkpt lat="42.8036" lon="0.1423">
        <ele>2384</ele>
        <time>2015-05-17T05:49:37Z</time>
      </trkpt>
      <trkpt lat="42.8036" lon="0.14215">
        <ele>2386</ele>
        <time>2015-05-17T05:49:53Z</time>
      </trkpt>
      <trkpt lat="42.80362" lon="0.14196">
        <ele>2389</ele>
        <time>2015-05-17T05:50:11Z</time>
      </trkpt>
      <trkpt lat="42.80367" lon="0.14181">
        <ele>2391</ele>
        <time>2015-05-17T05:50:27Z</time>
      </trkpt>
      <trkpt lat="42.80373" lon="0.14162">
        <ele>2393</ele>
        <time>2015-05-17T05:50:42Z</time>
      </trkpt>
      <trkpt lat="42.80375" lon="0.14145">
        <ele>2396</ele>
        <time>2015-05-17T05:50:57Z</time>
      </trkpt>
      <trkpt lat="42.8038" lon="0.14125">
        <ele>2397</ele>
        <time>2015-05-17T05:51:12Z</time>
      </trkpt>
      <trkpt lat="42.80386" lon="0.14107">
        <ele>2399</ele>
        <time>2015-05-17T05:51:26Z</time>
      </trkpt>
      <trkpt lat="42.80393" lon="0.14096">
        <ele>2402</ele>
        <time>2015-05-17T05:51:40Z</time>
      </trkpt>
      <trkpt lat="42.80399" lon="0.14094">
        <ele>2403</ele>
        <time>2015-05-17T05:51:54Z</time>
      </trkpt>
      <trkpt lat="42.804" lon="0.1409">
        <ele>2403</ele>
        <time>2015-05-17T05:52:09Z</time>
      </trkpt>
      <trkpt lat="42.804" lon="0.14089">
        <ele>2403</ele>
        <time>2015-05-17T05:52:15Z</time>
      </trkpt>
      <trkpt lat="42.80409" lon="0.14073">
        <ele>2400</ele>
        <time>2015-05-17T05:52:27Z</time>
      </trkpt>
      <trkpt lat="42.80416" lon="0.1407">
        <ele>2398</ele>
        <time>2015-05-17T05:52:30Z</time>
      </trkpt>
      <trkpt lat="42.80419" lon="0.14066">
        <ele>2398</ele>
        <time>2015-05-17T05:52:34Z</time>
      </trkpt>
      <trkpt lat="42.80425" lon="0.14059">
        <ele>2397</ele>
        <time>2015-05-17T05:52:40Z</time>
      </trkpt>
      <trkpt lat="42.80424" lon="0.14038">
        <ele>2398</ele>
        <time>2015-05-17T05:52:54Z</time>
      </trkpt>
      <trkpt lat="42.80424" lon="0.14023">
        <ele>2401</ele>
        <time>2015-05-17T05:53:06Z</time>
      </trkpt>
      <trkpt lat="42.80424" lon="0.1402">
        <ele>2402</ele>
        <time>2015-05-17T05:53:09Z</time>
      </trkpt>
      <trkpt lat="42.80422" lon="0.14013">
        <ele>2403</ele>
        <time>2015-05-17T05:53:20Z</time>
      </trkpt>
      <trkpt lat="42.80422" lon="0.14013">
        <ele>2404</ele>
        <time>2015-05-17T05:53:21Z</time>
      </trkpt>
      <trkpt lat="42.80423" lon="0.14005">
        <ele>2406</ele>
        <time>2015-05-17T05:53:32Z</time>
      </trkpt>
      <trkpt lat="42.80417" lon="0.14">
        <ele>2408</ele>
        <time>2015-05-17T05:53:44Z</time>
      </trkpt>
      <trkpt lat="42.80415" lon="0.13995">
        <ele>2408</ele>
        <time>2015-05-17T05:53:53Z</time>
      </trkpt>
      <trkpt lat="42.80406" lon="0.13981">
        <ele>2410</ele>
        <time>2015-05-17T05:54:08Z</time>
      </trkpt>
      <trkpt lat="42.80398" lon="0.13966">
        <ele>2410</ele>
        <time>2015-05-17T05:54:22Z</time>
      </trkpt>
      <trkpt lat="42.80397" lon="0.13962">
        <ele>2411</ele>
        <time>2015-05-17T05:54:37Z</time>
      </trkpt>
      <trkpt lat="42.80388" lon="0.13948">
        <ele>2412</ele>
        <time>2015-05-17T05:54:49Z</time>
      </trkpt>
      <trkpt lat="42.80381" lon="0.13932">
        <ele>2414</ele>
        <time>2015-05-17T05:55:04Z</time>
      </trkpt>
      <trkpt lat="42.80377" lon="0.13918">
        <ele>2417</ele>
        <time>2015-05-17T05:55:19Z</time>
      </trkpt>
      <trkpt lat="42.80372" lon="0.13905">
        <ele>2420</ele>
        <time>2015-05-17T05:55:32Z</time>
      </trkpt>
      <trkpt lat="42.80367" lon="0.13891">
        <ele>2422</ele>
        <time>2015-05-17T05:55:47Z</time>
      </trkpt>
      <trkpt lat="42.80363" lon="0.13873">
        <ele>2424</ele>
        <time>2015-05-17T05:56:02Z</time>
      </trkpt>
      <trkpt lat="42.80354" lon="0.13857">
        <ele>2426</ele>
        <time>2015-05-17T05:56:18Z</time>
      </trkpt>
      <trkpt lat="42.80347" lon="0.13843">
        <ele>2428</ele>
        <time>2015-05-17T05:56:31Z</time>
      </trkpt>
      <trkpt lat="42.80342" lon="0.1383">
        <ele>2430</ele>
        <time>2015-05-17T05:56:44Z</time>
      </trkpt>
      <trkpt lat="42.80334" lon="0.13818">
        <ele>2433</ele>
        <time>2015-05-17T05:56:58Z</time>
      </trkpt>
      <trkpt lat="42.80325" lon="0.13806">
        <ele>2436</ele>
        <time>2015-05-17T05:57:13Z</time>
      </trkpt>
      <trkpt lat="42.80318" lon="0.13793">
        <ele>2439</ele>
        <time>2015-05-17T05:57:28Z</time>
      </trkpt>
      <trkpt lat="42.80312" lon="0.13779">
        <ele>2441</ele>
        <time>2015-05-17T05:57:45Z</time>
      </trkpt>
      <trkpt lat="42.80308" lon="0.13768">
        <ele>2443</ele>
        <time>2015-05-17T05:57:58Z</time>
      </trkpt>
      <trkpt lat="42.80307" lon="0.13752">
        <ele>2446</ele>
        <time>2015-05-17T05:58:14Z</time>
      </trkpt>
      <trkpt lat="42.80308" lon="0.13749">
        <ele>2447</ele>
        <time>2015-05-17T05:58:30Z</time>
      </trkpt>
      <trkpt lat="42.80307" lon="0.13748">
        <ele>2447</ele>
        <time>2015-05-17T05:58:52Z</time>
      </trkpt>
      <trkpt lat="42.80304" lon="0.13739">
        <ele>2449</ele>
        <time>2015-05-17T05:59:06Z</time>
      </trkpt>
      <trkpt lat="42.80304" lon="0.13738">
        <ele>2449</ele>
        <time>2015-05-17T05:59:08Z</time>
      </trkpt>
      <trkpt lat="42.803" lon="0.13727">
        <ele>2451</ele>
        <time>2015-05-17T05:59:22Z</time>
      </trkpt>
      <trkpt lat="42.80302" lon="0.13726">
        <ele>2452</ele>
        <time>2015-05-17T05:59:39Z</time>
      </trkpt>
      <trkpt lat="42.80304" lon="0.13723">
        <ele>2453</ele>
        <time>2015-05-17T05:59:56Z</time>
      </trkpt>
      <trkpt lat="42.80305" lon="0.13725">
        <ele>2452</ele>
        <time>2015-05-17T06:00:15Z</time>
      </trkpt>
      <trkpt lat="42.803" lon="0.1372">
        <ele>2454</ele>
        <time>2015-05-17T06:00:32Z</time>
      </trkpt>
      <trkpt lat="42.80294" lon="0.13709">
        <ele>2456</ele>
        <time>2015-05-17T06:00:48Z</time>
      </trkpt>
      <trkpt lat="42.80293" lon="0.137">
        <ele>2458</ele>
        <time>2015-05-17T06:01:03Z</time>
      </trkpt>
      <trkpt lat="42.80291" lon="0.13696">
        <ele>2460</ele>
        <time>2015-05-17T06:01:17Z</time>
      </trkpt>
      <trkpt lat="42.80285" lon="0.13688">
        <ele>2463</ele>
        <time>2015-05-17T06:01:33Z</time>
      </trkpt>
      <trkpt lat="42.80276" lon="0.13679">
        <ele>2466</ele>
        <time>2015-05-17T06:01:52Z</time>
      </trkpt>
      <trkpt lat="42.80269" lon="0.13669">
        <ele>2469</ele>
        <time>2015-05-17T06:02:09Z</time>
      </trkpt>
      <trkpt lat="42.80259" lon="0.13658">
        <ele>2471</ele>
        <time>2015-05-17T06:02:29Z</time>
      </trkpt>
      <trkpt lat="42.80252" lon="0.1365">
        <ele>2473</ele>
        <time>2015-05-17T06:02:44Z</time>
      </trkpt>
      <trkpt lat="42.80248" lon="0.13643">
        <ele>2476</ele>
        <time>2015-05-17T06:02:59Z</time>
      </trkpt>
      <trkpt lat="42.80237" lon="0.13635">
        <ele>2479</ele>
        <time>2015-05-17T06:03:16Z</time>
      </trkpt>
      <trkpt lat="42.80231" lon="0.13627">
        <ele>2482</ele>
        <time>2015-05-17T06:03:33Z</time>
      </trkpt>
      <trkpt lat="42.8023" lon="0.13625">
        <ele>2483</ele>
        <time>2015-05-17T06:03:36Z</time>
      </trkpt>
      <trkpt lat="42.80223" lon="0.13616">
        <ele>2485</ele>
        <time>2015-05-17T06:03:50Z</time>
      </trkpt>
      <trkpt lat="42.80216" lon="0.1361">
        <ele>2488</ele>
        <time>2015-05-17T06:04:06Z</time>
      </trkpt>
      <trkpt lat="42.80208" lon="0.136">
        <ele>2490</ele>
        <time>2015-05-17T06:04:23Z</time>
      </trkpt>
      <trkpt lat="42.80199" lon="0.13594">
        <ele>2494</ele>
        <time>2015-05-17T06:04:39Z</time>
      </trkpt>
      <trkpt lat="42.80192" lon="0.13583">
        <ele>2497</ele>
        <time>2015-05-17T06:04:58Z</time>
      </trkpt>
      <trkpt lat="42.80189" lon="0.13582">
        <ele>2500</ele>
        <time>2015-05-17T06:05:13Z</time>
      </trkpt>
      <trkpt lat="42.80184" lon="0.13586">
        <ele>2502</ele>
        <time>2015-05-17T06:05:25Z</time>
      </trkpt>
      <trkpt lat="42.80178" lon="0.13595">
        <ele>2504</ele>
        <time>2015-05-17T06:05:39Z</time>
      </trkpt>
      <trkpt lat="42.80174" lon="0.13602">
        <ele>2508</ele>
        <time>2015-05-17T06:05:52Z</time>
      </trkpt>
      <trkpt lat="42.80173" lon="0.13612">
        <ele>2511</ele>
        <time>2015-05-17T06:06:07Z</time>
      </trkpt>
      <trkpt lat="42.80166" lon="0.13614">
        <ele>2513</ele>
        <time>2015-05-17T06:06:19Z</time>
      </trkpt>
      <trkpt lat="42.80161" lon="0.13611">
        <ele>2514</ele>
        <time>2015-05-17T06:06:25Z</time>
      </trkpt>
      <trkpt lat="42.80161" lon="0.13609">
        <ele>2514</ele>
        <time>2015-05-17T06:06:43Z</time>
      </trkpt>
      <trkpt lat="42.80159" lon="0.13609">
        <ele>2514</ele>
        <time>2015-05-17T06:07:13Z</time>
      </trkpt>
      <trkpt lat="42.80158" lon="0.13607">
        <ele>2514</ele>
        <time>2015-05-17T06:07:32Z</time>
      </trkpt>
      <trkpt lat="42.8016" lon="0.1361">
        <ele>2515</ele>
        <time>2015-05-17T06:07:44Z</time>
      </trkpt>
      <trkpt lat="42.80159" lon="0.13609">
        <ele>2515</ele>
        <time>2015-05-17T06:08:04Z</time>
      </trkpt>
      <trkpt lat="42.80158" lon="0.13616">
        <ele>2517</ele>
        <time>2015-05-17T06:08:20Z</time>
      </trkpt>
      <trkpt lat="42.80146" lon="0.13614">
        <ele>2520</ele>
        <time>2015-05-17T06:08:36Z</time>
      </trkpt>
      <trkpt lat="42.80138" lon="0.13605">
        <ele>2522</ele>
        <time>2015-05-17T06:08:50Z</time>
      </trkpt>
      <trkpt lat="42.80134" lon="0.13593">
        <ele>2525</ele>
        <time>2015-05-17T06:09:04Z</time>
      </trkpt>
      <trkpt lat="42.80132" lon="0.1358">
        <ele>2527</ele>
        <time>2015-05-17T06:09:18Z</time>
      </trkpt>
      <trkpt lat="42.8013" lon="0.13584">
        <ele>2529</ele>
        <time>2015-05-17T06:09:31Z</time>
      </trkpt>
      <trkpt lat="42.80122" lon="0.13594">
        <ele>2532</ele>
        <time>2015-05-17T06:09:50Z</time>
      </trkpt>
      <trkpt lat="42.8012" lon="0.13599">
        <ele>2534</ele>
        <time>2015-05-17T06:10:05Z</time>
      </trkpt>
      <trkpt lat="42.80118" lon="0.13592">
        <ele>2535</ele>
        <time>2015-05-17T06:10:22Z</time>
      </trkpt>
      <trkpt lat="42.80117" lon="0.13581">
        <ele>2537</ele>
        <time>2015-05-17T06:10:34Z</time>
      </trkpt>
      <trkpt lat="42.80115" lon="0.13573">
        <ele>2539</ele>
        <time>2015-05-17T06:10:49Z</time>
      </trkpt>
      <trkpt lat="42.80115" lon="0.13574">
        <ele>2540</ele>
        <time>2015-05-17T06:11:02Z</time>
      </trkpt>
      <trkpt lat="42.8011" lon="0.1358">
        <ele>2543</ele>
        <time>2015-05-17T06:11:17Z</time>
      </trkpt>
      <trkpt lat="42.80108" lon="0.13588">
        <ele>2544</ele>
        <time>2015-05-17T06:11:30Z</time>
      </trkpt>
      <trkpt lat="42.80105" lon="0.13588">
        <ele>2545</ele>
        <time>2015-05-17T06:11:44Z</time>
      </trkpt>
      <trkpt lat="42.80101" lon="0.13578">
        <ele>2547</ele>
        <time>2015-05-17T06:11:58Z</time>
      </trkpt>
      <trkpt lat="42.80101" lon="0.13567">
        <ele>2550</ele>
        <time>2015-05-17T06:12:14Z</time>
      </trkpt>
      <trkpt lat="42.80104" lon="0.13563">
        <ele>2551</ele>
        <time>2015-05-17T06:12:29Z</time>
      </trkpt>
      <trkpt lat="42.80099" lon="0.13567">
        <ele>2554</ele>
        <time>2015-05-17T06:12:42Z</time>
      </trkpt>
      <trkpt lat="42.80096" lon="0.13568">
        <ele>2555</ele>
        <time>2015-05-17T06:12:55Z</time>
      </trkpt>
      <trkpt lat="42.80093" lon="0.13559">
        <ele>2557</ele>
        <time>2015-05-17T06:13:09Z</time>
      </trkpt>
      <trkpt lat="42.80095" lon="0.1355">
        <ele>2560</ele>
        <time>2015-05-17T06:13:26Z</time>
      </trkpt>
      <trkpt lat="42.80097" lon="0.13541">
        <ele>2563</ele>
        <time>2015-05-17T06:13:41Z</time>
      </trkpt>
      <trkpt lat="42.80098" lon="0.13539">
        <ele>2564</ele>
        <time>2015-05-17T06:13:53Z</time>
      </trkpt>
      <trkpt lat="42.80089" lon="0.13541">
        <ele>2567</ele>
        <time>2015-05-17T06:14:10Z</time>
      </trkpt>
      <trkpt lat="42.80082" lon="0.13544">
        <ele>2569</ele>
        <time>2015-05-17T06:14:25Z</time>
      </trkpt>
      <trkpt lat="42.8008" lon="0.13544">
        <ele>2571</ele>
        <time>2015-05-17T06:14:39Z</time>
      </trkpt>
      <trkpt lat="42.8008" lon="0.13532">
        <ele>2573</ele>
        <time>2015-05-17T06:14:54Z</time>
      </trkpt>
      <trkpt lat="42.80082" lon="0.13519">
        <ele>2575</ele>
        <time>2015-05-17T06:15:11Z</time>
      </trkpt>
      <trkpt lat="42.80087" lon="0.1351">
        <ele>2578</ele>
        <time>2015-05-17T06:15:25Z</time>
      </trkpt>
      <trkpt lat="42.80094" lon="0.13502">
        <ele>2581</ele>
        <time>2015-05-17T06:15:39Z</time>
      </trkpt>
      <trkpt lat="42.80092" lon="0.13496">
        <ele>2583</ele>
        <time>2015-05-17T06:15:55Z</time>
      </trkpt>
      <trkpt lat="42.80092" lon="0.13487">
        <ele>2584</ele>
        <time>2015-05-17T06:16:08Z</time>
      </trkpt>
      <trkpt lat="42.80097" lon="0.13477">
        <ele>2585</ele>
        <time>2015-05-17T06:16:20Z</time>
      </trkpt>
      <trkpt lat="42.80107" lon="0.13468">
        <ele>2586</ele>
        <time>2015-05-17T06:16:34Z</time>
      </trkpt>
      <trkpt lat="42.80116" lon="0.13461">
        <ele>2588</ele>
        <time>2015-05-17T06:16:50Z</time>
      </trkpt>
      <trkpt lat="42.80121" lon="0.13456">
        <ele>2590</ele>
        <time>2015-05-17T06:17:03Z</time>
      </trkpt>
      <trkpt lat="42.80124" lon="0.1345">
        <ele>2592</ele>
        <time>2015-05-17T06:17:15Z</time>
      </trkpt>
      <trkpt lat="42.8013" lon="0.13439">
        <ele>2595</ele>
        <time>2015-05-17T06:17:32Z</time>
      </trkpt>
      <trkpt lat="42.80127" lon="0.13436">
        <ele>2596</ele>
        <time>2015-05-17T06:17:43Z</time>
      </trkpt>
      <trkpt lat="42.8012" lon="0.13436">
        <ele>2599</ele>
        <time>2015-05-17T06:18:01Z</time>
      </trkpt>
      <trkpt lat="42.80118" lon="0.13433">
        <ele>2601</ele>
        <time>2015-05-17T06:18:15Z</time>
      </trkpt>
      <trkpt lat="42.80123" lon="0.13422">
        <ele>2603</ele>
        <time>2015-05-17T06:18:30Z</time>
      </trkpt>
      <trkpt lat="42.80127" lon="0.13414">
        <ele>2606</ele>
        <time>2015-05-17T06:18:46Z</time>
      </trkpt>
      <trkpt lat="42.80126" lon="0.13413">
        <ele>2607</ele>
        <time>2015-05-17T06:18:58Z</time>
      </trkpt>
      <trkpt lat="42.8012" lon="0.13415">
        <ele>2609</ele>
        <time>2015-05-17T06:19:10Z</time>
      </trkpt>
      <trkpt lat="42.80111" lon="0.13419">
        <ele>2611</ele>
        <time>2015-05-17T06:19:26Z</time>
      </trkpt>
      <trkpt lat="42.80107" lon="0.13417">
        <ele>2613</ele>
        <time>2015-05-17T06:19:37Z</time>
      </trkpt>
      <trkpt lat="42.80099" lon="0.13417">
        <ele>2617</ele>
        <time>2015-05-17T06:19:53Z</time>
      </trkpt>
      <trkpt lat="42.80092" lon="0.13416">
        <ele>2620</ele>
        <time>2015-05-17T06:20:10Z</time>
      </trkpt>
      <trkpt lat="42.80088" lon="0.13415">
        <ele>2621</ele>
        <time>2015-05-17T06:20:23Z</time>
      </trkpt>
      <trkpt lat="42.8009" lon="0.13414">
        <ele>2621</ele>
        <time>2015-05-17T06:20:46Z</time>
      </trkpt>
      <trkpt lat="42.80096" lon="0.13405">
        <ele>2624</ele>
        <time>2015-05-17T06:21:03Z</time>
      </trkpt>
      <trkpt lat="42.80099" lon="0.13394">
        <ele>2626</ele>
        <time>2015-05-17T06:21:19Z</time>
      </trkpt>
      <trkpt lat="42.80104" lon="0.13387">
        <ele>2629</ele>
        <time>2015-05-17T06:21:34Z</time>
      </trkpt>
      <trkpt lat="42.80107" lon="0.13381">
        <ele>2632</ele>
        <time>2015-05-17T06:21:46Z</time>
      </trkpt>
      <trkpt lat="42.80105" lon="0.13379">
        <ele>2633</ele>
        <time>2015-05-17T06:22:02Z</time>
      </trkpt>
      <trkpt lat="42.80092" lon="0.13378">
        <ele>2635</ele>
        <time>2015-05-17T06:22:20Z</time>
      </trkpt>
      <trkpt lat="42.80083" lon="0.1338">
        <ele>2637</ele>
        <time>2015-05-17T06:22:36Z</time>
      </trkpt>
      <trkpt lat="42.80075" lon="0.1338">
        <ele>2640</ele>
        <time>2015-05-17T06:22:54Z</time>
      </trkpt>
      <trkpt lat="42.80066" lon="0.1338">
        <ele>2643</ele>
        <time>2015-05-17T06:23:09Z</time>
      </trkpt>
      <trkpt lat="42.80059" lon="0.1338">
        <ele>2645</ele>
        <time>2015-05-17T06:23:24Z</time>
      </trkpt>
      <trkpt lat="42.80053" lon="0.13384">
        <ele>2648</ele>
        <time>2015-05-17T06:23:39Z</time>
      </trkpt>
      <trkpt lat="42.80046" lon="0.13387">
        <ele>2651</ele>
        <time>2015-05-17T06:23:56Z</time>
      </trkpt>
      <trkpt lat="42.80038" lon="0.13388">
        <ele>2654</ele>
        <time>2015-05-17T06:24:12Z</time>
      </trkpt>
      <trkpt lat="42.80028" lon="0.13389">
        <ele>2656</ele>
        <time>2015-05-17T06:24:30Z</time>
      </trkpt>
      <trkpt lat="42.80018" lon="0.13392">
        <ele>2659</ele>
        <time>2015-05-17T06:24:45Z</time>
      </trkpt>
      <trkpt lat="42.80017" lon="0.13393">
        <ele>2660</ele>
        <time>2015-05-17T06:24:57Z</time>
      </trkpt>
      <trkpt lat="42.80018" lon="0.13392">
        <ele>2661</ele>
        <time>2015-05-17T06:25:16Z</time>
      </trkpt>
      <trkpt lat="42.80018" lon="0.13383">
        <ele>2662</ele>
        <time>2015-05-17T06:25:30Z</time>
      </trkpt>
      <trkpt lat="42.80016" lon="0.13374">
        <ele>2664</ele>
        <time>2015-05-17T06:25:42Z</time>
      </trkpt>
      <trkpt lat="42.80019" lon="0.13362">
        <ele>2667</ele>
        <time>2015-05-17T06:25:57Z</time>
      </trkpt>
      <trkpt lat="42.80021" lon="0.13356">
        <ele>2668</ele>
        <time>2015-05-17T06:26:08Z</time>
      </trkpt>
      <trkpt lat="42.80025" lon="0.13347">
        <ele>2671</ele>
        <time>2015-05-17T06:26:25Z</time>
      </trkpt>
      <trkpt lat="42.80026" lon="0.13339">
        <ele>2675</ele>
        <time>2015-05-17T06:26:43Z</time>
      </trkpt>
      <trkpt lat="42.80029" lon="0.1333">
        <ele>2677</ele>
        <time>2015-05-17T06:26:59Z</time>
      </trkpt>
      <trkpt lat="42.80036" lon="0.13317">
        <ele>2680</ele>
        <time>2015-05-17T06:27:17Z</time>
      </trkpt>
      <trkpt lat="42.80038" lon="0.13307">
        <ele>2683</ele>
        <time>2015-05-17T06:27:29Z</time>
      </trkpt>
      <trkpt lat="42.8004" lon="0.13301">
        <ele>2686</ele>
        <time>2015-05-17T06:27:45Z</time>
      </trkpt>
      <trkpt lat="42.80041" lon="0.13296">
        <ele>2687</ele>
        <time>2015-05-17T06:27:58Z</time>
      </trkpt>
      <trkpt lat="42.80039" lon="0.13296">
        <ele>2687</ele>
        <time>2015-05-17T06:28:17Z</time>
      </trkpt>
      <trkpt lat="42.8003" lon="0.13294">
        <ele>2690</ele>
        <time>2015-05-17T06:28:33Z</time>
      </trkpt>
      <trkpt lat="42.80023" lon="0.13294">
        <ele>2693</ele>
        <time>2015-05-17T06:28:50Z</time>
      </trkpt>
      <trkpt lat="42.80016" lon="0.13292">
        <ele>2696</ele>
        <time>2015-05-17T06:29:06Z</time>
      </trkpt>
      <trkpt lat="42.80008" lon="0.13289">
        <ele>2698</ele>
        <time>2015-05-17T06:29:20Z</time>
      </trkpt>
      <trkpt lat="42.8" lon="0.13286">
        <ele>2701</ele>
        <time>2015-05-17T06:29:38Z</time>
      </trkpt>
      <trkpt lat="42.79991" lon="0.13285">
        <ele>2704</ele>
        <time>2015-05-17T06:29:53Z</time>
      </trkpt>
      <trkpt lat="42.79982" lon="0.13285">
        <ele>2706</ele>
        <time>2015-05-17T06:30:06Z</time>
      </trkpt>
      <trkpt lat="42.79977" lon="0.13283">
        <ele>2709</ele>
        <time>2015-05-17T06:30:22Z</time>
      </trkpt>
      <trkpt lat="42.79969" lon="0.13282">
        <ele>2711</ele>
        <time>2015-05-17T06:30:35Z</time>
      </trkpt>
      <trkpt lat="42.79966" lon="0.13281">
        <ele>2714</ele>
        <time>2015-05-17T06:30:47Z</time>
      </trkpt>
      <trkpt lat="42.79967" lon="0.13279">
        <ele>2713</ele>
        <time>2015-05-17T06:30:50Z</time>
      </trkpt>
      <trkpt lat="42.79971" lon="0.13269">
        <ele>2715</ele>
        <time>2015-05-17T06:31:04Z</time>
      </trkpt>
      <trkpt lat="42.79977" lon="0.13258">
        <ele>2717</ele>
        <time>2015-05-17T06:31:20Z</time>
      </trkpt>
      <trkpt lat="42.79983" lon="0.13252">
        <ele>2720</ele>
        <time>2015-05-17T06:31:35Z</time>
      </trkpt>
      <trkpt lat="42.79989" lon="0.13241">
        <ele>2722</ele>
        <time>2015-05-17T06:31:53Z</time>
      </trkpt>
      <trkpt lat="42.79994" lon="0.13235">
        <ele>2724</ele>
        <time>2015-05-17T06:32:07Z</time>
      </trkpt>
      <trkpt lat="42.79999" lon="0.13227">
        <ele>2727</ele>
        <time>2015-05-17T06:32:24Z</time>
      </trkpt>
      <trkpt lat="42.80001" lon="0.13222">
        <ele>2729</ele>
        <time>2015-05-17T06:32:40Z</time>
      </trkpt>
      <trkpt lat="42.8" lon="0.13223">
        <ele>2729</ele>
        <time>2015-05-17T06:32:42Z</time>
      </trkpt>
      <trkpt lat="42.79991" lon="0.13221">
        <ele>2731</ele>
        <time>2015-05-17T06:32:59Z</time>
      </trkpt>
      <trkpt lat="42.79985" lon="0.13219">
        <ele>2735</ele>
        <time>2015-05-17T06:33:14Z</time>
      </trkpt>
      <trkpt lat="42.79984" lon="0.13219">
        <ele>2735</ele>
        <time>2015-05-17T06:33:15Z</time>
      </trkpt>
      <trkpt lat="42.79983" lon="0.13216">
        <ele>2735</ele>
        <time>2015-05-17T06:33:29Z</time>
      </trkpt>
      <trkpt lat="42.79986" lon="0.1321">
        <ele>2737</ele>
        <time>2015-05-17T06:33:44Z</time>
      </trkpt>
      <trkpt lat="42.7999" lon="0.13202">
        <ele>2741</ele>
        <time>2015-05-17T06:33:59Z</time>
      </trkpt>
      <trkpt lat="42.79995" lon="0.13195">
        <ele>2743</ele>
        <time>2015-05-17T06:34:14Z</time>
      </trkpt>
      <trkpt lat="42.79998" lon="0.13189">
        <ele>2746</ele>
        <time>2015-05-17T06:34:30Z</time>
      </trkpt>
      <trkpt lat="42.80001" lon="0.13179">
        <ele>2748</ele>
        <time>2015-05-17T06:34:46Z</time>
      </trkpt>
      <trkpt lat="42.80001" lon="0.13177">
        <ele>2749</ele>
        <time>2015-05-17T06:35:00Z</time>
      </trkpt>
      <trkpt lat="42.79994" lon="0.13174">
        <ele>2752</ele>
        <time>2015-05-17T06:35:18Z</time>
      </trkpt>
      <trkpt lat="42.79988" lon="0.1317">
        <ele>2755</ele>
        <time>2015-05-17T06:35:35Z</time>
      </trkpt>
      <trkpt lat="42.7998" lon="0.13169">
        <ele>2758</ele>
        <time>2015-05-17T06:35:50Z</time>
      </trkpt>
      <trkpt lat="42.79972" lon="0.13168">
        <ele>2761</ele>
        <time>2015-05-17T06:36:07Z</time>
      </trkpt>
      <trkpt lat="42.79971" lon="0.13166">
        <ele>2762</ele>
        <time>2015-05-17T06:36:23Z</time>
      </trkpt>
      <trkpt lat="42.79971" lon="0.13163">
        <ele>2762</ele>
        <time>2015-05-17T06:36:35Z</time>
      </trkpt>
      <trkpt lat="42.79976" lon="0.13153">
        <ele>2766</ele>
        <time>2015-05-17T06:36:52Z</time>
      </trkpt>
      <trkpt lat="42.79982" lon="0.13143">
        <ele>2768</ele>
        <time>2015-05-17T06:37:07Z</time>
      </trkpt>
      <trkpt lat="42.79984" lon="0.13134">
        <ele>2771</ele>
        <time>2015-05-17T06:37:22Z</time>
      </trkpt>
      <trkpt lat="42.7999" lon="0.13123">
        <ele>2774</ele>
        <time>2015-05-17T06:37:37Z</time>
      </trkpt>
      <trkpt lat="42.79993" lon="0.1312">
        <ele>2775</ele>
        <time>2015-05-17T06:37:54Z</time>
      </trkpt>
      <trkpt lat="42.79991" lon="0.1312">
        <ele>2776</ele>
        <time>2015-05-17T06:38:12Z</time>
      </trkpt>
      <trkpt lat="42.79979" lon="0.13125">
        <ele>2779</ele>
        <time>2015-05-17T06:38:28Z</time>
      </trkpt>
      <trkpt lat="42.79974" lon="0.13125">
        <ele>2780</ele>
        <time>2015-05-17T06:38:34Z</time>
      </trkpt>
      <trkpt lat="42.79963" lon="0.13128">
        <ele>2782</ele>
        <time>2015-05-17T06:38:50Z</time>
      </trkpt>
      <trkpt lat="42.79954" lon="0.13128">
        <ele>2786</ele>
        <time>2015-05-17T06:39:08Z</time>
      </trkpt>
      <trkpt lat="42.79957" lon="0.13126">
        <ele>2786</ele>
        <time>2015-05-17T06:39:21Z</time>
      </trkpt>
      <trkpt lat="42.79959" lon="0.13121">
        <ele>2789</ele>
        <time>2015-05-17T06:39:35Z</time>
      </trkpt>
      <trkpt lat="42.79966" lon="0.13111">
        <ele>2792</ele>
        <time>2015-05-17T06:39:51Z</time>
      </trkpt>
      <trkpt lat="42.7997" lon="0.13101">
        <ele>2794</ele>
        <time>2015-05-17T06:40:07Z</time>
      </trkpt>
      <trkpt lat="42.79972" lon="0.13098">
        <ele>2795</ele>
        <time>2015-05-17T06:40:24Z</time>
      </trkpt>
      <trkpt lat="42.79962" lon="0.13097">
        <ele>2797</ele>
        <time>2015-05-17T06:40:42Z</time>
      </trkpt>
      <trkpt lat="42.79953" lon="0.13099">
        <ele>2799</ele>
        <time>2015-05-17T06:40:57Z</time>
      </trkpt>
      <trkpt lat="42.79944" lon="0.131">
        <ele>2802</ele>
        <time>2015-05-17T06:41:14Z</time>
      </trkpt>
      <trkpt lat="42.79938" lon="0.13104">
        <ele>2805</ele>
        <time>2015-05-17T06:41:30Z</time>
      </trkpt>
      <trkpt lat="42.79928" lon="0.13107">
        <ele>2808</ele>
        <time>2015-05-17T06:41:49Z</time>
      </trkpt>
      <trkpt lat="42.79922" lon="0.13111">
        <ele>2810</ele>
        <time>2015-05-17T06:42:06Z</time>
      </trkpt>
      <trkpt lat="42.79922" lon="0.13112">
        <ele>2811</ele>
        <time>2015-05-17T06:42:26Z</time>
      </trkpt>
      <trkpt lat="42.79924" lon="0.13105">
        <ele>2811</ele>
        <time>2015-05-17T06:42:47Z</time>
      </trkpt>
      <trkpt lat="42.79928" lon="0.13098">
        <ele>2813</ele>
        <time>2015-05-17T06:43:02Z</time>
      </trkpt>
      <trkpt lat="42.79931" lon="0.13088">
        <ele>2817</ele>
        <time>2015-05-17T06:43:19Z</time>
      </trkpt>
      <trkpt lat="42.79935" lon="0.13075">
        <ele>2819</ele>
        <time>2015-05-17T06:43:35Z</time>
      </trkpt>
      <trkpt lat="42.79935" lon="0.13063">
        <ele>2821</ele>
        <time>2015-05-17T06:43:50Z</time>
      </trkpt>
      <trkpt lat="42.79932" lon="0.13063">
        <ele>2822</ele>
        <time>2015-05-17T06:44:08Z</time>
      </trkpt>
      <trkpt lat="42.79925" lon="0.13066">
        <ele>2823</ele>
        <time>2015-05-17T06:44:23Z</time>
      </trkpt>
      <trkpt lat="42.79918" lon="0.1307">
        <ele>2826</ele>
        <time>2015-05-17T06:44:36Z</time>
      </trkpt>
      <trkpt lat="42.79912" lon="0.13075">
        <ele>2828</ele>
        <time>2015-05-17T06:44:52Z</time>
      </trkpt>
      <trkpt lat="42.79914" lon="0.13073">
        <ele>2828</ele>
        <time>2015-05-17T06:45:00Z</time>
      </trkpt>
      <trkpt lat="42.79919" lon="0.13063">
        <ele>2830</ele>
        <time>2015-05-17T06:45:14Z</time>
      </trkpt>
      <trkpt lat="42.79922" lon="0.13052">
        <ele>2832</ele>
        <time>2015-05-17T06:45:30Z</time>
      </trkpt>
      <trkpt lat="42.79925" lon="0.13045">
        <ele>2834</ele>
        <time>2015-05-17T06:45:43Z</time>
      </trkpt>
      <trkpt lat="42.79929" lon="0.13037">
        <ele>2836</ele>
        <time>2015-05-17T06:45:58Z</time>
      </trkpt>
      <trkpt lat="42.79932" lon="0.13037">
        <ele>2837</ele>
        <time>2015-05-17T06:46:16Z</time>
      </trkpt>
      <trkpt lat="42.79927" lon="0.1304">
        <ele>2837</ele>
        <time>2015-05-17T06:46:26Z</time>
      </trkpt>
      <trkpt lat="42.79913" lon="0.13044">
        <ele>2839</ele>
        <time>2015-05-17T06:46:42Z</time>
      </trkpt>
      <trkpt lat="42.79912" lon="0.13044">
        <ele>2840</ele>
        <time>2015-05-17T06:46:44Z</time>
      </trkpt>
      <trkpt lat="42.79905" lon="0.1305">
        <ele>2843</ele>
        <time>2015-05-17T06:47:01Z</time>
      </trkpt>
      <trkpt lat="42.79896" lon="0.13053">
        <ele>2845</ele>
        <time>2015-05-17T06:47:15Z</time>
      </trkpt>
      <trkpt lat="42.79902" lon="0.13053">
        <ele>2846</ele>
        <time>2015-05-17T06:47:30Z</time>
      </trkpt>
      <trkpt lat="42.79906" lon="0.13042">
        <ele>2848</ele>
        <time>2015-05-17T06:47:48Z</time>
      </trkpt>
      <trkpt lat="42.79909" lon="0.13029">
        <ele>2851</ele>
        <time>2015-05-17T06:48:07Z</time>
      </trkpt>
      <trkpt lat="42.79913" lon="0.13019">
        <ele>2853</ele>
        <time>2015-05-17T06:48:23Z</time>
      </trkpt>
      <trkpt lat="42.7992" lon="0.13011">
        <ele>2856</ele>
        <time>2015-05-17T06:48:40Z</time>
      </trkpt>
      <trkpt lat="42.7992" lon="0.13012">
        <ele>2857</ele>
        <time>2015-05-17T06:48:54Z</time>
      </trkpt>
      <trkpt lat="42.79912" lon="0.13012">
        <ele>2857</ele>
        <time>2015-05-17T06:49:18Z</time>
      </trkpt>
      <trkpt lat="42.79902" lon="0.13016">
        <ele>2860</ele>
        <time>2015-05-17T06:49:35Z</time>
      </trkpt>
      <trkpt lat="42.79895" lon="0.13023">
        <ele>2862</ele>
        <time>2015-05-17T06:49:51Z</time>
      </trkpt>
      <trkpt lat="42.79884" lon="0.13029">
        <ele>2866</ele>
        <time>2015-05-17T06:50:09Z</time>
      </trkpt>
      <trkpt lat="42.79875" lon="0.13036">
        <ele>2868</ele>
        <time>2015-05-17T06:50:26Z</time>
      </trkpt>
      <trkpt lat="42.79868" lon="0.13042">
        <ele>2870</ele>
        <time>2015-05-17T06:50:44Z</time>
      </trkpt>
      <trkpt lat="42.7986" lon="0.1305">
        <ele>2874</ele>
        <time>2015-05-17T06:51:01Z</time>
      </trkpt>
      <trkpt lat="42.79851" lon="0.13056">
        <ele>2877</ele>
        <time>2015-05-17T06:51:17Z</time>
      </trkpt>
      <trkpt lat="42.7985" lon="0.13056">
        <ele>2876</ele>
        <time>2015-05-17T06:51:35Z</time>
      </trkpt>
      <trkpt lat="42.79844" lon="0.13061">
        <ele>2879</ele>
        <time>2015-05-17T06:51:55Z</time>
      </trkpt>
      <trkpt lat="42.79834" lon="0.1307">
        <ele>2882</ele>
        <time>2015-05-17T06:52:16Z</time>
      </trkpt>
      <trkpt lat="42.79825" lon="0.13078">
        <ele>2884</ele>
        <time>2015-05-17T06:52:37Z</time>
      </trkpt>
      <trkpt lat="42.79819" lon="0.13085">
        <ele>2887</ele>
        <time>2015-05-17T06:52:54Z</time>
      </trkpt>
      <trkpt lat="42.79818" lon="0.13086">
        <ele>2887</ele>
        <time>2015-05-17T06:52:55Z</time>
      </trkpt>
      <trkpt lat="42.79808" lon="0.13097">
        <ele>2890</ele>
        <time>2015-05-17T06:53:16Z</time>
      </trkpt>
      <trkpt lat="42.79802" lon="0.13103">
        <ele>2893</ele>
        <time>2015-05-17T06:53:30Z</time>
      </trkpt>
      <trkpt lat="42.79794" lon="0.13113">
        <ele>2896</ele>
        <time>2015-05-17T06:53:47Z</time>
      </trkpt>
      <trkpt lat="42.79788" lon="0.13121">
        <ele>2898</ele>
        <time>2015-05-17T06:54:02Z</time>
      </trkpt>
      <trkpt lat="42.79783" lon="0.13128">
        <ele>2900</ele>
        <time>2015-05-17T06:54:16Z</time>
      </trkpt>
      <trkpt lat="42.79781" lon="0.13119">
        <ele>2902</ele>
        <time>2015-05-17T06:54:32Z</time>
      </trkpt>
      <trkpt lat="42.79781" lon="0.13107">
        <ele>2906</ele>
        <time>2015-05-17T06:54:50Z</time>
      </trkpt>
      <trkpt lat="42.7978" lon="0.13098">
        <ele>2907</ele>
        <time>2015-05-17T06:55:03Z</time>
      </trkpt>
      <trkpt lat="42.79778" lon="0.13089">
        <ele>2910</ele>
        <time>2015-05-17T06:55:17Z</time>
      </trkpt>
      <trkpt lat="42.79777" lon="0.13084">
        <ele>2912</ele>
        <time>2015-05-17T06:55:33Z</time>
      </trkpt>
      <trkpt lat="42.79768" lon="0.13092">
        <ele>2914</ele>
        <time>2015-05-17T06:55:50Z</time>
      </trkpt>
      <trkpt lat="42.79761" lon="0.13097">
        <ele>2917</ele>
        <time>2015-05-17T06:56:04Z</time>
      </trkpt>
      <trkpt lat="42.79756" lon="0.13103">
        <ele>2920</ele>
        <time>2015-05-17T06:56:23Z</time>
      </trkpt>
      <trkpt lat="42.79752" lon="0.13108">
        <ele>2922</ele>
        <time>2015-05-17T06:56:35Z</time>
      </trkpt>
      <trkpt lat="42.79749" lon="0.13108">
        <ele>2924</ele>
        <time>2015-05-17T06:56:49Z</time>
      </trkpt>
      <trkpt lat="42.79747" lon="0.13105">
        <ele>2925</ele>
        <time>2015-05-17T06:57:15Z</time>
      </trkpt>
      <trkpt lat="42.79745" lon="0.13096">
        <ele>2928</ele>
        <time>2015-05-17T06:57:32Z</time>
      </trkpt>
      <trkpt lat="42.79745" lon="0.13087">
        <ele>2931</ele>
        <time>2015-05-17T06:57:51Z</time>
      </trkpt>
      <trkpt lat="42.79745" lon="0.13085">
        <ele>2932</ele>
        <time>2015-05-17T06:57:55Z</time>
      </trkpt>
      <trkpt lat="42.79744" lon="0.13076">
        <ele>2935</ele>
        <time>2015-05-17T06:58:10Z</time>
      </trkpt>
      <trkpt lat="42.79742" lon="0.13069">
        <ele>2936</ele>
        <time>2015-05-17T06:58:27Z</time>
      </trkpt>
      <trkpt lat="42.79742" lon="0.13068">
        <ele>2937</ele>
        <time>2015-05-17T06:58:43Z</time>
      </trkpt>
      <trkpt lat="42.79735" lon="0.13074">
        <ele>2939</ele>
        <time>2015-05-17T06:58:59Z</time>
      </trkpt>
      <trkpt lat="42.7973" lon="0.13082">
        <ele>2942</ele>
        <time>2015-05-17T06:59:15Z</time>
      </trkpt>
      <trkpt lat="42.79728" lon="0.13079">
        <ele>2943</ele>
        <time>2015-05-17T06:59:32Z</time>
      </trkpt>
      <trkpt lat="42.79728" lon="0.13072">
        <ele>2945</ele>
        <time>2015-05-17T06:59:45Z</time>
      </trkpt>
      <trkpt lat="42.79727" lon="0.13072">
        <ele>2946</ele>
        <time>2015-05-17T06:59:59Z</time>
      </trkpt>
      <trkpt lat="42.79719" lon="0.13078">
        <ele>2948</ele>
        <time>2015-05-17T07:00:13Z</time>
      </trkpt>
      <trkpt lat="42.79722" lon="0.13067">
        <ele>2950</ele>
        <time>2015-05-17T07:00:26Z</time>
      </trkpt>
      <trkpt lat="42.79722" lon="0.13066">
        <ele>2949</ele>
        <time>2015-05-17T07:00:43Z</time>
      </trkpt>
      <trkpt lat="42.79721" lon="0.13069">
        <ele>2950</ele>
        <time>2015-05-17T07:01:00Z</time>
      </trkpt>
      <trkpt lat="42.79723" lon="0.13066">
        <ele>2948</ele>
        <time>2015-05-17T07:01:16Z</time>
      </trkpt>
      <trkpt lat="42.79721" lon="0.13064">
        <ele>2948</ele>
        <time>2015-05-17T07:01:35Z</time>
      </trkpt>
      <trkpt lat="42.7972" lon="0.13063">
        <ele>2949</ele>
        <time>2015-05-17T07:02:03Z</time>
      </trkpt>
      <trkpt lat="42.7972" lon="0.13063">
        <ele>2949</ele>
        <time>2015-05-17T07:02:10Z</time>
      </trkpt>
      <trkpt lat="42.79723" lon="0.13067">
        <ele>2950</ele>
        <time>2015-05-17T07:02:21Z</time>
      </trkpt>
      <trkpt lat="42.79723" lon="0.13067">
        <ele>2950</ele>
        <time>2015-05-17T07:02:42Z</time>
      </trkpt>
      <trkpt lat="42.79723" lon="0.13068">
        <ele>2949</ele>
        <time>2015-05-17T07:03:03Z</time>
      </trkpt>
      <trkpt lat="42.79723" lon="0.13066">
        <ele>2950</ele>
        <time>2015-05-17T07:03:25Z</time>
      </trkpt>
      <trkpt lat="42.79724" lon="0.13061">
        <ele>2950</ele>
        <time>2015-05-17T07:03:46Z</time>
      </trkpt>
      <trkpt lat="42.79729" lon="0.13048">
        <ele>2952</ele>
        <time>2015-05-17T07:04:01Z</time>
      </trkpt>
      <trkpt lat="42.79732" lon="0.13044">
        <ele>2952</ele>
        <time>2015-05-17T07:04:15Z</time>
      </trkpt>
      <trkpt lat="42.79735" lon="0.13036">
        <ele>2954</ele>
        <time>2015-05-17T07:04:30Z</time>
      </trkpt>
      <trkpt lat="42.79739" lon="0.1303">
        <ele>2956</ele>
        <time>2015-05-17T07:04:46Z</time>
      </trkpt>
      <trkpt lat="42.79742" lon="0.13023">
        <ele>2958</ele>
        <time>2015-05-17T07:05:05Z</time>
      </trkpt>
      <trkpt lat="42.79744" lon="0.13019">
        <ele>2960</ele>
        <time>2015-05-17T07:05:20Z</time>
      </trkpt>
      <trkpt lat="42.79748" lon="0.13015">
        <ele>2959</ele>
        <time>2015-05-17T07:05:33Z</time>
      </trkpt>
      <trkpt lat="42.7975" lon="0.13009">
        <ele>2961</ele>
        <time>2015-05-17T07:05:51Z</time>
      </trkpt>
      <trkpt lat="42.79751" lon="0.13008">
        <ele>2962</ele>
        <time>2015-05-17T07:05:54Z</time>
      </trkpt>
      <trkpt lat="42.79752" lon="0.13004">
        <ele>2963</ele>
        <time>2015-05-17T07:06:12Z</time>
      </trkpt>
      <trkpt lat="42.79754" lon="0.13004">
        <ele>2964</ele>
        <time>2015-05-17T07:06:25Z</time>
      </trkpt>
      <trkpt lat="42.79753" lon="0.13004">
        <ele>2964</ele>
        <time>2015-05-17T07:06:27Z</time>
      </trkpt>
      <trkpt lat="42.79751" lon="0.13002">
        <ele>2965</ele>
        <time>2015-05-17T07:06:50Z</time>
      </trkpt>
      <trkpt lat="42.79751" lon="0.13002">
        <ele>2961</ele>
        <time>2015-05-17T07:06:52Z</time>
      </trkpt>
      <trkpt lat="42.79751" lon="0.13003">
        <ele>2964</ele>
        <time>2015-05-17T07:06:53Z</time>
      </trkpt>
      <trkpt lat="42.79752" lon="0.13003">
        <ele>2965</ele>
        <time>2015-05-17T07:06:54Z</time>
      </trkpt>
      <trkpt lat="42.79752" lon="0.13003">
        <ele>2962</ele>
        <time>2015-05-17T07:07:12Z</time>
      </trkpt>
      <trkpt lat="42.79755" lon="0.13">
        <ele>2964</ele>
        <time>2015-05-17T07:07:33Z</time>
      </trkpt>
      <trkpt lat="42.79761" lon="0.12989">
        <ele>2965</ele>
        <time>2015-05-17T07:07:48Z</time>
      </trkpt>
      <trkpt lat="42.79765" lon="0.12978">
        <ele>2968</ele>
        <time>2015-05-17T07:08:04Z</time>
      </trkpt>
      <trkpt lat="42.79767" lon="0.1297">
        <ele>2971</ele>
        <time>2015-05-17T07:08:18Z</time>
      </trkpt>
      <trkpt lat="42.7977" lon="0.12958">
        <ele>2973</ele>
        <time>2015-05-17T07:08:33Z</time>
      </trkpt>
      <trkpt lat="42.79774" lon="0.12951">
        <ele>2974</ele>
        <time>2015-05-17T07:08:47Z</time>
      </trkpt>
      <trkpt lat="42.79776" lon="0.1295">
        <ele>2974</ele>
        <time>2015-05-17T07:09:04Z</time>
      </trkpt>
      <trkpt lat="42.7977" lon="0.12951">
        <ele>2976</ele>
        <time>2015-05-17T07:09:20Z</time>
      </trkpt>
      <trkpt lat="42.79761" lon="0.12954">
        <ele>2978</ele>
        <time>2015-05-17T07:09:38Z</time>
      </trkpt>
      <trkpt lat="42.79754" lon="0.12956">
        <ele>2981</ele>
        <time>2015-05-17T07:09:54Z</time>
      </trkpt>
      <trkpt lat="42.79757" lon="0.12951">
        <ele>2981</ele>
        <time>2015-05-17T07:10:08Z</time>
      </trkpt>
      <trkpt lat="42.7976" lon="0.12947">
        <ele>2982</ele>
        <time>2015-05-17T07:10:18Z</time>
      </trkpt>
      <trkpt lat="42.79765" lon="0.1294">
        <ele>2984</ele>
        <time>2015-05-17T07:10:31Z</time>
      </trkpt>
      <trkpt lat="42.79769" lon="0.12929">
        <ele>2987</ele>
        <time>2015-05-17T07:10:50Z</time>
      </trkpt>
      <trkpt lat="42.79769" lon="0.12928">
        <ele>2987</ele>
        <time>2015-05-17T07:10:51Z</time>
      </trkpt>
      <trkpt lat="42.79763" lon="0.12928">
        <ele>2989</ele>
        <time>2015-05-17T07:11:05Z</time>
      </trkpt>
      <trkpt lat="42.79755" lon="0.1293">
        <ele>2991</ele>
        <time>2015-05-17T07:11:23Z</time>
      </trkpt>
      <trkpt lat="42.79757" lon="0.12926">
        <ele>2992</ele>
        <time>2015-05-17T07:11:37Z</time>
      </trkpt>
      <trkpt lat="42.79758" lon="0.12922">
        <ele>2994</ele>
        <time>2015-05-17T07:11:52Z</time>
      </trkpt>
      <trkpt lat="42.79755" lon="0.12922">
        <ele>2995</ele>
        <time>2015-05-17T07:12:10Z</time>
      </trkpt>
      <trkpt lat="42.79753" lon="0.12925">
        <ele>2996</ele>
        <time>2015-05-17T07:12:25Z</time>
      </trkpt>
      <trkpt lat="42.79748" lon="0.12927">
        <ele>2998</ele>
        <time>2015-05-17T07:12:40Z</time>
      </trkpt>
      <trkpt lat="42.79747" lon="0.12927">
        <ele>2999</ele>
        <time>2015-05-17T07:12:43Z</time>
      </trkpt>
      <trkpt lat="42.79741" lon="0.1293">
        <ele>3001</ele>
        <time>2015-05-17T07:12:58Z</time>
      </trkpt>
      <trkpt lat="42.79734" lon="0.12933">
        <ele>3003</ele>
        <time>2015-05-17T07:13:11Z</time>
      </trkpt>
      <trkpt lat="42.79728" lon="0.12935">
        <ele>3006</ele>
        <time>2015-05-17T07:13:25Z</time>
      </trkpt>
      <trkpt lat="42.79727" lon="0.12935">
        <ele>3006</ele>
        <time>2015-05-17T07:13:40Z</time>
      </trkpt>
      <trkpt lat="42.79727" lon="0.12936">
        <ele>3007</ele>
        <time>2015-05-17T07:13:57Z</time>
      </trkpt>
      <trkpt lat="42.79726" lon="0.12935">
        <ele>3008</ele>
        <time>2015-05-17T07:14:01Z</time>
      </trkpt>
      <trkpt lat="42.79724" lon="0.12936">
        <ele>3009</ele>
        <time>2015-05-17T07:14:05Z</time>
      </trkpt>
      <trkpt lat="42.7972" lon="0.1294">
        <ele>3009</ele>
        <time>2015-05-17T07:14:20Z</time>
      </trkpt>
      <trkpt lat="42.7972" lon="0.12939">
        <ele>3009</ele>
        <time>2015-05-17T07:14:39Z</time>
      </trkpt>
      <trkpt lat="42.7972" lon="0.12939">
        <ele>3008</ele>
        <time>2015-05-17T07:14:43Z</time>
      </trkpt>
      <trkpt lat="42.79719" lon="0.12939">
        <ele>3009</ele>
        <time>2015-05-17T07:14:59Z</time>
      </trkpt>
      <trkpt lat="42.79719" lon="0.12939">
        <ele>3009</ele>
        <time>2015-05-17T07:15:30Z</time>
      </trkpt>
      <trkpt lat="42.79719" lon="0.12939">
        <ele>3008</ele>
        <time>2015-05-17T07:15:53Z</time>
      </trkpt>
      <trkpt lat="42.79718" lon="0.1294">
        <ele>3009</ele>
        <time>2015-05-17T07:16:26Z</time>
      </trkpt>
      <trkpt lat="42.79718" lon="0.12941">
        <ele>3009</ele>
        <time>2015-05-17T07:16:54Z</time>
      </trkpt>
      <trkpt lat="42.79718" lon="0.12942">
        <ele>3008</ele>
        <time>2015-05-17T07:17:31Z</time>
      </trkpt>
      <trkpt lat="42.79718" lon="0.12941">
        <ele>3009</ele>
        <time>2015-05-17T07:18:04Z</time>
      </trkpt>
      <trkpt lat="42.79717" lon="0.1294">
        <ele>3010</ele>
        <time>2015-05-17T07:18:30Z</time>
      </trkpt>
      <trkpt lat="42.79721" lon="0.12939">
        <ele>3009</ele>
        <time>2015-05-17T07:18:48Z</time>
      </trkpt>
      <trkpt lat="42.79719" lon="0.12936">
        <ele>3008</ele>
        <time>2015-05-17T07:19:08Z</time>
      </trkpt>
      <trkpt lat="42.79718" lon="0.12934">
        <ele>3008</ele>
        <time>2015-05-17T07:19:34Z</time>
      </trkpt>
      <trkpt lat="42.79719" lon="0.12939">
        <ele>3008</ele>
        <time>2015-05-17T07:20:01Z</time>
      </trkpt>
      <trkpt lat="42.79719" lon="0.12939">
        <ele>3008</ele>
        <time>2015-05-17T07:20:29Z</time>
      </trkpt>
      <trkpt lat="42.79721" lon="0.12937">
        <ele>3008</ele>
        <time>2015-05-17T07:21:00Z</time>
      </trkpt>
      <trkpt lat="42.79719" lon="0.12937">
        <ele>3008</ele>
        <time>2015-05-17T07:21:29Z</time>
      </trkpt>
      <trkpt lat="42.79718" lon="0.12938">
        <ele>3010</ele>
        <time>2015-05-17T07:21:54Z</time>
      </trkpt>
      <trkpt lat="42.79718" lon="0.12937">
        <ele>3010</ele>
        <time>2015-05-17T07:22:13Z</time>
      </trkpt>
      <trkpt lat="42.79718" lon="0.12939">
        <ele>3010</ele>
        <time>2015-05-17T07:22:34Z</time>
      </trkpt>
      <trkpt lat="42.79716" lon="0.12937">
        <ele>3010</ele>
        <time>2015-05-17T07:22:50Z</time>
      </trkpt>
      <trkpt lat="42.7972" lon="0.12932">
        <ele>3006</ele>
        <time>2015-05-17T07:23:05Z</time>
      </trkpt>
      <trkpt lat="42.79723" lon="0.12931">
        <ele>3005</ele>
        <time>2015-05-17T07:23:09Z</time>
      </trkpt>
      <trkpt lat="42.79726" lon="0.1293">
        <ele>3004</ele>
        <time>2015-05-17T07:23:17Z</time>
      </trkpt>
      <trkpt lat="42.79725" lon="0.12926">
        <ele>3001</ele>
        <time>2015-05-17T07:23:30Z</time>
      </trkpt>
      <trkpt lat="42.79721" lon="0.12922">
        <ele>3000</ele>
        <time>2015-05-17T07:23:45Z</time>
      </trkpt>
      <trkpt lat="42.79719" lon="0.12919">
        <ele>2998</ele>
        <time>2015-05-17T07:23:59Z</time>
      </trkpt>
      <trkpt lat="42.79713" lon="0.12913">
        <ele>2998</ele>
        <time>2015-05-17T07:24:12Z</time>
      </trkpt>
      <trkpt lat="42.79708" lon="0.12906">
        <ele>2995</ele>
        <time>2015-05-17T07:24:21Z</time>
      </trkpt>
      <trkpt lat="42.79708" lon="0.12902">
        <ele>2995</ele>
        <time>2015-05-17T07:24:28Z</time>
      </trkpt>
      <trkpt lat="42.7971" lon="0.12901">
        <ele>2994</ele>
        <time>2015-05-17T07:24:32Z</time>
      </trkpt>
      <trkpt lat="42.79712" lon="0.12898">
        <ele>2990</ele>
        <time>2015-05-17T07:24:40Z</time>
      </trkpt>
      <trkpt lat="42.79712" lon="0.12891">
        <ele>2987</ele>
        <time>2015-05-17T07:24:51Z</time>
      </trkpt>
      <trkpt lat="42.79712" lon="0.12884">
        <ele>2984</ele>
        <time>2015-05-17T07:25:02Z</time>
      </trkpt>
      <trkpt lat="42.79711" lon="0.12878">
        <ele>2980</ele>
        <time>2015-05-17T07:25:14Z</time>
      </trkpt>
      <trkpt lat="42.79709" lon="0.12874">
        <ele>2979</ele>
        <time>2015-05-17T07:25:31Z</time>
      </trkpt>
      <trkpt lat="42.79707" lon="0.12871">
        <ele>2976</ele>
        <time>2015-05-17T07:25:43Z</time>
      </trkpt>
      <trkpt lat="42.79701" lon="0.12865">
        <ele>2974</ele>
        <time>2015-05-17T07:25:56Z</time>
      </trkpt>
      <trkpt lat="42.797" lon="0.12863">
        <ele>2973</ele>
        <time>2015-05-17T07:25:59Z</time>
      </trkpt>
      <trkpt lat="42.79698" lon="0.12854">
        <ele>2969</ele>
        <time>2015-05-17T07:26:11Z</time>
      </trkpt>
      <trkpt lat="42.79698" lon="0.12854">
        <ele>2969</ele>
        <time>2015-05-17T07:26:12Z</time>
      </trkpt>
      <trkpt lat="42.79696" lon="0.12848">
        <ele>2966</ele>
        <time>2015-05-17T07:26:19Z</time>
      </trkpt>
      <trkpt lat="42.79692" lon="0.12841">
        <ele>2964</ele>
        <time>2015-05-17T07:26:30Z</time>
      </trkpt>
      <trkpt lat="42.7969" lon="0.12835">
        <ele>2961</ele>
        <time>2015-05-17T07:26:39Z</time>
      </trkpt>
      <trkpt lat="42.7969" lon="0.12833">
        <ele>2960</ele>
        <time>2015-05-17T07:26:41Z</time>
      </trkpt>
      <trkpt lat="42.79688" lon="0.12825">
        <ele>2957</ele>
        <time>2015-05-17T07:26:53Z</time>
      </trkpt>
      <trkpt lat="42.7969" lon="0.12822">
        <ele>2954</ele>
        <time>2015-05-17T07:27:00Z</time>
      </trkpt>
      <trkpt lat="42.79688" lon="0.12812">
        <ele>2951</ele>
        <time>2015-05-17T07:27:14Z</time>
      </trkpt>
      <trkpt lat="42.79691" lon="0.12806">
        <ele>2948</ele>
        <time>2015-05-17T07:27:26Z</time>
      </trkpt>
      <trkpt lat="42.79693" lon="0.12806">
        <ele>2946</ele>
        <time>2015-05-17T07:27:30Z</time>
      </trkpt>
      <trkpt lat="42.79699" lon="0.12804">
        <ele>2943</ele>
        <time>2015-05-17T07:27:43Z</time>
      </trkpt>
      <trkpt lat="42.797" lon="0.12798">
        <ele>2940</ele>
        <time>2015-05-17T07:27:57Z</time>
      </trkpt>
      <trkpt lat="42.79701" lon="0.12796">
        <ele>2938</ele>
        <time>2015-05-17T07:28:00Z</time>
      </trkpt>
      <trkpt lat="42.79704" lon="0.12788">
        <ele>2935</ele>
        <time>2015-05-17T07:28:11Z</time>
      </trkpt>
      <trkpt lat="42.79708" lon="0.12781">
        <ele>2932</ele>
        <time>2015-05-17T07:28:24Z</time>
      </trkpt>
      <trkpt lat="42.79709" lon="0.12776">
        <ele>2929</ele>
        <time>2015-05-17T07:28:35Z</time>
      </trkpt>
      <trkpt lat="42.79704" lon="0.12767">
        <ele>2926</ele>
        <time>2015-05-17T07:28:46Z</time>
      </trkpt>
      <trkpt lat="42.79694" lon="0.12748">
        <ele>2923</ele>
        <time>2015-05-17T07:29:00Z</time>
      </trkpt>
      <trkpt lat="42.79694" lon="0.12746">
        <ele>2923</ele>
        <time>2015-05-17T07:29:01Z</time>
      </trkpt>
      <trkpt lat="42.79688" lon="0.1273">
        <ele>2921</ele>
        <time>2015-05-17T07:29:13Z</time>
      </trkpt>
      <trkpt lat="42.79683" lon="0.1272">
        <ele>2918</ele>
        <time>2015-05-17T07:29:22Z</time>
      </trkpt>
      <trkpt lat="42.79674" lon="0.12707">
        <ele>2920</ele>
        <time>2015-05-17T07:29:38Z</time>
      </trkpt>
      <trkpt lat="42.7967" lon="0.12704">
        <ele>2920</ele>
        <time>2015-05-17T07:29:44Z</time>
      </trkpt>
      <trkpt lat="42.79666" lon="0.12696">
        <ele>2920</ele>
        <time>2015-05-17T07:29:52Z</time>
      </trkpt>
      <trkpt lat="42.79662" lon="0.1268">
        <ele>2921</ele>
        <time>2015-05-17T07:30:02Z</time>
      </trkpt>
      <trkpt lat="42.79661" lon="0.1266">
        <ele>2920</ele>
        <time>2015-05-17T07:30:20Z</time>
      </trkpt>
      <trkpt lat="42.79658" lon="0.12656">
        <ele>2921</ele>
        <time>2015-05-17T07:30:27Z</time>
      </trkpt>
      <trkpt lat="42.79653" lon="0.12648">
        <ele>2920</ele>
        <time>2015-05-17T07:30:41Z</time>
      </trkpt>
      <trkpt lat="42.79648" lon="0.12644">
        <ele>2917</ele>
        <time>2015-05-17T07:30:56Z</time>
      </trkpt>
      <trkpt lat="42.79646" lon="0.12636">
        <ele>2914</ele>
        <time>2015-05-17T07:31:08Z</time>
      </trkpt>
      <trkpt lat="42.79639" lon="0.12628">
        <ele>2914</ele>
        <time>2015-05-17T07:31:23Z</time>
      </trkpt>
      <trkpt lat="42.79626" lon="0.12616">
        <ele>2914</ele>
        <time>2015-05-17T07:31:40Z</time>
      </trkpt>
      <trkpt lat="42.79615" lon="0.12598">
        <ele>2913</ele>
        <time>2015-05-17T07:31:58Z</time>
      </trkpt>
      <trkpt lat="42.79607" lon="0.12577">
        <ele>2912</ele>
        <time>2015-05-17T07:32:14Z</time>
      </trkpt>
      <trkpt lat="42.79603" lon="0.12566">
        <ele>2912</ele>
        <time>2015-05-17T07:32:25Z</time>
      </trkpt>
      <trkpt lat="42.79596" lon="0.12549">
        <ele>2913</ele>
        <time>2015-05-17T07:32:44Z</time>
      </trkpt>
      <trkpt lat="42.79594" lon="0.12537">
        <ele>2914</ele>
        <time>2015-05-17T07:33:01Z</time>
      </trkpt>
      <trkpt lat="42.79594" lon="0.12536">
        <ele>2913</ele>
        <time>2015-05-17T07:33:21Z</time>
      </trkpt>
      <trkpt lat="42.79594" lon="0.12537">
        <ele>2912</ele>
        <time>2015-05-17T07:33:59Z</time>
      </trkpt>
      <trkpt lat="42.79594" lon="0.12534">
        <ele>2913</ele>
        <time>2015-05-17T07:34:18Z</time>
      </trkpt>
      <trkpt lat="42.79593" lon="0.12536">
        <ele>2913</ele>
        <time>2015-05-17T07:34:43Z</time>
      </trkpt>
      <trkpt lat="42.79596" lon="0.12536">
        <ele>2913</ele>
        <time>2015-05-17T07:35:12Z</time>
      </trkpt>
      <trkpt lat="42.79594" lon="0.12537">
        <ele>2914</ele>
        <time>2015-05-17T07:35:33Z</time>
      </trkpt>
      <trkpt lat="42.79595" lon="0.12538">
        <ele>2912</ele>
        <time>2015-05-17T07:36:00Z</time>
      </trkpt>
      <trkpt lat="42.79595" lon="0.12537">
        <ele>2913</ele>
        <time>2015-05-17T07:36:22Z</time>
      </trkpt>
      <trkpt lat="42.79594" lon="0.12536">
        <ele>2913</ele>
        <time>2015-05-17T07:36:45Z</time>
      </trkpt>
      <trkpt lat="42.79594" lon="0.12535">
        <ele>2912</ele>
        <time>2015-05-17T07:37:10Z</time>
      </trkpt>
      <trkpt lat="42.79595" lon="0.12537">
        <ele>2913</ele>
        <time>2015-05-17T07:37:30Z</time>
      </trkpt>
      <trkpt lat="42.79594" lon="0.12536">
        <ele>2913</ele>
        <time>2015-05-17T07:37:54Z</time>
      </trkpt>
      <trkpt lat="42.7959" lon="0.12526">
        <ele>2915</ele>
        <time>2015-05-17T07:38:07Z</time>
      </trkpt>
      <trkpt lat="42.79585" lon="0.12517">
        <ele>2917</ele>
        <time>2015-05-17T07:38:24Z</time>
      </trkpt>
      <trkpt lat="42.79581" lon="0.12507">
        <ele>2919</ele>
        <time>2015-05-17T07:38:39Z</time>
      </trkpt>
      <trkpt lat="42.79577" lon="0.12499">
        <ele>2923</ele>
        <time>2015-05-17T07:38:54Z</time>
      </trkpt>
      <trkpt lat="42.79572" lon="0.12488">
        <ele>2924</ele>
        <time>2015-05-17T07:39:11Z</time>
      </trkpt>
      <trkpt lat="42.79567" lon="0.12479">
        <ele>2926</ele>
        <time>2015-05-17T07:39:23Z</time>
      </trkpt>
      <trkpt lat="42.79563" lon="0.12468">
        <ele>2928</ele>
        <time>2015-05-17T07:39:41Z</time>
      </trkpt>
      <trkpt lat="42.79558" lon="0.12458">
        <ele>2930</ele>
        <time>2015-05-17T07:39:57Z</time>
      </trkpt>
      <trkpt lat="42.79553" lon="0.12443">
        <ele>2933</ele>
        <time>2015-05-17T07:40:16Z</time>
      </trkpt>
      <trkpt lat="42.79549" lon="0.12433">
        <ele>2935</ele>
        <time>2015-05-17T07:40:29Z</time>
      </trkpt>
      <trkpt lat="42.79544" lon="0.12419">
        <ele>2937</ele>
        <time>2015-05-17T07:40:48Z</time>
      </trkpt>
      <trkpt lat="42.79541" lon="0.12409">
        <ele>2938</ele>
        <time>2015-05-17T07:41:01Z</time>
      </trkpt>
      <trkpt lat="42.79538" lon="0.12396">
        <ele>2940</ele>
        <time>2015-05-17T07:41:18Z</time>
      </trkpt>
      <trkpt lat="42.79536" lon="0.12388">
        <ele>2941</ele>
        <time>2015-05-17T07:41:29Z</time>
      </trkpt>
      <trkpt lat="42.79533" lon="0.12378">
        <ele>2942</ele>
        <time>2015-05-17T07:41:41Z</time>
      </trkpt>
      <trkpt lat="42.79531" lon="0.12368">
        <ele>2944</ele>
        <time>2015-05-17T07:41:54Z</time>
      </trkpt>
      <trkpt lat="42.7953" lon="0.12361">
        <ele>2945</ele>
        <time>2015-05-17T07:42:08Z</time>
      </trkpt>
      <trkpt lat="42.79527" lon="0.12352">
        <ele>2947</ele>
        <time>2015-05-17T07:42:21Z</time>
      </trkpt>
      <trkpt lat="42.79527" lon="0.12349">
        <ele>2947</ele>
        <time>2015-05-17T07:42:34Z</time>
      </trkpt>
      <trkpt lat="42.79524" lon="0.12341">
        <ele>2949</ele>
        <time>2015-05-17T07:42:53Z</time>
      </trkpt>
      <trkpt lat="42.79518" lon="0.12326">
        <ele>2950</ele>
        <time>2015-05-17T07:43:11Z</time>
      </trkpt>
      <trkpt lat="42.79513" lon="0.12315">
        <ele>2953</ele>
        <time>2015-05-17T07:43:27Z</time>
      </trkpt>
      <trkpt lat="42.79509" lon="0.12305">
        <ele>2955</ele>
        <time>2015-05-17T07:43:43Z</time>
      </trkpt>
      <trkpt lat="42.79502" lon="0.12293">
        <ele>2958</ele>
        <time>2015-05-17T07:44:01Z</time>
      </trkpt>
      <trkpt lat="42.79495" lon="0.12281">
        <ele>2960</ele>
        <time>2015-05-17T07:44:18Z</time>
      </trkpt>
      <trkpt lat="42.7949" lon="0.1227">
        <ele>2963</ele>
        <time>2015-05-17T07:44:35Z</time>
      </trkpt>
      <trkpt lat="42.79488" lon="0.12268">
        <ele>2963</ele>
        <time>2015-05-17T07:44:53Z</time>
      </trkpt>
      <trkpt lat="42.79484" lon="0.12261">
        <ele>2965</ele>
        <time>2015-05-17T07:45:09Z</time>
      </trkpt>
      <trkpt lat="42.79478" lon="0.12248">
        <ele>2968</ele>
        <time>2015-05-17T07:45:27Z</time>
      </trkpt>
      <trkpt lat="42.79473" lon="0.12234">
        <ele>2970</ele>
        <time>2015-05-17T07:45:46Z</time>
      </trkpt>
      <trkpt lat="42.79468" lon="0.12223">
        <ele>2973</ele>
        <time>2015-05-17T07:46:00Z</time>
      </trkpt>
      <trkpt lat="42.79467" lon="0.12216">
        <ele>2974</ele>
        <time>2015-05-17T07:46:15Z</time>
      </trkpt>
      <trkpt lat="42.79469" lon="0.12216">
        <ele>2974</ele>
        <time>2015-05-17T07:46:34Z</time>
      </trkpt>
      <trkpt lat="42.79469" lon="0.12221">
        <ele>2975</ele>
        <time>2015-05-17T07:46:40Z</time>
      </trkpt>
      <trkpt lat="42.79472" lon="0.12233">
        <ele>2976</ele>
        <time>2015-05-17T07:46:56Z</time>
      </trkpt>
      <trkpt lat="42.79464" lon="0.12227">
        <ele>2977</ele>
        <time>2015-05-17T07:47:12Z</time>
      </trkpt>
      <trkpt lat="42.79459" lon="0.12215">
        <ele>2979</ele>
        <time>2015-05-17T07:47:30Z</time>
      </trkpt>
      <trkpt lat="42.7946" lon="0.12212">
        <ele>2980</ele>
        <time>2015-05-17T07:47:48Z</time>
      </trkpt>
      <trkpt lat="42.79458" lon="0.12208">
        <ele>2983</ele>
        <time>2015-05-17T07:48:03Z</time>
      </trkpt>
      <trkpt lat="42.79455" lon="0.12197">
        <ele>2984</ele>
        <time>2015-05-17T07:48:17Z</time>
      </trkpt>
      <trkpt lat="42.79451" lon="0.12187">
        <ele>2986</ele>
        <time>2015-05-17T07:48:31Z</time>
      </trkpt>
      <trkpt lat="42.79448" lon="0.12177">
        <ele>2989</ele>
        <time>2015-05-17T07:48:47Z</time>
      </trkpt>
      <trkpt lat="42.79444" lon="0.12166">
        <ele>2990</ele>
        <time>2015-05-17T07:49:02Z</time>
      </trkpt>
      <trkpt lat="42.79442" lon="0.12158">
        <ele>2993</ele>
        <time>2015-05-17T07:49:15Z</time>
      </trkpt>
      <trkpt lat="42.79439" lon="0.12146">
        <ele>2995</ele>
        <time>2015-05-17T07:49:29Z</time>
      </trkpt>
      <trkpt lat="42.79437" lon="0.12133">
        <ele>2997</ele>
        <time>2015-05-17T07:49:46Z</time>
      </trkpt>
      <trkpt lat="42.79436" lon="0.1213">
        <ele>2998</ele>
        <time>2015-05-17T07:50:02Z</time>
      </trkpt>
      <trkpt lat="42.79436" lon="0.12135">
        <ele>2998</ele>
        <time>2015-05-17T07:50:30Z</time>
      </trkpt>
      <trkpt lat="42.79429" lon="0.12144">
        <ele>3001</ele>
        <time>2015-05-17T07:50:50Z</time>
      </trkpt>
      <trkpt lat="42.79426" lon="0.12149">
        <ele>3003</ele>
        <time>2015-05-17T07:51:03Z</time>
      </trkpt>
      <trkpt lat="42.79422" lon="0.12144">
        <ele>3004</ele>
        <time>2015-05-17T07:51:15Z</time>
      </trkpt>
      <trkpt lat="42.79421" lon="0.12133">
        <ele>3006</ele>
        <time>2015-05-17T07:51:30Z</time>
      </trkpt>
      <trkpt lat="42.79423" lon="0.1212">
        <ele>3009</ele>
        <time>2015-05-17T07:51:50Z</time>
      </trkpt>
      <trkpt lat="42.79426" lon="0.12108">
        <ele>3012</ele>
        <time>2015-05-17T07:52:08Z</time>
      </trkpt>
      <trkpt lat="42.79428" lon="0.12097">
        <ele>3014</ele>
        <time>2015-05-17T07:52:24Z</time>
      </trkpt>
      <trkpt lat="42.79428" lon="0.12086">
        <ele>3016</ele>
        <time>2015-05-17T07:52:42Z</time>
      </trkpt>
      <trkpt lat="42.79429" lon="0.12087">
        <ele>3016</ele>
        <time>2015-05-17T07:53:00Z</time>
      </trkpt>
      <trkpt lat="42.79424" lon="0.12089">
        <ele>3019</ele>
        <time>2015-05-17T07:53:15Z</time>
      </trkpt>
      <trkpt lat="42.79418" lon="0.12091">
        <ele>3021</ele>
        <time>2015-05-17T07:53:33Z</time>
      </trkpt>
      <trkpt lat="42.79409" lon="0.12095">
        <ele>3023</ele>
        <time>2015-05-17T07:53:50Z</time>
      </trkpt>
      <trkpt lat="42.79404" lon="0.12097">
        <ele>3026</ele>
        <time>2015-05-17T07:54:05Z</time>
      </trkpt>
      <trkpt lat="42.79397" lon="0.121">
        <ele>3029</ele>
        <time>2015-05-17T07:54:22Z</time>
      </trkpt>
      <trkpt lat="42.79393" lon="0.12106">
        <ele>3031</ele>
        <time>2015-05-17T07:54:38Z</time>
      </trkpt>
      <trkpt lat="42.79386" lon="0.12107">
        <ele>3034</ele>
        <time>2015-05-17T07:54:56Z</time>
      </trkpt>
      <trkpt lat="42.79379" lon="0.12109">
        <ele>3037</ele>
        <time>2015-05-17T07:55:10Z</time>
      </trkpt>
      <trkpt lat="42.79377" lon="0.12108">
        <ele>3036</ele>
        <time>2015-05-17T07:55:32Z</time>
      </trkpt>
      <trkpt lat="42.79377" lon="0.12104">
        <ele>3037</ele>
        <time>2015-05-17T07:55:53Z</time>
      </trkpt>
      <trkpt lat="42.79378" lon="0.12096">
        <ele>3039</ele>
        <time>2015-05-17T07:56:06Z</time>
      </trkpt>
      <trkpt lat="42.79379" lon="0.12084">
        <ele>3042</ele>
        <time>2015-05-17T07:56:24Z</time>
      </trkpt>
      <trkpt lat="42.79382" lon="0.12075">
        <ele>3044</ele>
        <time>2015-05-17T07:56:40Z</time>
      </trkpt>
      <trkpt lat="42.79384" lon="0.12063">
        <ele>3046</ele>
        <time>2015-05-17T07:56:57Z</time>
      </trkpt>
      <trkpt lat="42.79385" lon="0.1206">
        <ele>3047</ele>
        <time>2015-05-17T07:57:03Z</time>
      </trkpt>
      <trkpt lat="42.79389" lon="0.12048">
        <ele>3049</ele>
        <time>2015-05-17T07:57:19Z</time>
      </trkpt>
      <trkpt lat="42.79392" lon="0.12039">
        <ele>3052</ele>
        <time>2015-05-17T07:57:33Z</time>
      </trkpt>
      <trkpt lat="42.79398" lon="0.12031">
        <ele>3054</ele>
        <time>2015-05-17T07:57:49Z</time>
      </trkpt>
      <trkpt lat="42.79399" lon="0.12018">
        <ele>3057</ele>
        <time>2015-05-17T07:58:06Z</time>
      </trkpt>
      <trkpt lat="42.79405" lon="0.12009">
        <ele>3059</ele>
        <time>2015-05-17T07:58:23Z</time>
      </trkpt>
      <trkpt lat="42.79409" lon="0.11998">
        <ele>3062</ele>
        <time>2015-05-17T07:58:41Z</time>
      </trkpt>
      <trkpt lat="42.79415" lon="0.11988">
        <ele>3064</ele>
        <time>2015-05-17T07:58:58Z</time>
      </trkpt>
      <trkpt lat="42.79424" lon="0.11986">
        <ele>3066</ele>
        <time>2015-05-17T07:59:16Z</time>
      </trkpt>
      <trkpt lat="42.79425" lon="0.11986">
        <ele>3066</ele>
        <time>2015-05-17T07:59:32Z</time>
      </trkpt>
      <trkpt lat="42.79422" lon="0.11984">
        <ele>3067</ele>
        <time>2015-05-17T07:59:58Z</time>
      </trkpt>
      <trkpt lat="42.79412" lon="0.11983">
        <ele>3070</ele>
        <time>2015-05-17T08:00:17Z</time>
      </trkpt>
      <trkpt lat="42.79404" lon="0.11983">
        <ele>3072</ele>
        <time>2015-05-17T08:00:34Z</time>
      </trkpt>
      <trkpt lat="42.79398" lon="0.11984">
        <ele>3075</ele>
        <time>2015-05-17T08:00:47Z</time>
      </trkpt>
      <trkpt lat="42.79392" lon="0.11984">
        <ele>3078</ele>
        <time>2015-05-17T08:01:03Z</time>
      </trkpt>
      <trkpt lat="42.79382" lon="0.11989">
        <ele>3080</ele>
        <time>2015-05-17T08:01:19Z</time>
      </trkpt>
      <trkpt lat="42.79373" lon="0.11994">
        <ele>3081</ele>
        <time>2015-05-17T08:01:35Z</time>
      </trkpt>
      <trkpt lat="42.79363" lon="0.12">
        <ele>3084</ele>
        <time>2015-05-17T08:01:52Z</time>
      </trkpt>
      <trkpt lat="42.79355" lon="0.12005">
        <ele>3087</ele>
        <time>2015-05-17T08:02:10Z</time>
      </trkpt>
      <trkpt lat="42.79355" lon="0.12005">
        <ele>3088</ele>
        <time>2015-05-17T08:02:30Z</time>
      </trkpt>
      <trkpt lat="42.79349" lon="0.12005">
        <ele>3088</ele>
        <time>2015-05-17T08:02:52Z</time>
      </trkpt>
      <trkpt lat="42.7935" lon="0.11999">
        <ele>3089</ele>
        <time>2015-05-17T08:03:13Z</time>
      </trkpt>
      <trkpt lat="42.79351" lon="0.11986">
        <ele>3090</ele>
        <time>2015-05-17T08:03:26Z</time>
      </trkpt>
      <trkpt lat="42.79356" lon="0.1198">
        <ele>3091</ele>
        <time>2015-05-17T08:03:38Z</time>
      </trkpt>
      <trkpt lat="42.79359" lon="0.11986">
        <ele>3092</ele>
        <time>2015-05-17T08:03:57Z</time>
      </trkpt>
      <trkpt lat="42.79349" lon="0.11991">
        <ele>3096</ele>
        <time>2015-05-17T08:04:15Z</time>
      </trkpt>
      <trkpt lat="42.7934" lon="0.11997">
        <ele>3098</ele>
        <time>2015-05-17T08:04:35Z</time>
      </trkpt>
      <trkpt lat="42.79334" lon="0.12002">
        <ele>3100</ele>
        <time>2015-05-17T08:04:50Z</time>
      </trkpt>
      <trkpt lat="42.79333" lon="0.12003">
        <ele>3100</ele>
        <time>2015-05-17T08:05:06Z</time>
      </trkpt>
      <trkpt lat="42.79335" lon="0.11996">
        <ele>3100</ele>
        <time>2015-05-17T08:05:23Z</time>
      </trkpt>
      <trkpt lat="42.7934" lon="0.11989">
        <ele>3102</ele>
        <time>2015-05-17T08:05:41Z</time>
      </trkpt>
      <trkpt lat="42.79342" lon="0.11989">
        <ele>3103</ele>
        <time>2015-05-17T08:05:56Z</time>
      </trkpt>
      <trkpt lat="42.79338" lon="0.11992">
        <ele>3103</ele>
        <time>2015-05-17T08:06:17Z</time>
      </trkpt>
      <trkpt lat="42.7933" lon="0.11999">
        <ele>3106</ele>
        <time>2015-05-17T08:06:36Z</time>
      </trkpt>
      <trkpt lat="42.79326" lon="0.12005">
        <ele>3109</ele>
        <time>2015-05-17T08:06:50Z</time>
      </trkpt>
      <trkpt lat="42.79321" lon="0.12003">
        <ele>3109</ele>
        <time>2015-05-17T08:07:08Z</time>
      </trkpt>
      <trkpt lat="42.79325" lon="0.12">
        <ele>3110</ele>
        <time>2015-05-17T08:07:24Z</time>
      </trkpt>
      <trkpt lat="42.7933" lon="0.11993">
        <ele>3111</ele>
        <time>2015-05-17T08:07:40Z</time>
      </trkpt>
      <trkpt lat="42.7933" lon="0.1199">
        <ele>3111</ele>
        <time>2015-05-17T08:07:55Z</time>
      </trkpt>
      <trkpt lat="42.79327" lon="0.11996">
        <ele>3111</ele>
        <time>2015-05-17T08:08:10Z</time>
      </trkpt>
      <trkpt lat="42.79321" lon="0.11999">
        <ele>3115</ele>
        <time>2015-05-17T08:08:24Z</time>
      </trkpt>
      <trkpt lat="42.79317" lon="0.12002">
        <ele>3116</ele>
        <time>2015-05-17T08:08:39Z</time>
      </trkpt>
      <trkpt lat="42.79316" lon="0.12002">
        <ele>3115</ele>
        <time>2015-05-17T08:08:41Z</time>
      </trkpt>
      <trkpt lat="42.79315" lon="0.12003">
        <ele>3116</ele>
        <time>2015-05-17T08:08:57Z</time>
      </trkpt>
      <trkpt lat="42.79317" lon="0.11993">
        <ele>3117</ele>
        <time>2015-05-17T08:09:13Z</time>
      </trkpt>
      <trkpt lat="42.79323" lon="0.11986">
        <ele>3119</ele>
        <time>2015-05-17T08:09:31Z</time>
      </trkpt>
      <trkpt lat="42.79322" lon="0.11986">
        <ele>3119</ele>
        <time>2015-05-17T08:09:45Z</time>
      </trkpt>
      <trkpt lat="42.79317" lon="0.11991">
        <ele>3121</ele>
        <time>2015-05-17T08:10:00Z</time>
      </trkpt>
      <trkpt lat="42.7931" lon="0.11997">
        <ele>3122</ele>
        <time>2015-05-17T08:10:14Z</time>
      </trkpt>
      <trkpt lat="42.79305" lon="0.12002">
        <ele>3125</ele>
        <time>2015-05-17T08:10:28Z</time>
      </trkpt>
      <trkpt lat="42.79303" lon="0.12006">
        <ele>3126</ele>
        <time>2015-05-17T08:10:43Z</time>
      </trkpt>
      <trkpt lat="42.79299" lon="0.12004">
        <ele>3127</ele>
        <time>2015-05-17T08:11:00Z</time>
      </trkpt>
      <trkpt lat="42.79303" lon="0.11998">
        <ele>3127</ele>
        <time>2015-05-17T08:11:17Z</time>
      </trkpt>
      <trkpt lat="42.79305" lon="0.11994">
        <ele>3128</ele>
        <time>2015-05-17T08:11:34Z</time>
      </trkpt>
      <trkpt lat="42.79299" lon="0.12001">
        <ele>3130</ele>
        <time>2015-05-17T08:11:48Z</time>
      </trkpt>
      <trkpt lat="42.79292" lon="0.12004">
        <ele>3132</ele>
        <time>2015-05-17T08:12:02Z</time>
      </trkpt>
      <trkpt lat="42.79292" lon="0.12003">
        <ele>3133</ele>
        <time>2015-05-17T08:12:18Z</time>
      </trkpt>
      <trkpt lat="42.79293" lon="0.11999">
        <ele>3133</ele>
        <time>2015-05-17T08:12:34Z</time>
      </trkpt>
      <trkpt lat="42.7929" lon="0.12005">
        <ele>3135</ele>
        <time>2015-05-17T08:12:49Z</time>
      </trkpt>
      <trkpt lat="42.79285" lon="0.12007">
        <ele>3137</ele>
        <time>2015-05-17T08:13:00Z</time>
      </trkpt>
      <trkpt lat="42.79277" lon="0.12012">
        <ele>3140</ele>
        <time>2015-05-17T08:13:18Z</time>
      </trkpt>
      <trkpt lat="42.79272" lon="0.12016">
        <ele>3143</ele>
        <time>2015-05-17T08:13:34Z</time>
      </trkpt>
      <trkpt lat="42.79265" lon="0.1202">
        <ele>3147</ele>
        <time>2015-05-17T08:13:48Z</time>
      </trkpt>
      <trkpt lat="42.79258" lon="0.12024">
        <ele>3148</ele>
        <time>2015-05-17T08:14:02Z</time>
      </trkpt>
      <trkpt lat="42.79248" lon="0.12029">
        <ele>3151</ele>
        <time>2015-05-17T08:14:20Z</time>
      </trkpt>
      <trkpt lat="42.79238" lon="0.1203">
        <ele>3155</ele>
        <time>2015-05-17T08:14:38Z</time>
      </trkpt>
      <trkpt lat="42.79237" lon="0.12028">
        <ele>3155</ele>
        <time>2015-05-17T08:14:56Z</time>
      </trkpt>
      <trkpt lat="42.79237" lon="0.12027">
        <ele>3155</ele>
        <time>2015-05-17T08:15:27Z</time>
      </trkpt>
      <trkpt lat="42.79237" lon="0.12025">
        <ele>3155</ele>
        <time>2015-05-17T08:15:50Z</time>
      </trkpt>
      <trkpt lat="42.79238" lon="0.12027">
        <ele>3155</ele>
        <time>2015-05-17T08:16:17Z</time>
      </trkpt>
      <trkpt lat="42.79236" lon="0.12025">
        <ele>3155</ele>
        <time>2015-05-17T08:16:48Z</time>
      </trkpt>
      <trkpt lat="42.79237" lon="0.12026">
        <ele>3155</ele>
        <time>2015-05-17T08:17:09Z</time>
      </trkpt>
      <trkpt lat="42.79235" lon="0.12021">
        <ele>3156</ele>
        <time>2015-05-17T08:17:31Z</time>
      </trkpt>
      <trkpt lat="42.79236" lon="0.12014">
        <ele>3159</ele>
        <time>2015-05-17T08:17:52Z</time>
      </trkpt>
      <trkpt lat="42.79236" lon="0.12013">
        <ele>3160</ele>
        <time>2015-05-17T08:18:11Z</time>
      </trkpt>
      <trkpt lat="42.79235" lon="0.12011">
        <ele>3162</ele>
        <time>2015-05-17T08:18:26Z</time>
      </trkpt>
      <trkpt lat="42.79233" lon="0.12008">
        <ele>3163</ele>
        <time>2015-05-17T08:18:47Z</time>
      </trkpt>
      <trkpt lat="42.79233" lon="0.12002">
        <ele>3167</ele>
        <time>2015-05-17T08:19:00Z</time>
      </trkpt>
      <trkpt lat="42.79233" lon="0.12">
        <ele>3167</ele>
        <time>2015-05-17T08:19:16Z</time>
      </trkpt>
      <trkpt lat="42.79234" lon="0.11997">
        <ele>3169</ele>
        <time>2015-05-17T08:19:36Z</time>
      </trkpt>
      <trkpt lat="42.79233" lon="0.11996">
        <ele>3170</ele>
        <time>2015-05-17T08:19:42Z</time>
      </trkpt>
      <trkpt lat="42.79229" lon="0.11993">
        <ele>3169</ele>
        <time>2015-05-17T08:19:58Z</time>
      </trkpt>
      <trkpt lat="42.79229" lon="0.11993">
        <ele>3170</ele>
        <time>2015-05-17T08:19:59Z</time>
      </trkpt>
      <trkpt lat="42.79221" lon="0.11984">
        <ele>3169</ele>
        <time>2015-05-17T08:20:12Z</time>
      </trkpt>
      <trkpt lat="42.79216" lon="0.1198">
        <ele>3172</ele>
        <time>2015-05-17T08:20:23Z</time>
      </trkpt>
      <trkpt lat="42.79212" lon="0.11979">
        <ele>3175</ele>
        <time>2015-05-17T08:20:40Z</time>
      </trkpt>
      <trkpt lat="42.79206" lon="0.11977">
        <ele>3176</ele>
        <time>2015-05-17T08:20:56Z</time>
      </trkpt>
      <trkpt lat="42.79205" lon="0.11975">
        <ele>3175</ele>
        <time>2015-05-17T08:21:14Z</time>
      </trkpt>
      <trkpt lat="42.79203" lon="0.11973">
        <ele>3176</ele>
        <time>2015-05-17T08:21:33Z</time>
      </trkpt>
      <trkpt lat="42.79204" lon="0.11973">
        <ele>3175</ele>
        <time>2015-05-17T08:21:53Z</time>
      </trkpt>
      <trkpt lat="42.79204" lon="0.11974">
        <ele>3176</ele>
        <time>2015-05-17T08:22:14Z</time>
      </trkpt>
      <trkpt lat="42.79205" lon="0.11974">
        <ele>3176</ele>
        <time>2015-05-17T08:22:32Z</time>
      </trkpt>
      <trkpt lat="42.79205" lon="0.11973">
        <ele>3176</ele>
        <time>2015-05-17T08:22:55Z</time>
      </trkpt>
      <trkpt lat="42.79206" lon="0.11974">
        <ele>3177</ele>
        <time>2015-05-17T08:23:12Z</time>
      </trkpt>
      <trkpt lat="42.79205" lon="0.11973">
        <ele>3176</ele>
        <time>2015-05-17T08:23:37Z</time>
      </trkpt>
      <trkpt lat="42.79205" lon="0.11973">
        <ele>3176</ele>
        <time>2015-05-17T08:23:57Z</time>
      </trkpt>
      <trkpt lat="42.79206" lon="0.11974">
        <ele>3175</ele>
        <time>2015-05-17T08:24:21Z</time>
      </trkpt>
      <trkpt lat="42.79207" lon="0.11973">
        <ele>3175</ele>
        <time>2015-05-17T08:24:44Z</time>
      </trkpt>
      <trkpt lat="42.79207" lon="0.11974">
        <ele>3176</ele>
        <time>2015-05-17T08:25:03Z</time>
      </trkpt>
      <trkpt lat="42.79207" lon="0.11974">
        <ele>3175</ele>
        <time>2015-05-17T08:25:21Z</time>
      </trkpt>
      <trkpt lat="42.79207" lon="0.11973">
        <ele>3175</ele>
        <time>2015-05-17T08:25:41Z</time>
      </trkpt>
      <trkpt lat="42.79207" lon="0.11972">
        <ele>3175</ele>
        <time>2015-05-17T08:26:01Z</time>
      </trkpt>
      <trkpt lat="42.79207" lon="0.11972">
        <ele>3176</ele>
        <time>2015-05-17T08:26:24Z</time>
      </trkpt>
      <trkpt lat="42.79208" lon="0.11972">
        <ele>3175</ele>
        <time>2015-05-17T08:26:45Z</time>
      </trkpt>
      <trkpt lat="42.79209" lon="0.11972">
        <ele>3175</ele>
        <time>2015-05-17T08:27:06Z</time>
      </trkpt>
      <trkpt lat="42.79207" lon="0.11973">
        <ele>3176</ele>
        <time>2015-05-17T08:27:24Z</time>
      </trkpt>
      <trkpt lat="42.79206" lon="0.11973">
        <ele>3175</ele>
        <time>2015-05-17T08:27:42Z</time>
      </trkpt>
      <trkpt lat="42.79206" lon="0.11973">
        <ele>3176</ele>
        <time>2015-05-17T08:28:04Z</time>
      </trkpt>
      <trkpt lat="42.79206" lon="0.11974">
        <ele>3178</ele>
        <time>2015-05-17T08:28:25Z</time>
      </trkpt>
      <trkpt lat="42.79204" lon="0.11974">
        <ele>3176</ele>
        <time>2015-05-17T08:29:05Z</time>
      </trkpt>
      <trkpt lat="42.79205" lon="0.11974">
        <ele>3176</ele>
        <time>2015-05-17T08:29:45Z</time>
      </trkpt>
      <trkpt lat="42.79207" lon="0.11972">
        <ele>3176</ele>
        <time>2015-05-17T08:30:24Z</time>
      </trkpt>
      <trkpt lat="42.79206" lon="0.11975">
        <ele>3176</ele>
        <time>2015-05-17T08:31:01Z</time>
      </trkpt>
      <trkpt lat="42.79205" lon="0.11975">
        <ele>3176</ele>
        <time>2015-05-17T08:31:39Z</time>
      </trkpt>
      <trkpt lat="42.79205" lon="0.11975">
        <ele>3176</ele>
        <time>2015-05-17T08:32:06Z</time>
      </trkpt>
      <trkpt lat="42.79206" lon="0.11974">
        <ele>3177</ele>
        <time>2015-05-17T08:32:41Z</time>
      </trkpt>
      <trkpt lat="42.79207" lon="0.11974">
        <ele>3177</ele>
        <time>2015-05-17T08:33:20Z</time>
      </trkpt>
      <trkpt lat="42.79206" lon="0.11974">
        <ele>3177</ele>
        <time>2015-05-17T08:33:49Z</time>
      </trkpt>
      <trkpt lat="42.79205" lon="0.11975">
        <ele>3176</ele>
        <time>2015-05-17T08:34:17Z</time>
      </trkpt>
      <trkpt lat="42.79205" lon="0.11975">
        <ele>3177</ele>
        <time>2015-05-17T08:34:47Z</time>
      </trkpt>
      <trkpt lat="42.79205" lon="0.11972">
        <ele>3177</ele>
        <time>2015-05-17T08:35:17Z</time>
      </trkpt>
      <trkpt lat="42.79205" lon="0.11974">
        <ele>3176</ele>
        <time>2015-05-17T08:35:42Z</time>
      </trkpt>
      <trkpt lat="42.79204" lon="0.11973">
        <ele>3177</ele>
        <time>2015-05-17T08:36:07Z</time>
      </trkpt>
      <trkpt lat="42.79204" lon="0.11976">
        <ele>3177</ele>
        <time>2015-05-17T08:36:41Z</time>
      </trkpt>
      <trkpt lat="42.79204" lon="0.11975">
        <ele>3176</ele>
        <time>2015-05-17T08:37:19Z</time>
      </trkpt>
      <trkpt lat="42.79204" lon="0.11976">
        <ele>3177</ele>
        <time>2015-05-17T08:37:50Z</time>
      </trkpt>
      <trkpt lat="42.79205" lon="0.11976">
        <ele>3176</ele>
        <time>2015-05-17T08:38:23Z</time>
      </trkpt>
      <trkpt lat="42.79205" lon="0.11976">
        <ele>3176</ele>
        <time>2015-05-17T08:38:57Z</time>
      </trkpt>
      <trkpt lat="42.79205" lon="0.11975">
        <ele>3176</ele>
        <time>2015-05-17T08:39:36Z</time>
      </trkpt>
      <trkpt lat="42.79205" lon="0.11973">
        <ele>3176</ele>
        <time>2015-05-17T08:40:15Z</time>
      </trkpt>
      <trkpt lat="42.79205" lon="0.11973">
        <ele>3175</ele>
        <time>2015-05-17T08:40:50Z</time>
      </trkpt>
      <trkpt lat="42.79204" lon="0.11973">
        <ele>3175</ele>
        <time>2015-05-17T08:41:28Z</time>
      </trkpt>
      <trkpt lat="42.79205" lon="0.11974">
        <ele>3176</ele>
        <time>2015-05-17T08:42:06Z</time>
      </trkpt>
      <trkpt lat="42.79205" lon="0.11973">
        <ele>3176</ele>
        <time>2015-05-17T08:42:49Z</time>
      </trkpt>
      <trkpt lat="42.79205" lon="0.11974">
        <ele>3176</ele>
        <time>2015-05-17T08:43:23Z</time>
      </trkpt>
      <trkpt lat="42.79205" lon="0.11975">
        <ele>3175</ele>
        <time>2015-05-17T08:43:48Z</time>
      </trkpt>
      <trkpt lat="42.79205" lon="0.11974">
        <ele>3176</ele>
        <time>2015-05-17T08:44:32Z</time>
      </trkpt>
      <trkpt lat="42.79205" lon="0.11974">
        <ele>3176</ele>
        <time>2015-05-17T08:45:07Z</time>
      </trkpt>
      <trkpt lat="42.79205" lon="0.11974">
        <ele>3174</ele>
        <time>2015-05-17T08:45:46Z</time>
      </trkpt>
      <trkpt lat="42.79205" lon="0.11974">
        <ele>3175</ele>
        <time>2015-05-17T08:46:33Z</time>
      </trkpt>
      <trkpt lat="42.79205" lon="0.11974">
        <ele>3175</ele>
        <time>2015-05-17T08:47:17Z</time>
      </trkpt>
      <trkpt lat="42.79206" lon="0.11974">
        <ele>3175</ele>
        <time>2015-05-17T08:47:58Z</time>
      </trkpt>
      <trkpt lat="42.79205" lon="0.11973">
        <ele>3175</ele>
        <time>2015-05-17T08:48:40Z</time>
      </trkpt>
      <trkpt lat="42.79206" lon="0.11974">
        <ele>3175</ele>
        <time>2015-05-17T08:49:19Z</time>
      </trkpt>
      <trkpt lat="42.79206" lon="0.11974">
        <ele>3175</ele>
        <time>2015-05-17T08:49:55Z</time>
      </trkpt>
      <trkpt lat="42.79205" lon="0.11973">
        <ele>3175</ele>
        <time>2015-05-17T08:50:36Z</time>
      </trkpt>
      <trkpt lat="42.79205" lon="0.11974">
        <ele>3175</ele>
        <time>2015-05-17T08:51:16Z</time>
      </trkpt>
      <trkpt lat="42.79206" lon="0.11972">
        <ele>3177</ele>
        <time>2015-05-17T08:51:45Z</time>
      </trkpt>
      <trkpt lat="42.79204" lon="0.11973">
        <ele>3177</ele>
        <time>2015-05-17T08:52:04Z</time>
      </trkpt>
      <trkpt lat="42.79204" lon="0.11974">
        <ele>3176</ele>
        <time>2015-05-17T08:52:31Z</time>
      </trkpt>
      <trkpt lat="42.79203" lon="0.11974">
        <ele>3177</ele>
        <time>2015-05-17T08:53:03Z</time>
      </trkpt>
      <trkpt lat="42.79204" lon="0.11975">
        <ele>3177</ele>
        <time>2015-05-17T08:53:14Z</time>
      </trkpt>
      <trkpt lat="42.79201" lon="0.11977">
        <ele>3177</ele>
        <time>2015-05-17T08:53:36Z</time>
      </trkpt>
      <trkpt lat="42.79203" lon="0.11976">
        <ele>3176</ele>
        <time>2015-05-17T08:53:55Z</time>
      </trkpt>
      <trkpt lat="42.79204" lon="0.11974">
        <ele>3178</ele>
        <time>2015-05-17T08:54:21Z</time>
      </trkpt>
      <trkpt lat="42.79203" lon="0.11972">
        <ele>3177</ele>
        <time>2015-05-17T08:54:42Z</time>
      </trkpt>
      <trkpt lat="42.79205" lon="0.11972">
        <ele>3177</ele>
        <time>2015-05-17T08:55:07Z</time>
      </trkpt>
      <trkpt lat="42.79203" lon="0.11972">
        <ele>3177</ele>
        <time>2015-05-17T08:55:29Z</time>
      </trkpt>
      <trkpt lat="42.79204" lon="0.11973">
        <ele>3176</ele>
        <time>2015-05-17T08:55:52Z</time>
      </trkpt>
      <trkpt lat="42.79203" lon="0.11974">
        <ele>3177</ele>
        <time>2015-05-17T08:56:09Z</time>
      </trkpt>
      <trkpt lat="42.79203" lon="0.11975">
        <ele>3177</ele>
        <time>2015-05-17T08:56:27Z</time>
      </trkpt>
      <trkpt lat="42.79206" lon="0.11975">
        <ele>3177</ele>
        <time>2015-05-17T08:56:49Z</time>
      </trkpt>
      <trkpt lat="42.79207" lon="0.11972">
        <ele>3175</ele>
        <time>2015-05-17T08:57:09Z</time>
      </trkpt>
      <trkpt lat="42.79215" lon="0.11972">
        <ele>3172</ele>
        <time>2015-05-17T08:57:22Z</time>
      </trkpt>
      <trkpt lat="42.79215" lon="0.11973">
        <ele>3172</ele>
        <time>2015-05-17T08:57:23Z</time>
      </trkpt>
      <trkpt lat="42.79223" lon="0.11975">
        <ele>3171</ele>
        <time>2015-05-17T08:57:33Z</time>
      </trkpt>
      <trkpt lat="42.79225" lon="0.11975">
        <ele>3169</ele>
        <time>2015-05-17T08:57:35Z</time>
      </trkpt>
      <trkpt lat="42.79234" lon="0.11981">
        <ele>3170</ele>
        <time>2015-05-17T08:57:47Z</time>
      </trkpt>
      <trkpt lat="42.79243" lon="0.11985">
        <ele>3168</ele>
        <time>2015-05-17T08:58:00Z</time>
      </trkpt>
      <trkpt lat="42.79243" lon="0.11988">
        <ele>3169</ele>
        <time>2015-05-17T08:58:17Z</time>
      </trkpt>
      <trkpt lat="42.79243" lon="0.11992">
        <ele>3167</ele>
        <time>2015-05-17T08:58:35Z</time>
      </trkpt>
      <trkpt lat="42.79245" lon="0.11995">
        <ele>3166</ele>
        <time>2015-05-17T08:58:50Z</time>
      </trkpt>
      <trkpt lat="42.79249" lon="0.11994">
        <ele>3164</ele>
        <time>2015-05-17T08:59:03Z</time>
      </trkpt>
      <trkpt lat="42.79249" lon="0.11998">
        <ele>3162</ele>
        <time>2015-05-17T08:59:15Z</time>
      </trkpt>
      <trkpt lat="42.79249" lon="0.12004">
        <ele>3160</ele>
        <time>2015-05-17T08:59:26Z</time>
      </trkpt>
      <trkpt lat="42.79251" lon="0.12007">
        <ele>3158</ele>
        <time>2015-05-17T08:59:36Z</time>
      </trkpt>
      <trkpt lat="42.79252" lon="0.1201">
        <ele>3155</ele>
        <time>2015-05-17T08:59:47Z</time>
      </trkpt>
      <trkpt lat="42.79246" lon="0.12017">
        <ele>3156</ele>
        <time>2015-05-17T09:00:00Z</time>
      </trkpt>
      <trkpt lat="42.79241" lon="0.12024">
        <ele>3156</ele>
        <time>2015-05-17T09:00:12Z</time>
      </trkpt>
      <trkpt lat="42.79241" lon="0.12031">
        <ele>3156</ele>
        <time>2015-05-17T09:00:24Z</time>
      </trkpt>
      <trkpt lat="42.79239" lon="0.12031">
        <ele>3155</ele>
        <time>2015-05-17T09:00:46Z</time>
      </trkpt>
      <trkpt lat="42.79239" lon="0.12031">
        <ele>3156</ele>
        <time>2015-05-17T09:01:03Z</time>
      </trkpt>
      <trkpt lat="42.79239" lon="0.1203">
        <ele>3156</ele>
        <time>2015-05-17T09:01:15Z</time>
      </trkpt>
      <trkpt lat="42.79237" lon="0.1203">
        <ele>3156</ele>
        <time>2015-05-17T09:01:37Z</time>
      </trkpt>
      <trkpt lat="42.79241" lon="0.12027">
        <ele>3156</ele>
        <time>2015-05-17T09:02:00Z</time>
      </trkpt>
      <trkpt lat="42.7924" lon="0.12028">
        <ele>3155</ele>
        <time>2015-05-17T09:02:20Z</time>
      </trkpt>
      <trkpt lat="42.7924" lon="0.12027">
        <ele>3156</ele>
        <time>2015-05-17T09:02:40Z</time>
      </trkpt>
      <trkpt lat="42.7924" lon="0.12026">
        <ele>3156</ele>
        <time>2015-05-17T09:03:02Z</time>
      </trkpt>
      <trkpt lat="42.79241" lon="0.12026">
        <ele>3156</ele>
        <time>2015-05-17T09:03:18Z</time>
      </trkpt>
      <trkpt lat="42.7924" lon="0.12032">
        <ele>3156</ele>
        <time>2015-05-17T09:03:47Z</time>
      </trkpt>
      <trkpt lat="42.79238" lon="0.12026">
        <ele>3156</ele>
        <time>2015-05-17T09:04:18Z</time>
      </trkpt>
      <trkpt lat="42.79238" lon="0.12026">
        <ele>3156</ele>
        <time>2015-05-17T09:04:42Z</time>
      </trkpt>
      <trkpt lat="42.79239" lon="0.12027">
        <ele>3156</ele>
        <time>2015-05-17T09:05:04Z</time>
      </trkpt>
      <trkpt lat="42.79239" lon="0.12028">
        <ele>3156</ele>
        <time>2015-05-17T09:05:31Z</time>
      </trkpt>
      <trkpt lat="42.7924" lon="0.12029">
        <ele>3156</ele>
        <time>2015-05-17T09:05:56Z</time>
      </trkpt>
      <trkpt lat="42.7924" lon="0.12031">
        <ele>3156</ele>
        <time>2015-05-17T09:06:05Z</time>
      </trkpt>
      <trkpt lat="42.79252" lon="0.12032">
        <ele>3152</ele>
        <time>2015-05-17T09:06:09Z</time>
      </trkpt>
      <trkpt lat="42.79266" lon="0.12023">
        <ele>3147</ele>
        <time>2015-05-17T09:06:13Z</time>
      </trkpt>
      <trkpt lat="42.79268" lon="0.1202">
        <ele>3146</ele>
        <time>2015-05-17T09:06:14Z</time>
      </trkpt>
      <trkpt lat="42.79278" lon="0.12015">
        <ele>3143</ele>
        <time>2015-05-17T09:06:18Z</time>
      </trkpt>
      <trkpt lat="42.79281" lon="0.12013">
        <ele>3141</ele>
        <time>2015-05-17T09:06:19Z</time>
      </trkpt>
      <trkpt lat="42.79295" lon="0.11997">
        <ele>3137</ele>
        <time>2015-05-17T09:06:23Z</time>
      </trkpt>
      <trkpt lat="42.79306" lon="0.11985">
        <ele>3134</ele>
        <time>2015-05-17T09:06:26Z</time>
      </trkpt>
      <trkpt lat="42.79321" lon="0.11973">
        <ele>3128</ele>
        <time>2015-05-17T09:06:30Z</time>
      </trkpt>
      <trkpt lat="42.79329" lon="0.11965">
        <ele>3126</ele>
        <time>2015-05-17T09:06:33Z</time>
      </trkpt>
      <trkpt lat="42.79331" lon="0.11969">
        <ele>3121</ele>
        <time>2015-05-17T09:06:36Z</time>
      </trkpt>
      <trkpt lat="42.79332" lon="0.11976">
        <ele>3119</ele>
        <time>2015-05-17T09:06:38Z</time>
      </trkpt>
      <trkpt lat="42.79334" lon="0.11979">
        <ele>3115</ele>
        <time>2015-05-17T09:06:39Z</time>
      </trkpt>
      <trkpt lat="42.79342" lon="0.11976">
        <ele>3110</ele>
        <time>2015-05-17T09:06:42Z</time>
      </trkpt>
      <trkpt lat="42.79345" lon="0.11975">
        <ele>3111</ele>
        <time>2015-05-17T09:06:43Z</time>
      </trkpt>
      <trkpt lat="42.79347" lon="0.11973">
        <ele>3110</ele>
        <time>2015-05-17T09:06:44Z</time>
      </trkpt>
      <trkpt lat="42.79349" lon="0.11974">
        <ele>3110</ele>
        <time>2015-05-17T09:06:45Z</time>
      </trkpt>
      <trkpt lat="42.79352" lon="0.11976">
        <ele>3107</ele>
        <time>2015-05-17T09:06:46Z</time>
      </trkpt>
      <trkpt lat="42.79358" lon="0.11985">
        <ele>3104</ele>
        <time>2015-05-17T09:06:48Z</time>
      </trkpt>
      <trkpt lat="42.7936" lon="0.11988">
        <ele>3103</ele>
        <time>2015-05-17T09:06:49Z</time>
      </trkpt>
      <trkpt lat="42.79349" lon="0.11999">
        <ele>3098</ele>
        <time>2015-05-17T09:06:53Z</time>
      </trkpt>
      <trkpt lat="42.79354" lon="0.11998">
        <ele>3095</ele>
        <time>2015-05-17T09:06:55Z</time>
      </trkpt>
      <trkpt lat="42.79369" lon="0.11998">
        <ele>3089</ele>
        <time>2015-05-17T09:06:59Z</time>
      </trkpt>
      <trkpt lat="42.7937" lon="0.12">
        <ele>3087</ele>
        <time>2015-05-17T09:07:00Z</time>
      </trkpt>
      <trkpt lat="42.79367" lon="0.12006">
        <ele>3087</ele>
        <time>2015-05-17T09:07:02Z</time>
      </trkpt>
      <trkpt lat="42.79365" lon="0.1201">
        <ele>3084</ele>
        <time>2015-05-17T09:07:04Z</time>
      </trkpt>
      <trkpt lat="42.79368" lon="0.12013">
        <ele>3082</ele>
        <time>2015-05-17T09:07:05Z</time>
      </trkpt>
      <trkpt lat="42.79376" lon="0.12031">
        <ele>3077</ele>
        <time>2015-05-17T09:07:09Z</time>
      </trkpt>
      <trkpt lat="42.79353" lon="0.12045">
        <ele>3075</ele>
        <time>2015-05-17T09:07:13Z</time>
      </trkpt>
      <trkpt lat="42.79356" lon="0.12048">
        <ele>3070</ele>
        <time>2015-05-17T09:07:15Z</time>
      </trkpt>
      <trkpt lat="42.79361" lon="0.12045">
        <ele>3069</ele>
        <time>2015-05-17T09:07:17Z</time>
      </trkpt>
      <trkpt lat="42.79364" lon="0.12043">
        <ele>3068</ele>
        <time>2015-05-17T09:07:18Z</time>
      </trkpt>
      <trkpt lat="42.79365" lon="0.12041">
        <ele>3068</ele>
        <time>2015-05-17T09:07:19Z</time>
      </trkpt>
      <trkpt lat="42.79372" lon="0.1204">
        <ele>3063</ele>
        <time>2015-05-17T09:07:21Z</time>
      </trkpt>
      <trkpt lat="42.79373" lon="0.12042">
        <ele>3062</ele>
        <time>2015-05-17T09:07:22Z</time>
      </trkpt>
      <trkpt lat="42.79379" lon="0.1205">
        <ele>3057</ele>
        <time>2015-05-17T09:07:24Z</time>
      </trkpt>
      <trkpt lat="42.79382" lon="0.12053">
        <ele>3053</ele>
        <time>2015-05-17T09:07:26Z</time>
      </trkpt>
      <trkpt lat="42.79383" lon="0.12059">
        <ele>3051</ele>
        <time>2015-05-17T09:07:27Z</time>
      </trkpt>
      <trkpt lat="42.79385" lon="0.12062">
        <ele>3050</ele>
        <time>2015-05-17T09:07:28Z</time>
      </trkpt>
      <trkpt lat="42.79388" lon="0.12065">
        <ele>3045</ele>
        <time>2015-05-17T09:07:30Z</time>
      </trkpt>
      <trkpt lat="42.79388" lon="0.12069">
        <ele>3044</ele>
        <time>2015-05-17T09:07:31Z</time>
      </trkpt>
      <trkpt lat="42.7939" lon="0.12071">
        <ele>3042</ele>
        <time>2015-05-17T09:07:32Z</time>
      </trkpt>
      <trkpt lat="42.79393" lon="0.12073">
        <ele>3040</ele>
        <time>2015-05-17T09:07:33Z</time>
      </trkpt>
      <trkpt lat="42.79397" lon="0.12075">
        <ele>3037</ele>
        <time>2015-05-17T09:07:34Z</time>
      </trkpt>
      <trkpt lat="42.79398" lon="0.12088">
        <ele>3034</ele>
        <time>2015-05-17T09:07:37Z</time>
      </trkpt>
      <trkpt lat="42.79401" lon="0.12092">
        <ele>3031</ele>
        <time>2015-05-17T09:07:38Z</time>
      </trkpt>
      <trkpt lat="42.79405" lon="0.12102">
        <ele>3029</ele>
        <time>2015-05-17T09:07:40Z</time>
      </trkpt>
      <trkpt lat="42.7941" lon="0.12106">
        <ele>3025</ele>
        <time>2015-05-17T09:07:42Z</time>
      </trkpt>
      <trkpt lat="42.79409" lon="0.12105">
        <ele>3025</ele>
        <time>2015-05-17T09:07:50Z</time>
      </trkpt>
      <trkpt lat="42.79405" lon="0.1211">
        <ele>3027</ele>
        <time>2015-05-17T09:08:09Z</time>
      </trkpt>
      <trkpt lat="42.79407" lon="0.12112">
        <ele>3027</ele>
        <time>2015-05-17T09:08:20Z</time>
      </trkpt>
      <trkpt lat="42.79408" lon="0.1212">
        <ele>3026</ele>
        <time>2015-05-17T09:08:22Z</time>
      </trkpt>
      <trkpt lat="42.7941" lon="0.12121">
        <ele>3023</ele>
        <time>2015-05-17T09:08:23Z</time>
      </trkpt>
      <trkpt lat="42.79412" lon="0.12119">
        <ele>3023</ele>
        <time>2015-05-17T09:08:24Z</time>
      </trkpt>
      <trkpt lat="42.79416" lon="0.12118">
        <ele>3018</ele>
        <time>2015-05-17T09:08:27Z</time>
      </trkpt>
      <trkpt lat="42.79415" lon="0.12137">
        <ele>3015</ele>
        <time>2015-05-17T09:08:30Z</time>
      </trkpt>
      <trkpt lat="42.79417" lon="0.12159">
        <ele>3014</ele>
        <time>2015-05-17T09:08:33Z</time>
      </trkpt>
      <trkpt lat="42.79426" lon="0.12169">
        <ele>3010</ele>
        <time>2015-05-17T09:08:36Z</time>
      </trkpt>
      <trkpt lat="42.79431" lon="0.12175">
        <ele>3007</ele>
        <time>2015-05-17T09:08:38Z</time>
      </trkpt>
      <trkpt lat="42.79441" lon="0.12206">
        <ele>3003</ele>
        <time>2015-05-17T09:08:43Z</time>
      </trkpt>
      <trkpt lat="42.79447" lon="0.12221">
        <ele>2999</ele>
        <time>2015-05-17T09:08:46Z</time>
      </trkpt>
      <trkpt lat="42.79456" lon="0.12237">
        <ele>2995</ele>
        <time>2015-05-17T09:08:50Z</time>
      </trkpt>
      <trkpt lat="42.79463" lon="0.12247">
        <ele>2991</ele>
        <time>2015-05-17T09:08:53Z</time>
      </trkpt>
      <trkpt lat="42.79471" lon="0.1226">
        <ele>2987</ele>
        <time>2015-05-17T09:08:56Z</time>
      </trkpt>
      <trkpt lat="42.79476" lon="0.12269">
        <ele>2983</ele>
        <time>2015-05-17T09:08:58Z</time>
      </trkpt>
      <trkpt lat="42.79484" lon="0.1228">
        <ele>2980</ele>
        <time>2015-05-17T09:09:01Z</time>
      </trkpt>
      <trkpt lat="42.79493" lon="0.1229">
        <ele>2975</ele>
        <time>2015-05-17T09:09:04Z</time>
      </trkpt>
      <trkpt lat="42.795" lon="0.12297">
        <ele>2972</ele>
        <time>2015-05-17T09:09:07Z</time>
      </trkpt>
      <trkpt lat="42.79505" lon="0.12303">
        <ele>2969</ele>
        <time>2015-05-17T09:09:09Z</time>
      </trkpt>
      <trkpt lat="42.7951" lon="0.12311">
        <ele>2965</ele>
        <time>2015-05-17T09:09:11Z</time>
      </trkpt>
      <trkpt lat="42.7952" lon="0.1233">
        <ele>2961</ele>
        <time>2015-05-17T09:09:15Z</time>
      </trkpt>
      <trkpt lat="42.79526" lon="0.12341">
        <ele>2958</ele>
        <time>2015-05-17T09:09:18Z</time>
      </trkpt>
      <trkpt lat="42.79529" lon="0.12348">
        <ele>2956</ele>
        <time>2015-05-17T09:09:20Z</time>
      </trkpt>
      <trkpt lat="42.79539" lon="0.12417">
        <ele>2951</ele>
        <time>2015-05-17T09:09:33Z</time>
      </trkpt>
      <trkpt lat="42.7954" lon="0.12423">
        <ele>2951</ele>
        <time>2015-05-17T09:09:34Z</time>
      </trkpt>
      <trkpt lat="42.79542" lon="0.12435">
        <ele>2951</ele>
        <time>2015-05-17T09:09:36Z</time>
      </trkpt>
      <trkpt lat="42.79555" lon="0.12496">
        <ele>2949</ele>
        <time>2015-05-17T09:09:50Z</time>
      </trkpt>
      <trkpt lat="42.79558" lon="0.12513">
        <ele>2950</ele>
        <time>2015-05-17T09:10:02Z</time>
      </trkpt>
      <trkpt lat="42.79565" lon="0.12556">
        <ele>2948</ele>
        <time>2015-05-17T09:10:14Z</time>
      </trkpt>
      <trkpt lat="42.7958" lon="0.126">
        <ele>2946</ele>
        <time>2015-05-17T09:10:27Z</time>
      </trkpt>
      <trkpt lat="42.79591" lon="0.12624">
        <ele>2945</ele>
        <time>2015-05-17T09:10:37Z</time>
      </trkpt>
      <trkpt lat="42.79591" lon="0.12627">
        <ele>2946</ele>
        <time>2015-05-17T09:10:53Z</time>
      </trkpt>
      <trkpt lat="42.79592" lon="0.12627">
        <ele>2945</ele>
        <time>2015-05-17T09:11:08Z</time>
      </trkpt>
      <trkpt lat="42.79591" lon="0.12625">
        <ele>2945</ele>
        <time>2015-05-17T09:11:30Z</time>
      </trkpt>
      <trkpt lat="42.79591" lon="0.12626">
        <ele>2945</ele>
        <time>2015-05-17T09:11:48Z</time>
      </trkpt>
      <trkpt lat="42.79592" lon="0.12627">
        <ele>2946</ele>
        <time>2015-05-17T09:12:09Z</time>
      </trkpt>
      <trkpt lat="42.7959" lon="0.12626">
        <ele>2945</ele>
        <time>2015-05-17T09:12:35Z</time>
      </trkpt>
      <trkpt lat="42.79592" lon="0.12628">
        <ele>2945</ele>
        <time>2015-05-17T09:12:51Z</time>
      </trkpt>
      <trkpt lat="42.79594" lon="0.12631">
        <ele>2945</ele>
        <time>2015-05-17T09:13:19Z</time>
      </trkpt>
      <trkpt lat="42.79599" lon="0.12635">
        <ele>2945</ele>
        <time>2015-05-17T09:13:30Z</time>
      </trkpt>
      <trkpt lat="42.79604" lon="0.12642">
        <ele>2946</ele>
        <time>2015-05-17T09:13:44Z</time>
      </trkpt>
      <trkpt lat="42.79607" lon="0.12645">
        <ele>2946</ele>
        <time>2015-05-17T09:13:48Z</time>
      </trkpt>
      <trkpt lat="42.79615" lon="0.12648">
        <ele>2947</ele>
        <time>2015-05-17T09:14:02Z</time>
      </trkpt>
      <trkpt lat="42.79621" lon="0.12655">
        <ele>2947</ele>
        <time>2015-05-17T09:14:12Z</time>
      </trkpt>
      <trkpt lat="42.79629" lon="0.12665">
        <ele>2943</ele>
        <time>2015-05-17T09:14:24Z</time>
      </trkpt>
      <trkpt lat="42.79637" lon="0.12675">
        <ele>2942</ele>
        <time>2015-05-17T09:14:39Z</time>
      </trkpt>
      <trkpt lat="42.79642" lon="0.12686">
        <ele>2939</ele>
        <time>2015-05-17T09:14:50Z</time>
      </trkpt>
      <trkpt lat="42.79643" lon="0.12686">
        <ele>2939</ele>
        <time>2015-05-17T09:14:51Z</time>
      </trkpt>
      <trkpt lat="42.79646" lon="0.12692">
        <ele>2937</ele>
        <time>2015-05-17T09:14:56Z</time>
      </trkpt>
      <trkpt lat="42.7965" lon="0.12696">
        <ele>2936</ele>
        <time>2015-05-17T09:15:01Z</time>
      </trkpt>
      <trkpt lat="42.79651" lon="0.12698">
        <ele>2935</ele>
        <time>2015-05-17T09:15:03Z</time>
      </trkpt>
      <trkpt lat="42.7966" lon="0.12707">
        <ele>2931</ele>
        <time>2015-05-17T09:15:13Z</time>
      </trkpt>
      <trkpt lat="42.79675" lon="0.12714">
        <ele>2929</ele>
        <time>2015-05-17T09:15:28Z</time>
      </trkpt>
      <trkpt lat="42.79678" lon="0.12714">
        <ele>2927</ele>
        <time>2015-05-17T09:15:31Z</time>
      </trkpt>
      <trkpt lat="42.79686" lon="0.1272">
        <ele>2929</ele>
        <time>2015-05-17T09:15:47Z</time>
      </trkpt>
      <trkpt lat="42.79691" lon="0.12727">
        <ele>2930</ele>
        <time>2015-05-17T09:16:01Z</time>
      </trkpt>
      <trkpt lat="42.79697" lon="0.12734">
        <ele>2932</ele>
        <time>2015-05-17T09:16:15Z</time>
      </trkpt>
      <trkpt lat="42.79702" lon="0.1274">
        <ele>2933</ele>
        <time>2015-05-17T09:16:29Z</time>
      </trkpt>
      <trkpt lat="42.79705" lon="0.12748">
        <ele>2935</ele>
        <time>2015-05-17T09:16:44Z</time>
      </trkpt>
      <trkpt lat="42.79705" lon="0.12755">
        <ele>2936</ele>
        <time>2015-05-17T09:16:59Z</time>
      </trkpt>
      <trkpt lat="42.79707" lon="0.12763">
        <ele>2936</ele>
        <time>2015-05-17T09:17:18Z</time>
      </trkpt>
      <trkpt lat="42.79711" lon="0.12768">
        <ele>2939</ele>
        <time>2015-05-17T09:17:32Z</time>
      </trkpt>
      <trkpt lat="42.79708" lon="0.12777">
        <ele>2941</ele>
        <time>2015-05-17T09:17:49Z</time>
      </trkpt>
      <trkpt lat="42.79705" lon="0.12781">
        <ele>2944</ele>
        <time>2015-05-17T09:18:02Z</time>
      </trkpt>
      <trkpt lat="42.79704" lon="0.12782">
        <ele>2944</ele>
        <time>2015-05-17T09:18:15Z</time>
      </trkpt>
      <trkpt lat="42.79706" lon="0.12784">
        <ele>2945</ele>
        <time>2015-05-17T09:18:25Z</time>
      </trkpt>
      <trkpt lat="42.79709" lon="0.1279">
        <ele>2946</ele>
        <time>2015-05-17T09:18:37Z</time>
      </trkpt>
      <trkpt lat="42.79705" lon="0.12793">
        <ele>2948</ele>
        <time>2015-05-17T09:18:52Z</time>
      </trkpt>
      <trkpt lat="42.79702" lon="0.12797">
        <ele>2950</ele>
        <time>2015-05-17T09:19:07Z</time>
      </trkpt>
      <trkpt lat="42.79706" lon="0.12801">
        <ele>2953</ele>
        <time>2015-05-17T09:19:21Z</time>
      </trkpt>
      <trkpt lat="42.79707" lon="0.12806">
        <ele>2955</ele>
        <time>2015-05-17T09:19:35Z</time>
      </trkpt>
      <trkpt lat="42.79711" lon="0.12808">
        <ele>2957</ele>
        <time>2015-05-17T09:19:48Z</time>
      </trkpt>
      <trkpt lat="42.79716" lon="0.12814">
        <ele>2959</ele>
        <time>2015-05-17T09:20:02Z</time>
      </trkpt>
      <trkpt lat="42.79716" lon="0.12818">
        <ele>2960</ele>
        <time>2015-05-17T09:20:16Z</time>
      </trkpt>
      <trkpt lat="42.79716" lon="0.12818">
        <ele>2961</ele>
        <time>2015-05-17T09:20:33Z</time>
      </trkpt>
      <trkpt lat="42.79717" lon="0.12825">
        <ele>2961</ele>
        <time>2015-05-17T09:20:47Z</time>
      </trkpt>
      <trkpt lat="42.79715" lon="0.12828">
        <ele>2964</ele>
        <time>2015-05-17T09:21:02Z</time>
      </trkpt>
      <trkpt lat="42.79716" lon="0.12833">
        <ele>2966</ele>
        <time>2015-05-17T09:21:16Z</time>
      </trkpt>
      <trkpt lat="42.79719" lon="0.12841">
        <ele>2967</ele>
        <time>2015-05-17T09:21:30Z</time>
      </trkpt>
      <trkpt lat="42.79722" lon="0.12848">
        <ele>2969</ele>
        <time>2015-05-17T09:21:43Z</time>
      </trkpt>
      <trkpt lat="42.79721" lon="0.1285">
        <ele>2971</ele>
        <time>2015-05-17T09:21:56Z</time>
      </trkpt>
      <trkpt lat="42.79723" lon="0.12851">
        <ele>2972</ele>
        <time>2015-05-17T09:22:09Z</time>
      </trkpt>
      <trkpt lat="42.79725" lon="0.12853">
        <ele>2974</ele>
        <time>2015-05-17T09:22:24Z</time>
      </trkpt>
      <trkpt lat="42.79728" lon="0.12858">
        <ele>2976</ele>
        <time>2015-05-17T09:22:37Z</time>
      </trkpt>
      <trkpt lat="42.79727" lon="0.12863">
        <ele>2977</ele>
        <time>2015-05-17T09:22:48Z</time>
      </trkpt>
      <trkpt lat="42.79728" lon="0.12862">
        <ele>2977</ele>
        <time>2015-05-17T09:23:07Z</time>
      </trkpt>
      <trkpt lat="42.79729" lon="0.12865">
        <ele>2979</ele>
        <time>2015-05-17T09:23:14Z</time>
      </trkpt>
      <trkpt lat="42.79728" lon="0.12875">
        <ele>2981</ele>
        <time>2015-05-17T09:23:28Z</time>
      </trkpt>
      <trkpt lat="42.79728" lon="0.12883">
        <ele>2983</ele>
        <time>2015-05-17T09:23:42Z</time>
      </trkpt>
      <trkpt lat="42.7973" lon="0.12893">
        <ele>2985</ele>
        <time>2015-05-17T09:23:53Z</time>
      </trkpt>
      <trkpt lat="42.79728" lon="0.12889">
        <ele>2987</ele>
        <time>2015-05-17T09:24:05Z</time>
      </trkpt>
      <trkpt lat="42.79724" lon="0.12888">
        <ele>2989</ele>
        <time>2015-05-17T09:24:22Z</time>
      </trkpt>
      <trkpt lat="42.79722" lon="0.12887">
        <ele>2991</ele>
        <time>2015-05-17T09:24:37Z</time>
      </trkpt>
      <trkpt lat="42.79721" lon="0.12889">
        <ele>2993</ele>
        <time>2015-05-17T09:24:50Z</time>
      </trkpt>
      <trkpt lat="42.79719" lon="0.1289">
        <ele>2994</ele>
        <time>2015-05-17T09:25:04Z</time>
      </trkpt>
      <trkpt lat="42.79714" lon="0.12894">
        <ele>2994</ele>
        <time>2015-05-17T09:25:28Z</time>
      </trkpt>
      <trkpt lat="42.79713" lon="0.12892">
        <ele>2996</ele>
        <time>2015-05-17T09:25:47Z</time>
      </trkpt>
      <trkpt lat="42.7971" lon="0.12893">
        <ele>2997</ele>
        <time>2015-05-17T09:26:00Z</time>
      </trkpt>
      <trkpt lat="42.79706" lon="0.12893">
        <ele>2998</ele>
        <time>2015-05-17T09:26:14Z</time>
      </trkpt>
      <trkpt lat="42.79701" lon="0.12892">
        <ele>2999</ele>
        <time>2015-05-17T09:26:27Z</time>
      </trkpt>
      <trkpt lat="42.79702" lon="0.12894">
        <ele>3002</ele>
        <time>2015-05-17T09:26:41Z</time>
      </trkpt>
      <trkpt lat="42.79708" lon="0.12897">
        <ele>3003</ele>
        <time>2015-05-17T09:26:53Z</time>
      </trkpt>
      <trkpt lat="42.79713" lon="0.12899">
        <ele>3005</ele>
        <time>2015-05-17T09:27:06Z</time>
      </trkpt>
      <trkpt lat="42.79715" lon="0.12902">
        <ele>3006</ele>
        <time>2015-05-17T09:27:14Z</time>
      </trkpt>
      <trkpt lat="42.79719" lon="0.12909">
        <ele>3008</ele>
        <time>2015-05-17T09:27:27Z</time>
      </trkpt>
      <trkpt lat="42.79721" lon="0.12911">
        <ele>3008</ele>
        <time>2015-05-17T09:27:39Z</time>
      </trkpt>
      <trkpt lat="42.79722" lon="0.12912">
        <ele>3009</ele>
        <time>2015-05-17T09:27:49Z</time>
      </trkpt>
      <trkpt lat="42.79723" lon="0.12914">
        <ele>3010</ele>
        <time>2015-05-17T09:28:02Z</time>
      </trkpt>
      <trkpt lat="42.79726" lon="0.12916">
        <ele>3011</ele>
        <time>2015-05-17T09:28:15Z</time>
      </trkpt>
      <trkpt lat="42.79727" lon="0.12915">
        <ele>3012</ele>
        <time>2015-05-17T09:28:28Z</time>
      </trkpt>
      <trkpt lat="42.79732" lon="0.12922">
        <ele>3013</ele>
        <time>2015-05-17T09:28:41Z</time>
      </trkpt>
      <trkpt lat="42.79736" lon="0.12924">
        <ele>3013</ele>
        <time>2015-05-17T09:28:59Z</time>
      </trkpt>
      <trkpt lat="42.79736" lon="0.12929">
        <ele>3013</ele>
        <time>2015-05-17T09:29:20Z</time>
      </trkpt>
      <trkpt lat="42.79733" lon="0.12929">
        <ele>3014</ele>
        <time>2015-05-17T09:29:45Z</time>
      </trkpt>
      <trkpt lat="42.79736" lon="0.12929">
        <ele>3013</ele>
        <time>2015-05-17T09:30:02Z</time>
      </trkpt>
      <trkpt lat="42.79734" lon="0.12936">
        <ele>3012</ele>
        <time>2015-05-17T09:30:27Z</time>
      </trkpt>
      <trkpt lat="42.79733" lon="0.12934">
        <ele>3012</ele>
        <time>2015-05-17T09:31:06Z</time>
      </trkpt>
      <trkpt lat="42.79734" lon="0.12935">
        <ele>3011</ele>
        <time>2015-05-17T09:31:46Z</time>
      </trkpt>
      <trkpt lat="42.79733" lon="0.12935">
        <ele>3011</ele>
        <time>2015-05-17T09:32:40Z</time>
      </trkpt>
      <trkpt lat="42.79733" lon="0.12935">
        <ele>3011</ele>
        <time>2015-05-17T09:33:16Z</time>
      </trkpt>
      <trkpt lat="42.79735" lon="0.12932">
        <ele>3012</ele>
        <time>2015-05-17T09:33:37Z</time>
      </trkpt>
      <trkpt lat="42.79736" lon="0.12932">
        <ele>3012</ele>
        <time>2015-05-17T09:34:00Z</time>
      </trkpt>
      <trkpt lat="42.79736" lon="0.12934">
        <ele>3012</ele>
        <time>2015-05-17T09:34:16Z</time>
      </trkpt>
      <trkpt lat="42.79735" lon="0.12933">
        <ele>3012</ele>
        <time>2015-05-17T09:34:30Z</time>
      </trkpt>
      <trkpt lat="42.79735" lon="0.12934">
        <ele>3012</ele>
        <time>2015-05-17T09:34:49Z</time>
      </trkpt>
      <trkpt lat="42.79735" lon="0.12931">
        <ele>3012</ele>
        <time>2015-05-17T09:35:08Z</time>
      </trkpt>
      <trkpt lat="42.79736" lon="0.12931">
        <ele>3012</ele>
        <time>2015-05-17T09:35:26Z</time>
      </trkpt>
      <trkpt lat="42.79736" lon="0.12932">
        <ele>3012</ele>
        <time>2015-05-17T09:35:31Z</time>
      </trkpt>
      <trkpt lat="42.79733" lon="0.12939">
        <ele>3010</ele>
        <time>2015-05-17T09:35:35Z</time>
      </trkpt>
      <trkpt lat="42.79739" lon="0.12941">
        <ele>3007</ele>
        <time>2015-05-17T09:35:39Z</time>
      </trkpt>
      <trkpt lat="42.79743" lon="0.12946">
        <ele>3003</ele>
        <time>2015-05-17T09:35:42Z</time>
      </trkpt>
      <trkpt lat="42.79748" lon="0.12952">
        <ele>2998</ele>
        <time>2015-05-17T09:35:45Z</time>
      </trkpt>
      <trkpt lat="42.79751" lon="0.1295">
        <ele>2997</ele>
        <time>2015-05-17T09:35:46Z</time>
      </trkpt>
      <trkpt lat="42.79778" lon="0.12931">
        <ele>2992</ele>
        <time>2015-05-17T09:35:52Z</time>
      </trkpt>
      <trkpt lat="42.79786" lon="0.12927">
        <ele>2989</ele>
        <time>2015-05-17T09:35:55Z</time>
      </trkpt>
      <trkpt lat="42.79789" lon="0.12925">
        <ele>2989</ele>
        <time>2015-05-17T09:36:08Z</time>
      </trkpt>
      <trkpt lat="42.79789" lon="0.12927">
        <ele>2989</ele>
        <time>2015-05-17T09:36:17Z</time>
      </trkpt>
      <trkpt lat="42.79783" lon="0.12942">
        <ele>2985</ele>
        <time>2015-05-17T09:36:22Z</time>
      </trkpt>
      <trkpt lat="42.79772" lon="0.12959">
        <ele>2982</ele>
        <time>2015-05-17T09:36:25Z</time>
      </trkpt>
      <trkpt lat="42.79768" lon="0.12965">
        <ele>2981</ele>
        <time>2015-05-17T09:36:26Z</time>
      </trkpt>
      <trkpt lat="42.79765" lon="0.12979">
        <ele>2977</ele>
        <time>2015-05-17T09:36:29Z</time>
      </trkpt>
      <trkpt lat="42.79764" lon="0.12984">
        <ele>2975</ele>
        <time>2015-05-17T09:36:30Z</time>
      </trkpt>
      <trkpt lat="42.79748" lon="0.13002">
        <ele>2973</ele>
        <time>2015-05-17T09:36:41Z</time>
      </trkpt>
      <trkpt lat="42.79752" lon="0.13002">
        <ele>2973</ele>
        <time>2015-05-17T09:36:57Z</time>
      </trkpt>
      <trkpt lat="42.79753" lon="0.13002">
        <ele>2973</ele>
        <time>2015-05-17T09:37:12Z</time>
      </trkpt>
      <trkpt lat="42.79753" lon="0.13009">
        <ele>2971</ele>
        <time>2015-05-17T09:37:24Z</time>
      </trkpt>
      <trkpt lat="42.79752" lon="0.13014">
        <ele>2969</ele>
        <time>2015-05-17T09:37:38Z</time>
      </trkpt>
      <trkpt lat="42.79749" lon="0.1302">
        <ele>2969</ele>
        <time>2015-05-17T09:37:49Z</time>
      </trkpt>
      <trkpt lat="42.79748" lon="0.13022">
        <ele>2967</ele>
        <time>2015-05-17T09:38:00Z</time>
      </trkpt>
      <trkpt lat="42.79744" lon="0.13031">
        <ele>2964</ele>
        <time>2015-05-17T09:38:16Z</time>
      </trkpt>
      <trkpt lat="42.79736" lon="0.13037">
        <ele>2963</ele>
        <time>2015-05-17T09:38:29Z</time>
      </trkpt>
      <trkpt lat="42.79732" lon="0.1304">
        <ele>2963</ele>
        <time>2015-05-17T09:38:34Z</time>
      </trkpt>
      <trkpt lat="42.79724" lon="0.13053">
        <ele>2961</ele>
        <time>2015-05-17T09:38:49Z</time>
      </trkpt>
      <trkpt lat="42.7972" lon="0.13059">
        <ele>2961</ele>
        <time>2015-05-17T09:39:02Z</time>
      </trkpt>
      <trkpt lat="42.79721" lon="0.13063">
        <ele>2958</ele>
        <time>2015-05-17T09:39:16Z</time>
      </trkpt>
      <trkpt lat="42.79721" lon="0.13065">
        <ele>2958</ele>
        <time>2015-05-17T09:39:36Z</time>
      </trkpt>
      <trkpt lat="42.79722" lon="0.1307">
        <ele>2958</ele>
        <time>2015-05-17T09:39:57Z</time>
      </trkpt>
      <trkpt lat="42.79721" lon="0.1307">
        <ele>2958</ele>
        <time>2015-05-17T09:40:14Z</time>
      </trkpt>
      <trkpt lat="42.79721" lon="0.1307">
        <ele>2958</ele>
        <time>2015-05-17T09:40:29Z</time>
      </trkpt>
      <trkpt lat="42.79722" lon="0.1307">
        <ele>2958</ele>
        <time>2015-05-17T09:40:45Z</time>
      </trkpt>
      <trkpt lat="42.79722" lon="0.13067">
        <ele>2958</ele>
        <time>2015-05-17T09:41:02Z</time>
      </trkpt>
      <trkpt lat="42.79721" lon="0.1306">
        <ele>2958</ele>
        <time>2015-05-17T09:41:30Z</time>
      </trkpt>
      <trkpt lat="42.79722" lon="0.1306">
        <ele>2958</ele>
        <time>2015-05-17T09:41:52Z</time>
      </trkpt>
      <trkpt lat="42.79728" lon="0.13065">
        <ele>2955</ele>
        <time>2015-05-17T09:41:58Z</time>
      </trkpt>
      <trkpt lat="42.79731" lon="0.13072">
        <ele>2952</ele>
        <time>2015-05-17T09:42:00Z</time>
      </trkpt>
      <trkpt lat="42.79739" lon="0.13075">
        <ele>2946</ele>
        <time>2015-05-17T09:42:03Z</time>
      </trkpt>
      <trkpt lat="42.79744" lon="0.1308">
        <ele>2943</ele>
        <time>2015-05-17T09:42:06Z</time>
      </trkpt>
      <trkpt lat="42.79749" lon="0.13079">
        <ele>2939</ele>
        <time>2015-05-17T09:42:08Z</time>
      </trkpt>
      <trkpt lat="42.79753" lon="0.1308">
        <ele>2939</ele>
        <time>2015-05-17T09:42:09Z</time>
      </trkpt>
      <trkpt lat="42.79757" lon="0.13084">
        <ele>2935</ele>
        <time>2015-05-17T09:42:10Z</time>
      </trkpt>
      <trkpt lat="42.79766" lon="0.13099">
        <ele>2931</ele>
        <time>2015-05-17T09:42:13Z</time>
      </trkpt>
      <trkpt lat="42.79776" lon="0.13103">
        <ele>2923</ele>
        <time>2015-05-17T09:42:17Z</time>
      </trkpt>
      <trkpt lat="42.7978" lon="0.13107">
        <ele>2921</ele>
        <time>2015-05-17T09:42:18Z</time>
      </trkpt>
      <trkpt lat="42.79786" lon="0.13117">
        <ele>2916</ele>
        <time>2015-05-17T09:42:21Z</time>
      </trkpt>
      <trkpt lat="42.79793" lon="0.13106">
        <ele>2911</ele>
        <time>2015-05-17T09:42:23Z</time>
      </trkpt>
      <trkpt lat="42.79797" lon="0.131">
        <ele>2910</ele>
        <time>2015-05-17T09:42:24Z</time>
      </trkpt>
      <trkpt lat="42.79816" lon="0.13072">
        <ele>2907</ele>
        <time>2015-05-17T09:42:29Z</time>
      </trkpt>
      <trkpt lat="42.79836" lon="0.13049">
        <ele>2903</ele>
        <time>2015-05-17T09:42:34Z</time>
      </trkpt>
      <trkpt lat="42.79845" lon="0.13039">
        <ele>2901</ele>
        <time>2015-05-17T09:42:37Z</time>
      </trkpt>
      <trkpt lat="42.79846" lon="0.13036">
        <ele>2900</ele>
        <time>2015-05-17T09:42:47Z</time>
      </trkpt>
      <trkpt lat="42.79852" lon="0.13033">
        <ele>2898</ele>
        <time>2015-05-17T09:42:50Z</time>
      </trkpt>
      <trkpt lat="42.79859" lon="0.1304">
        <ele>2894</ele>
        <time>2015-05-17T09:42:53Z</time>
      </trkpt>
      <trkpt lat="42.79862" lon="0.13053">
        <ele>2889</ele>
        <time>2015-05-17T09:42:56Z</time>
      </trkpt>
      <trkpt lat="42.79871" lon="0.13058">
        <ele>2884</ele>
        <time>2015-05-17T09:42:59Z</time>
      </trkpt>
      <trkpt lat="42.7988" lon="0.13057">
        <ele>2878</ele>
        <time>2015-05-17T09:43:02Z</time>
      </trkpt>
      <trkpt lat="42.79888" lon="0.13067">
        <ele>2873</ele>
        <time>2015-05-17T09:43:05Z</time>
      </trkpt>
      <trkpt lat="42.79891" lon="0.13073">
        <ele>2870</ele>
        <time>2015-05-17T09:43:06Z</time>
      </trkpt>
      <trkpt lat="42.79891" lon="0.13078">
        <ele>2868</ele>
        <time>2015-05-17T09:43:07Z</time>
      </trkpt>
      <trkpt lat="42.79898" lon="0.13081">
        <ele>2866</ele>
        <time>2015-05-17T09:43:09Z</time>
      </trkpt>
      <trkpt lat="42.799" lon="0.13081">
        <ele>2865</ele>
        <time>2015-05-17T09:43:10Z</time>
      </trkpt>
      <trkpt lat="42.79903" lon="0.13083">
        <ele>2863</ele>
        <time>2015-05-17T09:43:11Z</time>
      </trkpt>
      <trkpt lat="42.79905" lon="0.13087">
        <ele>2859</ele>
        <time>2015-05-17T09:43:14Z</time>
      </trkpt>
      <trkpt lat="42.79906" lon="0.1309">
        <ele>2856</ele>
        <time>2015-05-17T09:43:15Z</time>
      </trkpt>
      <trkpt lat="42.79911" lon="0.13093">
        <ele>2853</ele>
        <time>2015-05-17T09:43:16Z</time>
      </trkpt>
      <trkpt lat="42.79916" lon="0.13092">
        <ele>2851</ele>
        <time>2015-05-17T09:43:17Z</time>
      </trkpt>
      <trkpt lat="42.79925" lon="0.13093">
        <ele>2850</ele>
        <time>2015-05-17T09:43:19Z</time>
      </trkpt>
      <trkpt lat="42.79934" lon="0.13091">
        <ele>2849</ele>
        <time>2015-05-17T09:43:21Z</time>
      </trkpt>
      <trkpt lat="42.79924" lon="0.13093">
        <ele>2849</ele>
        <time>2015-05-17T09:43:34Z</time>
      </trkpt>
      <trkpt lat="42.79923" lon="0.13096">
        <ele>2849</ele>
        <time>2015-05-17T09:43:35Z</time>
      </trkpt>
      <trkpt lat="42.79914" lon="0.1313">
        <ele>2846</ele>
        <time>2015-05-17T09:43:42Z</time>
      </trkpt>
      <trkpt lat="42.79911" lon="0.13141">
        <ele>2845</ele>
        <time>2015-05-17T09:43:44Z</time>
      </trkpt>
      <trkpt lat="42.79902" lon="0.13173">
        <ele>2843</ele>
        <time>2015-05-17T09:43:53Z</time>
      </trkpt>
      <trkpt lat="42.79885" lon="0.13204">
        <ele>2841</ele>
        <time>2015-05-17T09:44:00Z</time>
      </trkpt>
      <trkpt lat="42.79876" lon="0.13207">
        <ele>2841</ele>
        <time>2015-05-17T09:44:10Z</time>
      </trkpt>
      <trkpt lat="42.79866" lon="0.13203">
        <ele>2842</ele>
        <time>2015-05-17T09:44:18Z</time>
      </trkpt>
      <trkpt lat="42.79848" lon="0.13209">
        <ele>2839</ele>
        <time>2015-05-17T09:44:24Z</time>
      </trkpt>
      <trkpt lat="42.79848" lon="0.13221">
        <ele>2833</ele>
        <time>2015-05-17T09:44:29Z</time>
      </trkpt>
      <trkpt lat="42.7985" lon="0.13224">
        <ele>2829</ele>
        <time>2015-05-17T09:44:31Z</time>
      </trkpt>
      <trkpt lat="42.7985" lon="0.13236">
        <ele>2824</ele>
        <time>2015-05-17T09:44:35Z</time>
      </trkpt>
      <trkpt lat="42.79849" lon="0.13248">
        <ele>2821</ele>
        <time>2015-05-17T09:44:37Z</time>
      </trkpt>
      <trkpt lat="42.79849" lon="0.13255">
        <ele>2821</ele>
        <time>2015-05-17T09:44:38Z</time>
      </trkpt>
      <trkpt lat="42.79861" lon="0.13276">
        <ele>2819</ele>
        <time>2015-05-17T09:44:42Z</time>
      </trkpt>
      <trkpt lat="42.79862" lon="0.13281">
        <ele>2817</ele>
        <time>2015-05-17T09:44:43Z</time>
      </trkpt>
      <trkpt lat="42.79861" lon="0.13291">
        <ele>2817</ele>
        <time>2015-05-17T09:44:45Z</time>
      </trkpt>
      <trkpt lat="42.79849" lon="0.13331">
        <ele>2814</ele>
        <time>2015-05-17T09:44:54Z</time>
      </trkpt>
      <trkpt lat="42.79857" lon="0.13341">
        <ele>2809</ele>
        <time>2015-05-17T09:44:57Z</time>
      </trkpt>
      <trkpt lat="42.79861" lon="0.13345">
        <ele>2806</ele>
        <time>2015-05-17T09:44:58Z</time>
      </trkpt>
      <trkpt lat="42.7987" lon="0.13355">
        <ele>2801</ele>
        <time>2015-05-17T09:45:00Z</time>
      </trkpt>
      <trkpt lat="42.79875" lon="0.13357">
        <ele>2798</ele>
        <time>2015-05-17T09:45:01Z</time>
      </trkpt>
      <trkpt lat="42.79865" lon="0.13358">
        <ele>2792</ele>
        <time>2015-05-17T09:45:03Z</time>
      </trkpt>
      <trkpt lat="42.79861" lon="0.13363">
        <ele>2791</ele>
        <time>2015-05-17T09:45:04Z</time>
      </trkpt>
      <trkpt lat="42.79859" lon="0.13368">
        <ele>2788</ele>
        <time>2015-05-17T09:45:05Z</time>
      </trkpt>
      <trkpt lat="42.79856" lon="0.13368">
        <ele>2785</ele>
        <time>2015-05-17T09:45:07Z</time>
      </trkpt>
      <trkpt lat="42.79859" lon="0.13361">
        <ele>2780</ele>
        <time>2015-05-17T09:45:09Z</time>
      </trkpt>
      <trkpt lat="42.79877" lon="0.13364">
        <ele>2772</ele>
        <time>2015-05-17T09:45:13Z</time>
      </trkpt>
      <trkpt lat="42.79885" lon="0.13359">
        <ele>2768</ele>
        <time>2015-05-17T09:45:15Z</time>
      </trkpt>
      <trkpt lat="42.79895" lon="0.13353">
        <ele>2765</ele>
        <time>2015-05-17T09:45:17Z</time>
      </trkpt>
      <trkpt lat="42.79901" lon="0.13353">
        <ele>2762</ele>
        <time>2015-05-17T09:45:18Z</time>
      </trkpt>
      <trkpt lat="42.79906" lon="0.13357">
        <ele>2759</ele>
        <time>2015-05-17T09:45:19Z</time>
      </trkpt>
      <trkpt lat="42.79914" lon="0.13359">
        <ele>2758</ele>
        <time>2015-05-17T09:45:20Z</time>
      </trkpt>
      <trkpt lat="42.79928" lon="0.13364">
        <ele>2751</ele>
        <time>2015-05-17T09:45:23Z</time>
      </trkpt>
      <trkpt lat="42.79942" lon="0.13372">
        <ele>2744</ele>
        <time>2015-05-17T09:45:26Z</time>
      </trkpt>
      <trkpt lat="42.79948" lon="0.13377">
        <ele>2741</ele>
        <time>2015-05-17T09:45:27Z</time>
      </trkpt>
      <trkpt lat="42.79951" lon="0.13378">
        <ele>2738</ele>
        <time>2015-05-17T09:45:28Z</time>
      </trkpt>
      <trkpt lat="42.79966" lon="0.13394">
        <ele>2731</ele>
        <time>2015-05-17T09:45:31Z</time>
      </trkpt>
      <trkpt lat="42.79973" lon="0.13401">
        <ele>2729</ele>
        <time>2015-05-17T09:45:32Z</time>
      </trkpt>
      <trkpt lat="42.79978" lon="0.13416">
        <ele>2727</ele>
        <time>2015-05-17T09:45:34Z</time>
      </trkpt>
      <trkpt lat="42.79982" lon="0.1342">
        <ele>2726</ele>
        <time>2015-05-17T09:45:35Z</time>
      </trkpt>
      <trkpt lat="42.79984" lon="0.1342">
        <ele>2727</ele>
        <time>2015-05-17T09:45:41Z</time>
      </trkpt>
      <trkpt lat="42.79986" lon="0.13438">
        <ele>2725</ele>
        <time>2015-05-17T09:45:46Z</time>
      </trkpt>
      <trkpt lat="42.79986" lon="0.13458">
        <ele>2721</ele>
        <time>2015-05-17T09:45:50Z</time>
      </trkpt>
      <trkpt lat="42.79986" lon="0.13461">
        <ele>2720</ele>
        <time>2015-05-17T09:45:51Z</time>
      </trkpt>
      <trkpt lat="42.79991" lon="0.13467">
        <ele>2716</ele>
        <time>2015-05-17T09:45:53Z</time>
      </trkpt>
      <trkpt lat="42.79995" lon="0.13467">
        <ele>2713</ele>
        <time>2015-05-17T09:45:54Z</time>
      </trkpt>
      <trkpt lat="42.79999" lon="0.13465">
        <ele>2712</ele>
        <time>2015-05-17T09:45:55Z</time>
      </trkpt>
      <trkpt lat="42.80008" lon="0.13462">
        <ele>2708</ele>
        <time>2015-05-17T09:45:57Z</time>
      </trkpt>
      <trkpt lat="42.8002" lon="0.13469">
        <ele>2705</ele>
        <time>2015-05-17T09:45:59Z</time>
      </trkpt>
      <trkpt lat="42.8002" lon="0.13485">
        <ele>2701</ele>
        <time>2015-05-17T09:46:02Z</time>
      </trkpt>
      <trkpt lat="42.80021" lon="0.13491">
        <ele>2696</ele>
        <time>2015-05-17T09:46:04Z</time>
      </trkpt>
      <trkpt lat="42.8003" lon="0.13499">
        <ele>2691</ele>
        <time>2015-05-17T09:46:06Z</time>
      </trkpt>
      <trkpt lat="42.80034" lon="0.13504">
        <ele>2688</ele>
        <time>2015-05-17T09:46:07Z</time>
      </trkpt>
      <trkpt lat="42.80041" lon="0.13513">
        <ele>2683</ele>
        <time>2015-05-17T09:46:11Z</time>
      </trkpt>
      <trkpt lat="42.80041" lon="0.13511">
        <ele>2681</ele>
        <time>2015-05-17T09:46:13Z</time>
      </trkpt>
      <trkpt lat="42.80034" lon="0.1351">
        <ele>2682</ele>
        <time>2015-05-17T09:46:28Z</time>
      </trkpt>
      <trkpt lat="42.80047" lon="0.13508">
        <ele>2678</ele>
        <time>2015-05-17T09:46:33Z</time>
      </trkpt>
      <trkpt lat="42.80049" lon="0.13513">
        <ele>2677</ele>
        <time>2015-05-17T09:46:34Z</time>
      </trkpt>
      <trkpt lat="42.80054" lon="0.13521">
        <ele>2675</ele>
        <time>2015-05-17T09:46:36Z</time>
      </trkpt>
      <trkpt lat="42.80056" lon="0.13525">
        <ele>2670</ele>
        <time>2015-05-17T09:46:39Z</time>
      </trkpt>
      <trkpt lat="42.8006" lon="0.13528">
        <ele>2667</ele>
        <time>2015-05-17T09:46:40Z</time>
      </trkpt>
      <trkpt lat="42.80063" lon="0.13534">
        <ele>2663</ele>
        <time>2015-05-17T09:46:42Z</time>
      </trkpt>
      <trkpt lat="42.80067" lon="0.13533">
        <ele>2661</ele>
        <time>2015-05-17T09:46:44Z</time>
      </trkpt>
      <trkpt lat="42.80079" lon="0.13537">
        <ele>2655</ele>
        <time>2015-05-17T09:46:46Z</time>
      </trkpt>
      <trkpt lat="42.80082" lon="0.13536">
        <ele>2651</ele>
        <time>2015-05-17T09:46:48Z</time>
      </trkpt>
      <trkpt lat="42.80086" lon="0.13541">
        <ele>2649</ele>
        <time>2015-05-17T09:46:50Z</time>
      </trkpt>
      <trkpt lat="42.80093" lon="0.13546">
        <ele>2644</ele>
        <time>2015-05-17T09:46:53Z</time>
      </trkpt>
      <trkpt lat="42.80096" lon="0.1355">
        <ele>2642</ele>
        <time>2015-05-17T09:46:54Z</time>
      </trkpt>
      <trkpt lat="42.80106" lon="0.13567">
        <ele>2635</ele>
        <time>2015-05-17T09:46:58Z</time>
      </trkpt>
      <trkpt lat="42.80108" lon="0.13565">
        <ele>2631</ele>
        <time>2015-05-17T09:47:00Z</time>
      </trkpt>
      <trkpt lat="42.8011" lon="0.13565">
        <ele>2629</ele>
        <time>2015-05-17T09:47:01Z</time>
      </trkpt>
      <trkpt lat="42.8011" lon="0.13566">
        <ele>2627</ele>
        <time>2015-05-17T09:47:02Z</time>
      </trkpt>
      <trkpt lat="42.80111" lon="0.13569">
        <ele>2625</ele>
        <time>2015-05-17T09:47:03Z</time>
      </trkpt>
      <trkpt lat="42.80115" lon="0.13575">
        <ele>2624</ele>
        <time>2015-05-17T09:47:04Z</time>
      </trkpt>
      <trkpt lat="42.80124" lon="0.13576">
        <ele>2619</ele>
        <time>2015-05-17T09:47:06Z</time>
      </trkpt>
      <trkpt lat="42.80136" lon="0.13582">
        <ele>2614</ele>
        <time>2015-05-17T09:47:08Z</time>
      </trkpt>
      <trkpt lat="42.80141" lon="0.13589">
        <ele>2612</ele>
        <time>2015-05-17T09:47:09Z</time>
      </trkpt>
      <trkpt lat="42.80145" lon="0.13596">
        <ele>2610</ele>
        <time>2015-05-17T09:47:10Z</time>
      </trkpt>
      <trkpt lat="42.80148" lon="0.13599">
        <ele>2604</ele>
        <time>2015-05-17T09:47:13Z</time>
      </trkpt>
      <trkpt lat="42.80149" lon="0.13598">
        <ele>2604</ele>
        <time>2015-05-17T09:47:14Z</time>
      </trkpt>
      <trkpt lat="42.80144" lon="0.13597">
        <ele>2606</ele>
        <time>2015-05-17T09:47:22Z</time>
      </trkpt>
      <trkpt lat="42.80143" lon="0.13585">
        <ele>2608</ele>
        <time>2015-05-17T09:47:47Z</time>
      </trkpt>
      <trkpt lat="42.80128" lon="0.13587">
        <ele>2608</ele>
        <time>2015-05-17T09:48:00Z</time>
      </trkpt>
      <trkpt lat="42.80136" lon="0.13583">
        <ele>2605</ele>
        <time>2015-05-17T09:48:06Z</time>
      </trkpt>
      <trkpt lat="42.80146" lon="0.13591">
        <ele>2600</ele>
        <time>2015-05-17T09:48:09Z</time>
      </trkpt>
      <trkpt lat="42.80149" lon="0.13597">
        <ele>2595</ele>
        <time>2015-05-17T09:48:12Z</time>
      </trkpt>
      <trkpt lat="42.80158" lon="0.13601">
        <ele>2589</ele>
        <time>2015-05-17T09:48:14Z</time>
      </trkpt>
      <trkpt lat="42.80167" lon="0.13616">
        <ele>2587</ele>
        <time>2015-05-17T09:48:17Z</time>
      </trkpt>
      <trkpt lat="42.80171" lon="0.13622">
        <ele>2587</ele>
        <time>2015-05-17T09:48:22Z</time>
      </trkpt>
      <trkpt lat="42.8018" lon="0.1362">
        <ele>2581</ele>
        <time>2015-05-17T09:48:26Z</time>
      </trkpt>
      <trkpt lat="42.80194" lon="0.13631">
        <ele>2575</ele>
        <time>2015-05-17T09:48:29Z</time>
      </trkpt>
      <trkpt lat="42.80198" lon="0.1364">
        <ele>2572</ele>
        <time>2015-05-17T09:48:30Z</time>
      </trkpt>
      <trkpt lat="42.80203" lon="0.13655">
        <ele>2572</ele>
        <time>2015-05-17T09:48:32Z</time>
      </trkpt>
      <trkpt lat="42.80209" lon="0.13676">
        <ele>2570</ele>
        <time>2015-05-17T09:48:35Z</time>
      </trkpt>
      <trkpt lat="42.80229" lon="0.13708">
        <ele>2568</ele>
        <time>2015-05-17T09:48:42Z</time>
      </trkpt>
      <trkpt lat="42.80243" lon="0.13735">
        <ele>2567</ele>
        <time>2015-05-17T09:48:49Z</time>
      </trkpt>
      <trkpt lat="42.80226" lon="0.13731">
        <ele>2568</ele>
        <time>2015-05-17T09:48:59Z</time>
      </trkpt>
      <trkpt lat="42.80225" lon="0.1373">
        <ele>2567</ele>
        <time>2015-05-17T09:49:00Z</time>
      </trkpt>
      <trkpt lat="42.80221" lon="0.13754">
        <ele>2565</ele>
        <time>2015-05-17T09:49:10Z</time>
      </trkpt>
      <trkpt lat="42.80222" lon="0.13746">
        <ele>2559</ele>
        <time>2015-05-17T09:49:13Z</time>
      </trkpt>
      <trkpt lat="42.8023" lon="0.13745">
        <ele>2555</ele>
        <time>2015-05-17T09:49:15Z</time>
      </trkpt>
      <trkpt lat="42.80233" lon="0.13742">
        <ele>2551</ele>
        <time>2015-05-17T09:49:16Z</time>
      </trkpt>
      <trkpt lat="42.80241" lon="0.1374">
        <ele>2547</ele>
        <time>2015-05-17T09:49:18Z</time>
      </trkpt>
      <trkpt lat="42.80251" lon="0.13737">
        <ele>2541</ele>
        <time>2015-05-17T09:49:20Z</time>
      </trkpt>
      <trkpt lat="42.8026" lon="0.13731">
        <ele>2538</ele>
        <time>2015-05-17T09:49:22Z</time>
      </trkpt>
      <trkpt lat="42.80264" lon="0.13733">
        <ele>2534</ele>
        <time>2015-05-17T09:49:23Z</time>
      </trkpt>
      <trkpt lat="42.80276" lon="0.13731">
        <ele>2529</ele>
        <time>2015-05-17T09:49:25Z</time>
      </trkpt>
      <trkpt lat="42.80286" lon="0.13719">
        <ele>2525</ele>
        <time>2015-05-17T09:49:27Z</time>
      </trkpt>
      <trkpt lat="42.80289" lon="0.13713">
        <ele>2524</ele>
        <time>2015-05-17T09:49:28Z</time>
      </trkpt>
      <trkpt lat="42.80293" lon="0.13708">
        <ele>2522</ele>
        <time>2015-05-17T09:49:29Z</time>
      </trkpt>
      <trkpt lat="42.80296" lon="0.13704">
        <ele>2520</ele>
        <time>2015-05-17T09:49:30Z</time>
      </trkpt>
      <trkpt lat="42.80299" lon="0.13703">
        <ele>2517</ele>
        <time>2015-05-17T09:49:31Z</time>
      </trkpt>
      <trkpt lat="42.80305" lon="0.137">
        <ele>2514</ele>
        <time>2015-05-17T09:49:32Z</time>
      </trkpt>
      <trkpt lat="42.80309" lon="0.13698">
        <ele>2511</ele>
        <time>2015-05-17T09:49:33Z</time>
      </trkpt>
      <trkpt lat="42.80311" lon="0.13697">
        <ele>2511</ele>
        <time>2015-05-17T09:49:34Z</time>
      </trkpt>
      <trkpt lat="42.80314" lon="0.13697">
        <ele>2508</ele>
        <time>2015-05-17T09:49:35Z</time>
      </trkpt>
      <trkpt lat="42.80329" lon="0.13709">
        <ele>2503</ele>
        <time>2015-05-17T09:49:37Z</time>
      </trkpt>
      <trkpt lat="42.80334" lon="0.13703">
        <ele>2498</ele>
        <time>2015-05-17T09:49:39Z</time>
      </trkpt>
      <trkpt lat="42.80336" lon="0.13701">
        <ele>2497</ele>
        <time>2015-05-17T09:49:40Z</time>
      </trkpt>
      <trkpt lat="42.80337" lon="0.137">
        <ele>2493</ele>
        <time>2015-05-17T09:49:42Z</time>
      </trkpt>
      <trkpt lat="42.80347" lon="0.13704">
        <ele>2489</ele>
        <time>2015-05-17T09:49:44Z</time>
      </trkpt>
      <trkpt lat="42.80353" lon="0.13704">
        <ele>2488</ele>
        <time>2015-05-17T09:49:46Z</time>
      </trkpt>
      <trkpt lat="42.80372" lon="0.1371">
        <ele>2487</ele>
        <time>2015-05-17T09:49:59Z</time>
      </trkpt>
      <trkpt lat="42.80373" lon="0.13715">
        <ele>2487</ele>
        <time>2015-05-17T09:50:00Z</time>
      </trkpt>
      <trkpt lat="42.80387" lon="0.13726">
        <ele>2481</ele>
        <time>2015-05-17T09:50:04Z</time>
      </trkpt>
      <trkpt lat="42.80397" lon="0.13731">
        <ele>2477</ele>
        <time>2015-05-17T09:50:06Z</time>
      </trkpt>
      <trkpt lat="42.80401" lon="0.13752">
        <ele>2474</ele>
        <time>2015-05-17T09:50:09Z</time>
      </trkpt>
      <trkpt lat="42.80401" lon="0.13783">
        <ele>2470</ele>
        <time>2015-05-17T09:50:12Z</time>
      </trkpt>
      <trkpt lat="42.80403" lon="0.13815">
        <ele>2466</ele>
        <time>2015-05-17T09:50:15Z</time>
      </trkpt>
      <trkpt lat="42.8041" lon="0.13858">
        <ele>2463</ele>
        <time>2015-05-17T09:50:21Z</time>
      </trkpt>
      <trkpt lat="42.80411" lon="0.13865">
        <ele>2462</ele>
        <time>2015-05-17T09:50:22Z</time>
      </trkpt>
      <trkpt lat="42.80415" lon="0.13892">
        <ele>2460</ele>
        <time>2015-05-17T09:50:27Z</time>
      </trkpt>
      <trkpt lat="42.8042" lon="0.13926">
        <ele>2457</ele>
        <time>2015-05-17T09:50:32Z</time>
      </trkpt>
      <trkpt lat="42.80424" lon="0.13943">
        <ele>2454</ele>
        <time>2015-05-17T09:50:34Z</time>
      </trkpt>
      <trkpt lat="42.80426" lon="0.13951">
        <ele>2454</ele>
        <time>2015-05-17T09:50:35Z</time>
      </trkpt>
      <trkpt lat="42.80431" lon="0.13989">
        <ele>2451</ele>
        <time>2015-05-17T09:50:43Z</time>
      </trkpt>
      <trkpt lat="42.80432" lon="0.14004">
        <ele>2451</ele>
        <time>2015-05-17T09:50:54Z</time>
      </trkpt>
      <trkpt lat="42.80428" lon="0.14006">
        <ele>2452</ele>
        <time>2015-05-17T09:51:13Z</time>
      </trkpt>
      <trkpt lat="42.80425" lon="0.14005">
        <ele>2452</ele>
        <time>2015-05-17T09:51:26Z</time>
      </trkpt>
      <trkpt lat="42.80413" lon="0.13999">
        <ele>2452</ele>
        <time>2015-05-17T09:51:39Z</time>
      </trkpt>
      <trkpt lat="42.80415" lon="0.13998">
        <ele>2452</ele>
        <time>2015-05-17T09:51:44Z</time>
      </trkpt>
      <trkpt lat="42.80416" lon="0.14">
        <ele>2451</ele>
        <time>2015-05-17T09:51:46Z</time>
      </trkpt>
      <trkpt lat="42.80417" lon="0.14006">
        <ele>2449</ele>
        <time>2015-05-17T09:51:54Z</time>
      </trkpt>
      <trkpt lat="42.80422" lon="0.14014">
        <ele>2446</ele>
        <time>2015-05-17T09:52:06Z</time>
      </trkpt>
      <trkpt lat="42.80422" lon="0.14021">
        <ele>2446</ele>
        <time>2015-05-17T09:52:15Z</time>
      </trkpt>
      <trkpt lat="42.80422" lon="0.14024">
        <ele>2445</ele>
        <time>2015-05-17T09:52:18Z</time>
      </trkpt>
      <trkpt lat="42.80422" lon="0.14029">
        <ele>2445</ele>
        <time>2015-05-17T09:52:24Z</time>
      </trkpt>
      <trkpt lat="42.80423" lon="0.14036">
        <ele>2445</ele>
        <time>2015-05-17T09:52:30Z</time>
      </trkpt>
      <trkpt lat="42.80421" lon="0.14043">
        <ele>2444</ele>
        <time>2015-05-17T09:52:41Z</time>
      </trkpt>
      <trkpt lat="42.80421" lon="0.14052">
        <ele>2445</ele>
        <time>2015-05-17T09:52:52Z</time>
      </trkpt>
      <trkpt lat="42.80415" lon="0.1406">
        <ele>2445</ele>
        <time>2015-05-17T09:53:01Z</time>
      </trkpt>
      <trkpt lat="42.80413" lon="0.14061">
        <ele>2445</ele>
        <time>2015-05-17T09:53:03Z</time>
      </trkpt>
      <trkpt lat="42.80406" lon="0.14067">
        <ele>2445</ele>
        <time>2015-05-17T09:53:15Z</time>
      </trkpt>
      <trkpt lat="42.80402" lon="0.14073">
        <ele>2446</ele>
        <time>2015-05-17T09:53:25Z</time>
      </trkpt>
      <trkpt lat="42.80394" lon="0.14079">
        <ele>2446</ele>
        <time>2015-05-17T09:53:38Z</time>
      </trkpt>
      <trkpt lat="42.80393" lon="0.14081">
        <ele>2446</ele>
        <time>2015-05-17T09:53:50Z</time>
      </trkpt>
      <trkpt lat="42.80393" lon="0.14078">
        <ele>2446</ele>
        <time>2015-05-17T09:54:06Z</time>
      </trkpt>
      <trkpt lat="42.80394" lon="0.14077">
        <ele>2445</ele>
        <time>2015-05-17T09:54:28Z</time>
      </trkpt>
      <trkpt lat="42.80393" lon="0.14077">
        <ele>2445</ele>
        <time>2015-05-17T09:54:39Z</time>
      </trkpt>
      <trkpt lat="42.80388" lon="0.14093">
        <ele>2444</ele>
        <time>2015-05-17T09:54:45Z</time>
      </trkpt>
      <trkpt lat="42.80383" lon="0.14112">
        <ele>2441</ele>
        <time>2015-05-17T09:54:48Z</time>
      </trkpt>
      <trkpt lat="42.80373" lon="0.14147">
        <ele>2438</ele>
        <time>2015-05-17T09:54:54Z</time>
      </trkpt>
      <trkpt lat="42.80369" lon="0.14157">
        <ele>2438</ele>
        <time>2015-05-17T09:54:56Z</time>
      </trkpt>
      <trkpt lat="42.80366" lon="0.14173">
        <ele>2436</ele>
        <time>2015-05-17T09:54:59Z</time>
      </trkpt>
      <trkpt lat="42.80361" lon="0.14196">
        <ele>2433</ele>
        <time>2015-05-17T09:55:03Z</time>
      </trkpt>
      <trkpt lat="42.80358" lon="0.14214">
        <ele>2431</ele>
        <time>2015-05-17T09:55:06Z</time>
      </trkpt>
      <trkpt lat="42.80355" lon="0.14233">
        <ele>2429</ele>
        <time>2015-05-17T09:55:09Z</time>
      </trkpt>
      <trkpt lat="42.80353" lon="0.14258">
        <ele>2426</ele>
        <time>2015-05-17T09:55:13Z</time>
      </trkpt>
      <trkpt lat="42.80352" lon="0.14267">
        <ele>2425</ele>
        <time>2015-05-17T09:55:15Z</time>
      </trkpt>
      <trkpt lat="42.80351" lon="0.14283">
        <ele>2421</ele>
        <time>2015-05-17T09:55:21Z</time>
      </trkpt>
      <trkpt lat="42.8035" lon="0.14283">
        <ele>2421</ele>
        <time>2015-05-17T09:55:22Z</time>
      </trkpt>
      <trkpt lat="42.80352" lon="0.14282">
        <ele>2420</ele>
        <time>2015-05-17T09:55:27Z</time>
      </trkpt>
      <trkpt lat="42.80367" lon="0.14273">
        <ele>2417</ele>
        <time>2015-05-17T09:55:31Z</time>
      </trkpt>
      <trkpt lat="42.8038" lon="0.14262">
        <ele>2414</ele>
        <time>2015-05-17T09:55:34Z</time>
      </trkpt>
      <trkpt lat="42.80386" lon="0.1426">
        <ele>2413</ele>
        <time>2015-05-17T09:55:35Z</time>
      </trkpt>
      <trkpt lat="42.80394" lon="0.14273">
        <ele>2409</ele>
        <time>2015-05-17T09:55:38Z</time>
      </trkpt>
      <trkpt lat="42.80404" lon="0.1428">
        <ele>2405</ele>
        <time>2015-05-17T09:55:40Z</time>
      </trkpt>
      <trkpt lat="42.80411" lon="0.14279">
        <ele>2403</ele>
        <time>2015-05-17T09:55:41Z</time>
      </trkpt>
      <trkpt lat="42.80424" lon="0.14281">
        <ele>2399</ele>
        <time>2015-05-17T09:55:43Z</time>
      </trkpt>
      <trkpt lat="42.80422" lon="0.1431">
        <ele>2395</ele>
        <time>2015-05-17T09:55:47Z</time>
      </trkpt>
      <trkpt lat="42.80417" lon="0.14319">
        <ele>2395</ele>
        <time>2015-05-17T09:55:49Z</time>
      </trkpt>
      <trkpt lat="42.80405" lon="0.14332">
        <ele>2396</ele>
        <time>2015-05-17T09:56:00Z</time>
      </trkpt>
      <trkpt lat="42.80398" lon="0.14339">
        <ele>2397</ele>
        <time>2015-05-17T09:56:12Z</time>
      </trkpt>
      <trkpt lat="42.80394" lon="0.14342">
        <ele>2398</ele>
        <time>2015-05-17T09:56:18Z</time>
      </trkpt>
      <trkpt lat="42.80389" lon="0.14353">
        <ele>2397</ele>
        <time>2015-05-17T09:56:32Z</time>
      </trkpt>
      <trkpt lat="42.80386" lon="0.14355">
        <ele>2396</ele>
        <time>2015-05-17T09:56:41Z</time>
      </trkpt>
      <trkpt lat="42.80385" lon="0.14363">
        <ele>2396</ele>
        <time>2015-05-17T09:56:44Z</time>
      </trkpt>
      <trkpt lat="42.80392" lon="0.1438">
        <ele>2391</ele>
        <time>2015-05-17T09:56:48Z</time>
      </trkpt>
      <trkpt lat="42.80403" lon="0.14397">
        <ele>2385</ele>
        <time>2015-05-17T09:56:51Z</time>
      </trkpt>
      <trkpt lat="42.80405" lon="0.14404">
        <ele>2384</ele>
        <time>2015-05-17T09:56:52Z</time>
      </trkpt>
      <trkpt lat="42.80407" lon="0.14409">
        <ele>2384</ele>
        <time>2015-05-17T09:56:53Z</time>
      </trkpt>
      <trkpt lat="42.80414" lon="0.14412">
        <ele>2381</ele>
        <time>2015-05-17T09:56:55Z</time>
      </trkpt>
      <trkpt lat="42.80423" lon="0.14417">
        <ele>2376</ele>
        <time>2015-05-17T09:56:57Z</time>
      </trkpt>
      <trkpt lat="42.80428" lon="0.14428">
        <ele>2375</ele>
        <time>2015-05-17T09:56:59Z</time>
      </trkpt>
      <trkpt lat="42.80434" lon="0.14441">
        <ele>2373</ele>
        <time>2015-05-17T09:57:01Z</time>
      </trkpt>
      <trkpt lat="42.80436" lon="0.14447">
        <ele>2372</ele>
        <time>2015-05-17T09:57:02Z</time>
      </trkpt>
      <trkpt lat="42.8046" lon="0.14481">
        <ele>2368</ele>
        <time>2015-05-17T09:57:07Z</time>
      </trkpt>
      <trkpt lat="42.80477" lon="0.14501">
        <ele>2365</ele>
        <time>2015-05-17T09:57:10Z</time>
      </trkpt>
      <trkpt lat="42.80485" lon="0.14508">
        <ele>2364</ele>
        <time>2015-05-17T09:57:11Z</time>
      </trkpt>
      <trkpt lat="42.80491" lon="0.14509">
        <ele>2361</ele>
        <time>2015-05-17T09:57:12Z</time>
      </trkpt>
      <trkpt lat="42.80499" lon="0.14509">
        <ele>2358</ele>
        <time>2015-05-17T09:57:13Z</time>
      </trkpt>
      <trkpt lat="42.80513" lon="0.14505">
        <ele>2355</ele>
        <time>2015-05-17T09:57:15Z</time>
      </trkpt>
      <trkpt lat="42.8052" lon="0.14503">
        <ele>2351</ele>
        <time>2015-05-17T09:57:16Z</time>
      </trkpt>
      <trkpt lat="42.80534" lon="0.14501">
        <ele>2346</ele>
        <time>2015-05-17T09:57:18Z</time>
      </trkpt>
      <trkpt lat="42.80549" lon="0.14493">
        <ele>2340</ele>
        <time>2015-05-17T09:57:20Z</time>
      </trkpt>
      <trkpt lat="42.80564" lon="0.14485">
        <ele>2337</ele>
        <time>2015-05-17T09:57:22Z</time>
      </trkpt>
      <trkpt lat="42.8058" lon="0.14482">
        <ele>2332</ele>
        <time>2015-05-17T09:57:24Z</time>
      </trkpt>
      <trkpt lat="42.80588" lon="0.14479">
        <ele>2330</ele>
        <time>2015-05-17T09:57:25Z</time>
      </trkpt>
      <trkpt lat="42.80603" lon="0.1447">
        <ele>2324</ele>
        <time>2015-05-17T09:57:27Z</time>
      </trkpt>
      <trkpt lat="42.80611" lon="0.14469">
        <ele>2323</ele>
        <time>2015-05-17T09:57:28Z</time>
      </trkpt>
      <trkpt lat="42.80619" lon="0.14468">
        <ele>2319</ele>
        <time>2015-05-17T09:57:29Z</time>
      </trkpt>
      <trkpt lat="42.80624" lon="0.14468">
        <ele>2318</ele>
        <time>2015-05-17T09:57:30Z</time>
      </trkpt>
      <trkpt lat="42.80632" lon="0.14464">
        <ele>2317</ele>
        <time>2015-05-17T09:57:31Z</time>
      </trkpt>
      <trkpt lat="42.80647" lon="0.14459">
        <ele>2314</ele>
        <time>2015-05-17T09:57:33Z</time>
      </trkpt>
      <trkpt lat="42.80667" lon="0.14468">
        <ele>2310</ele>
        <time>2015-05-17T09:57:35Z</time>
      </trkpt>
      <trkpt lat="42.80681" lon="0.14465">
        <ele>2307</ele>
        <time>2015-05-17T09:57:37Z</time>
      </trkpt>
      <trkpt lat="42.80702" lon="0.14458">
        <ele>2303</ele>
        <time>2015-05-17T09:57:40Z</time>
      </trkpt>
      <trkpt lat="42.80721" lon="0.14452">
        <ele>2298</ele>
        <time>2015-05-17T09:57:43Z</time>
      </trkpt>
      <trkpt lat="42.8074" lon="0.14451">
        <ele>2295</ele>
        <time>2015-05-17T09:57:46Z</time>
      </trkpt>
      <trkpt lat="42.80753" lon="0.14432">
        <ele>2290</ele>
        <time>2015-05-17T09:57:49Z</time>
      </trkpt>
      <trkpt lat="42.80763" lon="0.14432">
        <ele>2288</ele>
        <time>2015-05-17T09:57:51Z</time>
      </trkpt>
      <trkpt lat="42.80775" lon="0.14433">
        <ele>2287</ele>
        <time>2015-05-17T09:57:54Z</time>
      </trkpt>
      <trkpt lat="42.80779" lon="0.14423">
        <ele>2283</ele>
        <time>2015-05-17T09:57:57Z</time>
      </trkpt>
      <trkpt lat="42.80779" lon="0.14424">
        <ele>2282</ele>
        <time>2015-05-17T09:57:58Z</time>
      </trkpt>
      <trkpt lat="42.8077" lon="0.14425">
        <ele>2283</ele>
        <time>2015-05-17T09:58:13Z</time>
      </trkpt>
      <trkpt lat="42.80751" lon="0.14427">
        <ele>2284</ele>
        <time>2015-05-17T09:58:35Z</time>
      </trkpt>
      <trkpt lat="42.80744" lon="0.14429">
        <ele>2284</ele>
        <time>2015-05-17T09:58:51Z</time>
      </trkpt>
      <trkpt lat="42.80758" lon="0.14414">
        <ele>2279</ele>
        <time>2015-05-17T09:58:56Z</time>
      </trkpt>
      <trkpt lat="42.80764" lon="0.14411">
        <ele>2276</ele>
        <time>2015-05-17T09:58:57Z</time>
      </trkpt>
      <trkpt lat="42.80769" lon="0.14409">
        <ele>2275</ele>
        <time>2015-05-17T09:58:58Z</time>
      </trkpt>
      <trkpt lat="42.80794" lon="0.1439">
        <ele>2268</ele>
        <time>2015-05-17T09:59:03Z</time>
      </trkpt>
      <trkpt lat="42.80801" lon="0.14383">
        <ele>2265</ele>
        <time>2015-05-17T09:59:05Z</time>
      </trkpt>
      <trkpt lat="42.80809" lon="0.14377">
        <ele>2262</ele>
        <time>2015-05-17T09:59:07Z</time>
      </trkpt>
      <trkpt lat="42.8082" lon="0.14383">
        <ele>2258</ele>
        <time>2015-05-17T09:59:10Z</time>
      </trkpt>
      <trkpt lat="42.80827" lon="0.14379">
        <ele>2253</ele>
        <time>2015-05-17T09:59:12Z</time>
      </trkpt>
      <trkpt lat="42.80831" lon="0.14378">
        <ele>2250</ele>
        <time>2015-05-17T09:59:13Z</time>
      </trkpt>
      <trkpt lat="42.80841" lon="0.1439">
        <ele>2246</ele>
        <time>2015-05-17T09:59:16Z</time>
      </trkpt>
      <trkpt lat="42.80841" lon="0.14403">
        <ele>2245</ele>
        <time>2015-05-17T09:59:18Z</time>
      </trkpt>
      <trkpt lat="42.80843" lon="0.14433">
        <ele>2241</ele>
        <time>2015-05-17T09:59:22Z</time>
      </trkpt>
      <trkpt lat="42.80843" lon="0.14441">
        <ele>2241</ele>
        <time>2015-05-17T09:59:23Z</time>
      </trkpt>
      <trkpt lat="42.80848" lon="0.14461">
        <ele>2240</ele>
        <time>2015-05-17T09:59:26Z</time>
      </trkpt>
      <trkpt lat="42.8086" lon="0.14481">
        <ele>2237</ele>
        <time>2015-05-17T09:59:30Z</time>
      </trkpt>
      <trkpt lat="42.80881" lon="0.14495">
        <ele>2233</ele>
        <time>2015-05-17T09:59:34Z</time>
      </trkpt>
      <trkpt lat="42.80898" lon="0.14499">
        <ele>2231</ele>
        <time>2015-05-17T09:59:37Z</time>
      </trkpt>
      <trkpt lat="42.80923" lon="0.14515">
        <ele>2228</ele>
        <time>2015-05-17T09:59:42Z</time>
      </trkpt>
      <trkpt lat="42.80932" lon="0.14522">
        <ele>2226</ele>
        <time>2015-05-17T09:59:44Z</time>
      </trkpt>
      <trkpt lat="42.80943" lon="0.14531">
        <ele>2226</ele>
        <time>2015-05-17T09:59:47Z</time>
      </trkpt>
      <trkpt lat="42.80962" lon="0.1453">
        <ele>2223</ele>
        <time>2015-05-17T09:59:51Z</time>
      </trkpt>
      <trkpt lat="42.80987" lon="0.14533">
        <ele>2217</ele>
        <time>2015-05-17T09:59:55Z</time>
      </trkpt>
      <trkpt lat="42.80991" lon="0.14538">
        <ele>2215</ele>
        <time>2015-05-17T09:59:56Z</time>
      </trkpt>
      <trkpt lat="42.81022" lon="0.14539">
        <ele>2211</ele>
        <time>2015-05-17T10:00:03Z</time>
      </trkpt>
      <trkpt lat="42.81027" lon="0.14539">
        <ele>2210</ele>
        <time>2015-05-17T10:00:04Z</time>
      </trkpt>
      <trkpt lat="42.81037" lon="0.14539">
        <ele>2208</ele>
        <time>2015-05-17T10:00:06Z</time>
      </trkpt>
      <trkpt lat="42.81074" lon="0.14544">
        <ele>2204</ele>
        <time>2015-05-17T10:00:17Z</time>
      </trkpt>
      <trkpt lat="42.81092" lon="0.14573">
        <ele>2201</ele>
        <time>2015-05-17T10:00:28Z</time>
      </trkpt>
      <trkpt lat="42.81105" lon="0.14596">
        <ele>2197</ele>
        <time>2015-05-17T10:00:36Z</time>
      </trkpt>
      <trkpt lat="42.81108" lon="0.14599">
        <ele>2197</ele>
        <time>2015-05-17T10:00:37Z</time>
      </trkpt>
      <trkpt lat="42.81125" lon="0.14628">
        <ele>2194</ele>
        <time>2015-05-17T10:00:46Z</time>
      </trkpt>
      <trkpt lat="42.81149" lon="0.1466">
        <ele>2192</ele>
        <time>2015-05-17T10:00:56Z</time>
      </trkpt>
      <trkpt lat="42.81174" lon="0.1468">
        <ele>2191</ele>
        <time>2015-05-17T10:01:08Z</time>
      </trkpt>
      <trkpt lat="42.81177" lon="0.14683">
        <ele>2190</ele>
        <time>2015-05-17T10:01:15Z</time>
      </trkpt>
      <trkpt lat="42.81183" lon="0.14686">
        <ele>2190</ele>
        <time>2015-05-17T10:01:21Z</time>
      </trkpt>
      <trkpt lat="42.81188" lon="0.14688">
        <ele>2190</ele>
        <time>2015-05-17T10:01:26Z</time>
      </trkpt>
      <trkpt lat="42.81195" lon="0.14692">
        <ele>2190</ele>
        <time>2015-05-17T10:01:39Z</time>
      </trkpt>
      <trkpt lat="42.81196" lon="0.14694">
        <ele>2190</ele>
        <time>2015-05-17T10:01:57Z</time>
      </trkpt>
      <trkpt lat="42.81199" lon="0.14695">
        <ele>2190</ele>
        <time>2015-05-17T10:02:10Z</time>
      </trkpt>
      <trkpt lat="42.81204" lon="0.14698">
        <ele>2190</ele>
        <time>2015-05-17T10:02:21Z</time>
      </trkpt>
      <trkpt lat="42.81204" lon="0.14699">
        <ele>2190</ele>
        <time>2015-05-17T10:02:34Z</time>
      </trkpt>
      <trkpt lat="42.81205" lon="0.14701">
        <ele>2190</ele>
        <time>2015-05-17T10:02:48Z</time>
      </trkpt>
      <trkpt lat="42.81204" lon="0.14703">
        <ele>2189</ele>
        <time>2015-05-17T10:03:04Z</time>
      </trkpt>
      <trkpt lat="42.81204" lon="0.14704">
        <ele>2188</ele>
        <time>2015-05-17T10:03:43Z</time>
      </trkpt>
      <trkpt lat="42.81204" lon="0.14704">
        <ele>2187</ele>
        <time>2015-05-17T10:04:18Z</time>
      </trkpt>
      <trkpt lat="42.81207" lon="0.14704">
        <ele>2186</ele>
        <time>2015-05-17T10:04:54Z</time>
      </trkpt>
      <trkpt lat="42.8121" lon="0.14706">
        <ele>2185</ele>
        <time>2015-05-17T10:05:30Z</time>
      </trkpt>
      <trkpt lat="42.81212" lon="0.14704">
        <ele>2184</ele>
        <time>2015-05-17T10:06:04Z</time>
      </trkpt>
      <trkpt lat="42.8121" lon="0.14702">
        <ele>2184</ele>
        <time>2015-05-17T10:06:33Z</time>
      </trkpt>
      <trkpt lat="42.81213" lon="0.14699">
        <ele>2183</ele>
        <time>2015-05-17T10:06:59Z</time>
      </trkpt>
      <trkpt lat="42.81207" lon="0.14705">
        <ele>2184</ele>
        <time>2015-05-17T10:07:15Z</time>
      </trkpt>
      <trkpt lat="42.81208" lon="0.14705">
        <ele>2183</ele>
        <time>2015-05-17T10:07:36Z</time>
      </trkpt>
      <trkpt lat="42.81208" lon="0.14706">
        <ele>2183</ele>
        <time>2015-05-17T10:07:58Z</time>
      </trkpt>
      <trkpt lat="42.81209" lon="0.14705">
        <ele>2183</ele>
        <time>2015-05-17T10:08:08Z</time>
      </trkpt>
      <trkpt lat="42.81209" lon="0.14703">
        <ele>2183</ele>
        <time>2015-05-17T10:08:23Z</time>
      </trkpt>
      <trkpt lat="42.8121" lon="0.14706">
        <ele>2182</ele>
        <time>2015-05-17T10:08:43Z</time>
      </trkpt>
      <trkpt lat="42.8121" lon="0.14704">
        <ele>2182</ele>
        <time>2015-05-17T10:09:04Z</time>
      </trkpt>
      <trkpt lat="42.81209" lon="0.14703">
        <ele>2181</ele>
        <time>2015-05-17T10:09:18Z</time>
      </trkpt>
      <trkpt lat="42.81216" lon="0.14704">
        <ele>2180</ele>
        <time>2015-05-17T10:09:27Z</time>
      </trkpt>
      <trkpt lat="42.81221" lon="0.14706">
        <ele>2179</ele>
        <time>2015-05-17T10:09:31Z</time>
      </trkpt>
      <trkpt lat="42.81224" lon="0.14707">
        <ele>2179</ele>
        <time>2015-05-17T10:09:34Z</time>
      </trkpt>
      <trkpt lat="42.81239" lon="0.14713">
        <ele>2177</ele>
        <time>2015-05-17T10:09:47Z</time>
      </trkpt>
      <trkpt lat="42.81243" lon="0.14715">
        <ele>2176</ele>
        <time>2015-05-17T10:09:51Z</time>
      </trkpt>
      <trkpt lat="42.81263" lon="0.14715">
        <ele>2174</ele>
        <time>2015-05-17T10:10:06Z</time>
      </trkpt>
      <trkpt lat="42.81267" lon="0.14715">
        <ele>2173</ele>
        <time>2015-05-17T10:10:09Z</time>
      </trkpt>
      <trkpt lat="42.8127" lon="0.14715">
        <ele>2172</ele>
        <time>2015-05-17T10:10:13Z</time>
      </trkpt>
      <trkpt lat="42.81288" lon="0.14721">
        <ele>2170</ele>
        <time>2015-05-17T10:10:28Z</time>
      </trkpt>
      <trkpt lat="42.81294" lon="0.14722">
        <ele>2169</ele>
        <time>2015-05-17T10:10:32Z</time>
      </trkpt>
      <trkpt lat="42.81296" lon="0.1472">
        <ele>2169</ele>
        <time>2015-05-17T10:10:35Z</time>
      </trkpt>
      <trkpt lat="42.81305" lon="0.14717">
        <ele>2167</ele>
        <time>2015-05-17T10:10:41Z</time>
      </trkpt>
      <trkpt lat="42.81309" lon="0.14714">
        <ele>2166</ele>
        <time>2015-05-17T10:10:45Z</time>
      </trkpt>
      <trkpt lat="42.81318" lon="0.14717">
        <ele>2165</ele>
        <time>2015-05-17T10:10:58Z</time>
      </trkpt>
      <trkpt lat="42.8132" lon="0.14718">
        <ele>2165</ele>
        <time>2015-05-17T10:10:59Z</time>
      </trkpt>
      <trkpt lat="42.81323" lon="0.14718">
        <ele>2164</ele>
        <time>2015-05-17T10:11:01Z</time>
      </trkpt>
      <trkpt lat="42.81325" lon="0.14718">
        <ele>2164</ele>
        <time>2015-05-17T10:11:03Z</time>
      </trkpt>
      <trkpt lat="42.81332" lon="0.14718">
        <ele>2163</ele>
        <time>2015-05-17T10:11:10Z</time>
      </trkpt>
      <trkpt lat="42.81351" lon="0.14715">
        <ele>2161</ele>
        <time>2015-05-17T10:11:26Z</time>
      </trkpt>
      <trkpt lat="42.8137" lon="0.14717">
        <ele>2158</ele>
        <time>2015-05-17T10:11:41Z</time>
      </trkpt>
      <trkpt lat="42.81383" lon="0.1472">
        <ele>2155</ele>
        <time>2015-05-17T10:11:55Z</time>
      </trkpt>
      <trkpt lat="42.81392" lon="0.14734">
        <ele>2152</ele>
        <time>2015-05-17T10:12:07Z</time>
      </trkpt>
      <trkpt lat="42.81402" lon="0.14752">
        <ele>2150</ele>
        <time>2015-05-17T10:12:20Z</time>
      </trkpt>
      <trkpt lat="42.81406" lon="0.14762">
        <ele>2149</ele>
        <time>2015-05-17T10:12:28Z</time>
      </trkpt>
      <trkpt lat="42.81413" lon="0.14763">
        <ele>2147</ele>
        <time>2015-05-17T10:12:34Z</time>
      </trkpt>
      <trkpt lat="42.81425" lon="0.14761">
        <ele>2143</ele>
        <time>2015-05-17T10:12:45Z</time>
      </trkpt>
      <trkpt lat="42.81429" lon="0.1477">
        <ele>2141</ele>
        <time>2015-05-17T10:12:56Z</time>
      </trkpt>
      <trkpt lat="42.81442" lon="0.1478">
        <ele>2137</ele>
        <time>2015-05-17T10:13:08Z</time>
      </trkpt>
      <trkpt lat="42.81448" lon="0.14784">
        <ele>2135</ele>
        <time>2015-05-17T10:13:15Z</time>
      </trkpt>
      <trkpt lat="42.81453" lon="0.14786">
        <ele>2133</ele>
        <time>2015-05-17T10:13:21Z</time>
      </trkpt>
      <trkpt lat="42.81463" lon="0.14796">
        <ele>2130</ele>
        <time>2015-05-17T10:13:33Z</time>
      </trkpt>
      <trkpt lat="42.81467" lon="0.14798">
        <ele>2129</ele>
        <time>2015-05-17T10:13:37Z</time>
      </trkpt>
      <trkpt lat="42.8147" lon="0.14799">
        <ele>2128</ele>
        <time>2015-05-17T10:13:39Z</time>
      </trkpt>
      <trkpt lat="42.8148" lon="0.148">
        <ele>2125</ele>
        <time>2015-05-17T10:13:48Z</time>
      </trkpt>
      <trkpt lat="42.81491" lon="0.148">
        <ele>2121</ele>
        <time>2015-05-17T10:13:59Z</time>
      </trkpt>
      <trkpt lat="42.81497" lon="0.14801">
        <ele>2119</ele>
        <time>2015-05-17T10:14:08Z</time>
      </trkpt>
      <trkpt lat="42.81499" lon="0.14802">
        <ele>2119</ele>
        <time>2015-05-17T10:14:10Z</time>
      </trkpt>
      <trkpt lat="42.81511" lon="0.1481">
        <ele>2116</ele>
        <time>2015-05-17T10:14:22Z</time>
      </trkpt>
      <trkpt lat="42.81518" lon="0.14817">
        <ele>2116</ele>
        <time>2015-05-17T10:14:31Z</time>
      </trkpt>
      <trkpt lat="42.81521" lon="0.14824">
        <ele>2115</ele>
        <time>2015-05-17T10:14:35Z</time>
      </trkpt>
      <trkpt lat="42.81531" lon="0.14841">
        <ele>2114</ele>
        <time>2015-05-17T10:14:48Z</time>
      </trkpt>
      <trkpt lat="42.81542" lon="0.14856">
        <ele>2113</ele>
        <time>2015-05-17T10:15:01Z</time>
      </trkpt>
      <trkpt lat="42.81548" lon="0.14861">
        <ele>2113</ele>
        <time>2015-05-17T10:15:14Z</time>
      </trkpt>
      <trkpt lat="42.81549" lon="0.14866">
        <ele>2112</ele>
        <time>2015-05-17T10:15:30Z</time>
      </trkpt>
      <trkpt lat="42.81548" lon="0.14867">
        <ele>2112</ele>
        <time>2015-05-17T10:15:51Z</time>
      </trkpt>
      <trkpt lat="42.81546" lon="0.1487">
        <ele>2111</ele>
        <time>2015-05-17T10:16:12Z</time>
      </trkpt>
      <trkpt lat="42.81547" lon="0.14868">
        <ele>2112</ele>
        <time>2015-05-17T10:16:31Z</time>
      </trkpt>
      <trkpt lat="42.81547" lon="0.14868">
        <ele>2112</ele>
        <time>2015-05-17T10:16:49Z</time>
      </trkpt>
      <trkpt lat="42.81547" lon="0.14864">
        <ele>2111</ele>
        <time>2015-05-17T10:17:08Z</time>
      </trkpt>
      <trkpt lat="42.81547" lon="0.14864">
        <ele>2111</ele>
        <time>2015-05-17T10:17:13Z</time>
      </trkpt>
      <trkpt lat="42.81561" lon="0.14885">
        <ele>2110</ele>
        <time>2015-05-17T10:17:25Z</time>
      </trkpt>
      <trkpt lat="42.81581" lon="0.14926">
        <ele>2107</ele>
        <time>2015-05-17T10:17:38Z</time>
      </trkpt>
      <trkpt lat="42.81594" lon="0.14952">
        <ele>2105</ele>
        <time>2015-05-17T10:17:44Z</time>
      </trkpt>
      <trkpt lat="42.81597" lon="0.14966">
        <ele>2103</ele>
        <time>2015-05-17T10:17:48Z</time>
      </trkpt>
      <trkpt lat="42.81596" lon="0.14976">
        <ele>2103</ele>
        <time>2015-05-17T10:17:57Z</time>
      </trkpt>
      <trkpt lat="42.81597" lon="0.14981">
        <ele>2102</ele>
        <time>2015-05-17T10:18:08Z</time>
      </trkpt>
      <trkpt lat="42.81601" lon="0.14986">
        <ele>2102</ele>
        <time>2015-05-17T10:18:19Z</time>
      </trkpt>
      <trkpt lat="42.81605" lon="0.14999">
        <ele>2101</ele>
        <time>2015-05-17T10:18:33Z</time>
      </trkpt>
      <trkpt lat="42.81614" lon="0.15041">
        <ele>2098</ele>
        <time>2015-05-17T10:18:44Z</time>
      </trkpt>
      <trkpt lat="42.81618" lon="0.15092">
        <ele>2095</ele>
        <time>2015-05-17T10:18:56Z</time>
      </trkpt>
      <trkpt lat="42.8161" lon="0.15136">
        <ele>2093</ele>
        <time>2015-05-17T10:19:07Z</time>
      </trkpt>
      <trkpt lat="42.81609" lon="0.15162">
        <ele>2090</ele>
        <time>2015-05-17T10:19:14Z</time>
      </trkpt>
      <trkpt lat="42.81609" lon="0.15162">
        <ele>2090</ele>
        <time>2015-05-17T10:19:15Z</time>
      </trkpt>
      <trkpt lat="42.81607" lon="0.15167">
        <ele>2090</ele>
        <time>2015-05-17T10:19:24Z</time>
      </trkpt>
      <trkpt lat="42.81624" lon="0.15206">
        <ele>2087</ele>
        <time>2015-05-17T10:19:37Z</time>
      </trkpt>
      <trkpt lat="42.81629" lon="0.15219">
        <ele>2086</ele>
        <time>2015-05-17T10:19:48Z</time>
      </trkpt>
      <trkpt lat="42.81629" lon="0.15217">
        <ele>2085</ele>
        <time>2015-05-17T10:20:03Z</time>
      </trkpt>
      <trkpt lat="42.81628" lon="0.15215">
        <ele>2086</ele>
        <time>2015-05-17T10:20:16Z</time>
      </trkpt>
      <trkpt lat="42.8163" lon="0.15218">
        <ele>2085</ele>
        <time>2015-05-17T10:20:19Z</time>
      </trkpt>
      <trkpt lat="42.81645" lon="0.15236">
        <ele>2083</ele>
        <time>2015-05-17T10:20:34Z</time>
      </trkpt>
      <trkpt lat="42.81653" lon="0.15258">
        <ele>2081</ele>
        <time>2015-05-17T10:20:47Z</time>
      </trkpt>
      <trkpt lat="42.81658" lon="0.15287">
        <ele>2080</ele>
        <time>2015-05-17T10:21:03Z</time>
      </trkpt>
      <trkpt lat="42.81669" lon="0.15315">
        <ele>2077</ele>
        <time>2015-05-17T10:21:19Z</time>
      </trkpt>
      <trkpt lat="42.81688" lon="0.15334">
        <ele>2074</ele>
        <time>2015-05-17T10:21:35Z</time>
      </trkpt>
      <trkpt lat="42.81691" lon="0.15336">
        <ele>2074</ele>
        <time>2015-05-17T10:21:37Z</time>
      </trkpt>
      <trkpt lat="42.81709" lon="0.15345">
        <ele>2072</ele>
        <time>2015-05-17T10:21:49Z</time>
      </trkpt>
      <trkpt lat="42.81727" lon="0.15363">
        <ele>2070</ele>
        <time>2015-05-17T10:22:05Z</time>
      </trkpt>
      <trkpt lat="42.81733" lon="0.15387">
        <ele>2069</ele>
        <time>2015-05-17T10:22:19Z</time>
      </trkpt>
      <trkpt lat="42.81733" lon="0.15394">
        <ele>2067</ele>
        <time>2015-05-17T10:22:23Z</time>
      </trkpt>
      <trkpt lat="42.81737" lon="0.15407">
        <ele>2067</ele>
        <time>2015-05-17T10:22:30Z</time>
      </trkpt>
      <trkpt lat="42.81746" lon="0.15426">
        <ele>2066</ele>
        <time>2015-05-17T10:22:46Z</time>
      </trkpt>
      <trkpt lat="42.81748" lon="0.15429">
        <ele>2065</ele>
        <time>2015-05-17T10:22:58Z</time>
      </trkpt>
      <trkpt lat="42.8175" lon="0.15429">
        <ele>2066</ele>
        <time>2015-05-17T10:23:18Z</time>
      </trkpt>
      <trkpt lat="42.81751" lon="0.15439">
        <ele>2065</ele>
        <time>2015-05-17T10:23:32Z</time>
      </trkpt>
      <trkpt lat="42.81762" lon="0.15482">
        <ele>2062</ele>
        <time>2015-05-17T10:23:45Z</time>
      </trkpt>
      <trkpt lat="42.81786" lon="0.1551">
        <ele>2059</ele>
        <time>2015-05-17T10:23:55Z</time>
      </trkpt>
      <trkpt lat="42.8181" lon="0.15548">
        <ele>2056</ele>
        <time>2015-05-17T10:24:05Z</time>
      </trkpt>
      <trkpt lat="42.81828" lon="0.15596">
        <ele>2053</ele>
        <time>2015-05-17T10:24:16Z</time>
      </trkpt>
      <trkpt lat="42.81845" lon="0.15633">
        <ele>2050</ele>
        <time>2015-05-17T10:24:28Z</time>
      </trkpt>
      <trkpt lat="42.81845" lon="0.15634">
        <ele>2049</ele>
        <time>2015-05-17T10:24:44Z</time>
      </trkpt>
      <trkpt lat="42.81845" lon="0.15636">
        <ele>2050</ele>
        <time>2015-05-17T10:25:02Z</time>
      </trkpt>
      <trkpt lat="42.81845" lon="0.15636">
        <ele>2050</ele>
        <time>2015-05-17T10:25:14Z</time>
      </trkpt>
      <trkpt lat="42.81849" lon="0.15642">
        <ele>2049</ele>
        <time>2015-05-17T10:25:22Z</time>
      </trkpt>
      <trkpt lat="42.81858" lon="0.15656">
        <ele>2048</ele>
        <time>2015-05-17T10:25:36Z</time>
      </trkpt>
      <trkpt lat="42.81857" lon="0.15656">
        <ele>2048</ele>
        <time>2015-05-17T10:25:39Z</time>
      </trkpt>
      <trkpt lat="42.81868" lon="0.15669">
        <ele>2045</ele>
        <time>2015-05-17T10:25:53Z</time>
      </trkpt>
      <trkpt lat="42.81876" lon="0.15673">
        <ele>2045</ele>
        <time>2015-05-17T10:26:00Z</time>
      </trkpt>
      <trkpt lat="42.81893" lon="0.1568">
        <ele>2043</ele>
        <time>2015-05-17T10:26:12Z</time>
      </trkpt>
      <trkpt lat="42.81906" lon="0.15691">
        <ele>2042</ele>
        <time>2015-05-17T10:26:23Z</time>
      </trkpt>
      <trkpt lat="42.81911" lon="0.15698">
        <ele>2042</ele>
        <time>2015-05-17T10:26:36Z</time>
      </trkpt>
      <trkpt lat="42.81909" lon="0.15699">
        <ele>2042</ele>
        <time>2015-05-17T10:26:52Z</time>
      </trkpt>
      <trkpt lat="42.81911" lon="0.157">
        <ele>2042</ele>
        <time>2015-05-17T10:26:55Z</time>
      </trkpt>
      <trkpt lat="42.81918" lon="0.15732">
        <ele>2041</ele>
        <time>2015-05-17T10:27:07Z</time>
      </trkpt>
      <trkpt lat="42.81924" lon="0.15745">
        <ele>2039</ele>
        <time>2015-05-17T10:27:13Z</time>
      </trkpt>
      <trkpt lat="42.81947" lon="0.15762">
        <ele>2036</ele>
        <time>2015-05-17T10:27:25Z</time>
      </trkpt>
      <trkpt lat="42.81957" lon="0.15772">
        <ele>2035</ele>
        <time>2015-05-17T10:27:37Z</time>
      </trkpt>
      <trkpt lat="42.81958" lon="0.15777">
        <ele>2034</ele>
        <time>2015-05-17T10:27:49Z</time>
      </trkpt>
      <trkpt lat="42.81959" lon="0.15779">
        <ele>2035</ele>
        <time>2015-05-17T10:27:52Z</time>
      </trkpt>
      <trkpt lat="42.81961" lon="0.15783">
        <ele>2035</ele>
        <time>2015-05-17T10:27:54Z</time>
      </trkpt>
      <trkpt lat="42.81956" lon="0.15823">
        <ele>2032</ele>
        <time>2015-05-17T10:28:04Z</time>
      </trkpt>
      <trkpt lat="42.81956" lon="0.15857">
        <ele>2030</ele>
        <time>2015-05-17T10:28:11Z</time>
      </trkpt>
      <trkpt lat="42.81958" lon="0.15873">
        <ele>2029</ele>
        <time>2015-05-17T10:28:14Z</time>
      </trkpt>
      <trkpt lat="42.81974" lon="0.15895">
        <ele>2026</ele>
        <time>2015-05-17T10:28:22Z</time>
      </trkpt>
      <trkpt lat="42.81991" lon="0.15912">
        <ele>2023</ele>
        <time>2015-05-17T10:28:28Z</time>
      </trkpt>
      <trkpt lat="42.81993" lon="0.15916">
        <ele>2022</ele>
        <time>2015-05-17T10:28:29Z</time>
      </trkpt>
      <trkpt lat="42.81996" lon="0.15929">
        <ele>2021</ele>
        <time>2015-05-17T10:28:32Z</time>
      </trkpt>
      <trkpt lat="42.82001" lon="0.15958">
        <ele>2019</ele>
        <time>2015-05-17T10:28:37Z</time>
      </trkpt>
      <trkpt lat="42.82017" lon="0.15992">
        <ele>2016</ele>
        <time>2015-05-17T10:28:45Z</time>
      </trkpt>
      <trkpt lat="42.82033" lon="0.16008">
        <ele>2014</ele>
        <time>2015-05-17T10:28:54Z</time>
      </trkpt>
      <trkpt lat="42.82036" lon="0.1601">
        <ele>2013</ele>
        <time>2015-05-17T10:29:06Z</time>
      </trkpt>
      <trkpt lat="42.8204" lon="0.16014">
        <ele>2013</ele>
        <time>2015-05-17T10:29:21Z</time>
      </trkpt>
      <trkpt lat="42.82042" lon="0.16015">
        <ele>2013</ele>
        <time>2015-05-17T10:29:37Z</time>
      </trkpt>
      <trkpt lat="42.82042" lon="0.16016">
        <ele>2013</ele>
        <time>2015-05-17T10:29:47Z</time>
      </trkpt>
      <trkpt lat="42.82052" lon="0.16026">
        <ele>2010</ele>
        <time>2015-05-17T10:30:00Z</time>
      </trkpt>
      <trkpt lat="42.82064" lon="0.16033">
        <ele>2008</ele>
        <time>2015-05-17T10:30:13Z</time>
      </trkpt>
      <trkpt lat="42.82084" lon="0.16051">
        <ele>2006</ele>
        <time>2015-05-17T10:30:27Z</time>
      </trkpt>
      <trkpt lat="42.82088" lon="0.16068">
        <ele>2005</ele>
        <time>2015-05-17T10:30:38Z</time>
      </trkpt>
      <trkpt lat="42.8209" lon="0.16074">
        <ele>2004</ele>
        <time>2015-05-17T10:30:42Z</time>
      </trkpt>
      <trkpt lat="42.82097" lon="0.16098">
        <ele>2002</ele>
        <time>2015-05-17T10:31:00Z</time>
      </trkpt>
      <trkpt lat="42.82112" lon="0.16115">
        <ele>2000</ele>
        <time>2015-05-17T10:31:13Z</time>
      </trkpt>
      <trkpt lat="42.82116" lon="0.1612">
        <ele>1999</ele>
        <time>2015-05-17T10:31:17Z</time>
      </trkpt>
      <trkpt lat="42.82125" lon="0.16129">
        <ele>1997</ele>
        <time>2015-05-17T10:31:25Z</time>
      </trkpt>
      <trkpt lat="42.82134" lon="0.16137">
        <ele>1996</ele>
        <time>2015-05-17T10:31:37Z</time>
      </trkpt>
      <trkpt lat="42.82139" lon="0.16144">
        <ele>1995</ele>
        <time>2015-05-17T10:31:59Z</time>
      </trkpt>
      <trkpt lat="42.82153" lon="0.16146">
        <ele>1993</ele>
        <time>2015-05-17T10:32:14Z</time>
      </trkpt>
      <trkpt lat="42.82168" lon="0.16154">
        <ele>1991</ele>
        <time>2015-05-17T10:32:27Z</time>
      </trkpt>
      <trkpt lat="42.82189" lon="0.1617">
        <ele>1989</ele>
        <time>2015-05-17T10:32:42Z</time>
      </trkpt>
      <trkpt lat="42.82205" lon="0.16186">
        <ele>1987</ele>
        <time>2015-05-17T10:32:57Z</time>
      </trkpt>
      <trkpt lat="42.82206" lon="0.16187">
        <ele>1987</ele>
        <time>2015-05-17T10:32:58Z</time>
      </trkpt>
      <trkpt lat="42.8222" lon="0.16202">
        <ele>1985</ele>
        <time>2015-05-17T10:33:13Z</time>
      </trkpt>
      <trkpt lat="42.8223" lon="0.16214">
        <ele>1983</ele>
        <time>2015-05-17T10:33:25Z</time>
      </trkpt>
      <trkpt lat="42.8225" lon="0.16233">
        <ele>1981</ele>
        <time>2015-05-17T10:33:40Z</time>
      </trkpt>
      <trkpt lat="42.82263" lon="0.16249">
        <ele>1979</ele>
        <time>2015-05-17T10:33:54Z</time>
      </trkpt>
      <trkpt lat="42.82264" lon="0.16252">
        <ele>1978</ele>
        <time>2015-05-17T10:33:57Z</time>
      </trkpt>
      <trkpt lat="42.82273" lon="0.1626">
        <ele>1977</ele>
        <time>2015-05-17T10:34:05Z</time>
      </trkpt>
      <trkpt lat="42.82283" lon="0.16275">
        <ele>1976</ele>
        <time>2015-05-17T10:34:16Z</time>
      </trkpt>
      <trkpt lat="42.82285" lon="0.16279">
        <ele>1975</ele>
        <time>2015-05-17T10:34:19Z</time>
      </trkpt>
      <trkpt lat="42.82301" lon="0.16297">
        <ele>1973</ele>
        <time>2015-05-17T10:34:34Z</time>
      </trkpt>
      <trkpt lat="42.82313" lon="0.16315">
        <ele>1971</ele>
        <time>2015-05-17T10:34:45Z</time>
      </trkpt>
      <trkpt lat="42.82323" lon="0.16335">
        <ele>1969</ele>
        <time>2015-05-17T10:35:00Z</time>
      </trkpt>
      <trkpt lat="42.82324" lon="0.16349">
        <ele>1967</ele>
        <time>2015-05-17T10:35:08Z</time>
      </trkpt>
      <trkpt lat="42.82331" lon="0.16374">
        <ele>1966</ele>
        <time>2015-05-17T10:35:21Z</time>
      </trkpt>
      <trkpt lat="42.82337" lon="0.16391">
        <ele>1964</ele>
        <time>2015-05-17T10:35:33Z</time>
      </trkpt>
      <trkpt lat="42.82338" lon="0.16395">
        <ele>1963</ele>
        <time>2015-05-17T10:35:36Z</time>
      </trkpt>
      <trkpt lat="42.82353" lon="0.16413">
        <ele>1961</ele>
        <time>2015-05-17T10:35:51Z</time>
      </trkpt>
      <trkpt lat="42.82358" lon="0.1642">
        <ele>1960</ele>
        <time>2015-05-17T10:35:57Z</time>
      </trkpt>
      <trkpt lat="42.82374" lon="0.16434">
        <ele>1958</ele>
        <time>2015-05-17T10:36:09Z</time>
      </trkpt>
      <trkpt lat="42.8238" lon="0.16447">
        <ele>1957</ele>
        <time>2015-05-17T10:36:13Z</time>
      </trkpt>
      <trkpt lat="42.82386" lon="0.1648">
        <ele>1955</ele>
        <time>2015-05-17T10:36:28Z</time>
      </trkpt>
      <trkpt lat="42.82388" lon="0.16492">
        <ele>1954</ele>
        <time>2015-05-17T10:36:35Z</time>
      </trkpt>
      <trkpt lat="42.82388" lon="0.16519">
        <ele>1952</ele>
        <time>2015-05-17T10:36:49Z</time>
      </trkpt>
      <trkpt lat="42.82387" lon="0.16544">
        <ele>1949</ele>
        <time>2015-05-17T10:37:04Z</time>
      </trkpt>
      <trkpt lat="42.8239" lon="0.16563">
        <ele>1948</ele>
        <time>2015-05-17T10:37:17Z</time>
      </trkpt>
      <trkpt lat="42.82398" lon="0.16583">
        <ele>1945</ele>
        <time>2015-05-17T10:37:30Z</time>
      </trkpt>
      <trkpt lat="42.824" lon="0.16586">
        <ele>1945</ele>
        <time>2015-05-17T10:37:32Z</time>
      </trkpt>
      <trkpt lat="42.82409" lon="0.1661">
        <ele>1943</ele>
        <time>2015-05-17T10:37:44Z</time>
      </trkpt>
      <trkpt lat="42.8241" lon="0.16612">
        <ele>1943</ele>
        <time>2015-05-17T10:37:45Z</time>
      </trkpt>
      <trkpt lat="42.82411" lon="0.16621">
        <ele>1942</ele>
        <time>2015-05-17T10:37:50Z</time>
      </trkpt>
      <trkpt lat="42.82416" lon="0.16628">
        <ele>1942</ele>
        <time>2015-05-17T10:37:54Z</time>
      </trkpt>
      <trkpt lat="42.82419" lon="0.16655">
        <ele>1940</ele>
        <time>2015-05-17T10:38:09Z</time>
      </trkpt>
      <trkpt lat="42.82424" lon="0.16677">
        <ele>1938</ele>
        <time>2015-05-17T10:38:23Z</time>
      </trkpt>
      <trkpt lat="42.82435" lon="0.16704">
        <ele>1935</ele>
        <time>2015-05-17T10:38:38Z</time>
      </trkpt>
      <trkpt lat="42.82448" lon="0.1673">
        <ele>1933</ele>
        <time>2015-05-17T10:38:52Z</time>
      </trkpt>
      <trkpt lat="42.82457" lon="0.16754">
        <ele>1932</ele>
        <time>2015-05-17T10:39:05Z</time>
      </trkpt>
      <trkpt lat="42.8246" lon="0.16778">
        <ele>1932</ele>
        <time>2015-05-17T10:39:18Z</time>
      </trkpt>
      <trkpt lat="42.82459" lon="0.16797">
        <ele>1931</ele>
        <time>2015-05-17T10:39:29Z</time>
      </trkpt>
      <trkpt lat="42.82458" lon="0.16801">
        <ele>1931</ele>
        <time>2015-05-17T10:39:31Z</time>
      </trkpt>
      <trkpt lat="42.82457" lon="0.16806">
        <ele>1931</ele>
        <time>2015-05-17T10:39:34Z</time>
      </trkpt>
      <trkpt lat="42.82459" lon="0.16822">
        <ele>1930</ele>
        <time>2015-05-17T10:39:47Z</time>
      </trkpt>
      <trkpt lat="42.82455" lon="0.16832">
        <ele>1930</ele>
        <time>2015-05-17T10:39:54Z</time>
      </trkpt>
      <trkpt lat="42.82454" lon="0.16835">
        <ele>1929</ele>
        <time>2015-05-17T10:39:57Z</time>
      </trkpt>
      <trkpt lat="42.82454" lon="0.16854">
        <ele>1928</ele>
        <time>2015-05-17T10:40:10Z</time>
      </trkpt>
      <trkpt lat="42.82447" lon="0.16874">
        <ele>1927</ele>
        <time>2015-05-17T10:40:26Z</time>
      </trkpt>
      <trkpt lat="42.82443" lon="0.16892">
        <ele>1925</ele>
        <time>2015-05-17T10:40:35Z</time>
      </trkpt>
      <trkpt lat="42.82443" lon="0.16895">
        <ele>1925</ele>
        <time>2015-05-17T10:40:37Z</time>
      </trkpt>
      <trkpt lat="42.82442" lon="0.16895">
        <ele>1924</ele>
        <time>2015-05-17T10:40:38Z</time>
      </trkpt>
      <trkpt lat="42.82432" lon="0.16911">
        <ele>1923</ele>
        <time>2015-05-17T10:40:52Z</time>
      </trkpt>
      <trkpt lat="42.82422" lon="0.16921">
        <ele>1923</ele>
        <time>2015-05-17T10:41:06Z</time>
      </trkpt>
      <trkpt lat="42.82419" lon="0.1693">
        <ele>1923</ele>
        <time>2015-05-17T10:41:21Z</time>
      </trkpt>
      <trkpt lat="42.82421" lon="0.16927">
        <ele>1921</ele>
        <time>2015-05-17T10:41:36Z</time>
      </trkpt>
      <trkpt lat="42.8243" lon="0.16931">
        <ele>1921</ele>
        <time>2015-05-17T10:42:02Z</time>
      </trkpt>
      <trkpt lat="42.82421" lon="0.16927">
        <ele>1921</ele>
        <time>2015-05-17T10:42:32Z</time>
      </trkpt>
      <trkpt lat="42.82417" lon="0.16927">
        <ele>1921</ele>
        <time>2015-05-17T10:43:04Z</time>
      </trkpt>
      <trkpt lat="42.82416" lon="0.16926">
        <ele>1921</ele>
        <time>2015-05-17T10:43:32Z</time>
      </trkpt>
      <trkpt lat="42.82417" lon="0.16928">
        <ele>1920</ele>
        <time>2015-05-17T10:44:01Z</time>
      </trkpt>
      <trkpt lat="42.82418" lon="0.1693">
        <ele>1920</ele>
        <time>2015-05-17T10:44:23Z</time>
      </trkpt>
      <trkpt lat="42.82421" lon="0.16928">
        <ele>1920</ele>
        <time>2015-05-17T10:45:01Z</time>
      </trkpt>
      <trkpt lat="42.8242" lon="0.16928">
        <ele>1919</ele>
        <time>2015-05-17T10:45:40Z</time>
      </trkpt>
      <trkpt lat="42.82422" lon="0.16928">
        <ele>1919</ele>
        <time>2015-05-17T10:46:13Z</time>
      </trkpt>
      <trkpt lat="42.82422" lon="0.16927">
        <ele>1919</ele>
        <time>2015-05-17T10:46:39Z</time>
      </trkpt>
      <trkpt lat="42.82421" lon="0.16927">
        <ele>1919</ele>
        <time>2015-05-17T10:47:14Z</time>
      </trkpt>
      <trkpt lat="42.82423" lon="0.16928">
        <ele>1919</ele>
        <time>2015-05-17T10:47:48Z</time>
      </trkpt>
      <trkpt lat="42.8242" lon="0.16927">
        <ele>1919</ele>
        <time>2015-05-17T10:48:18Z</time>
      </trkpt>
      <trkpt lat="42.82417" lon="0.16927">
        <ele>1919</ele>
        <time>2015-05-17T10:48:41Z</time>
      </trkpt>
      <trkpt lat="42.82417" lon="0.16926">
        <ele>1918</ele>
        <time>2015-05-17T10:49:07Z</time>
      </trkpt>
      <trkpt lat="42.82419" lon="0.16929">
        <ele>1919</ele>
        <time>2015-05-17T10:49:29Z</time>
      </trkpt>
      <trkpt lat="42.8242" lon="0.16931">
        <ele>1918</ele>
        <time>2015-05-17T10:49:54Z</time>
      </trkpt>
      <trkpt lat="42.82416" lon="0.16926">
        <ele>1918</ele>
        <time>2015-05-17T10:50:20Z</time>
      </trkpt>
      <trkpt lat="42.82419" lon="0.1693">
        <ele>1918</ele>
        <time>2015-05-17T10:50:53Z</time>
      </trkpt>
      <trkpt lat="42.82414" lon="0.16927">
        <ele>1918</ele>
        <time>2015-05-17T10:51:11Z</time>
      </trkpt>
    </trkseg>
  </trk>
</gpx>